[[{"header":{"parameterUnit":"m.s-1","parameterCategory":1,"la1":30.6,"la2":29.2853,"lo1":-89.7004,"lo2":-87.6739,"dy":0.0162,"dx":0.0183,"nx":112,"ny":82,"refTime":"2024-03-14T06:00:00:Z","depth":0,"parameterNumber":2,"parameterNumberName":"U-component_of_WINDS"},"data":[0.0,0.0,0.0,0.0,0.0,0.0,0.0,0.0,0.0,0.0,0.0,0.0,0.0,0.0,0.0,0.0,0.0,0.0,0.0,0.0,0.0,0.0,0.0,0.0,0.0,0.0,0.0,0.0,0.0,0.0,0.0,0.0,0.0,0.0,0.0,0.0,0.0,0.0,0.0,0.0,0.0,0.0,0.0,0.0,0.0,0.0,0.0,0.0,0.0,0.0,0.0,0.0,0.0,0.0,0.0,0.0,0.0,0.0,0.0,0.0,0.0,0.0,0.0,0.0,0.0,0.0,0.0,0.0,0.0,0.0,0.0,0.0,0.0,0.0,0.0,0.0,0.0,0.0,0.0,0.0,0.0,0.0,0.0,0.0,0.0,0.0,0.0,0.0,0.0,0.0,-3.6396,-3.6668,-3.8402,-3.9597,-3.9697,-3.9898,-3.8065,-3.3495,0.0,0.0,0.0,0.0,0.0,0.0,0.0,0.0,0.0,0.0,0.0,0.0,0.0,0.0,0.0,0.0,0.0,0.0,0.0,0.0,0.0,0.0,0.0,0.0,0.0,0.0,0.0,0.0,0.0,0.0,0.0,0.0,0.0,0.0,0.0,0.0,0.0,0.0,0.0,0.0,0.0,0.0,0.0,0.0,0.0,0.0,0.0,0.0,0.0,0.0,0.0,0.0,0.0,0.0,0.0,0.0,0.0,0.0,0.0,0.0,0.0,0.0,0.0,0.0,0.0,0.0,0.0,0.0,0.0,0.0,0.0,0.0,0.0,0.0,0.0,0.0,0.0,0.0,0.0,0.0,0.0,0.0,0.0,0.0,0.0,0.0,0.0,0.0,0.0,0.0,0.0,0.0,0.0,0.0,0.0,0.0,0.0,0.0,0.0,0.0,0.0,0.0,0.0,0.0,-3.5184,-3.6913,-3.8263,-3.9195,-3.9647,-3.8467,-3.6558,-3.3947,0.0,0.0,0.0,0.0,0.0,0.0,0.0,0.0,0.0,0.0,0.0,0.0,0.0,0.0,0.0,0.0,0.0,0.0,0.0,0.0,0.0,0.0,0.0,0.0,0.0,0.0,0.0,0.0,0.0,0.0,0.0,0.0,0.0,0.0,0.0,0.0,0.0,0.0,0.0,0.0,0.0,0.0,0.0,0.0,0.0,0.0,0.0,0.0,0.0,0.0,0.0,0.0,0.0,0.0,0.0,0.0,0.0,0.0,0.0,0.0,0.0,0.0,0.0,0.0,0.0,0.0,0.0,0.0,0.0,0.0,0.0,0.0,0.0,0.0,0.0,0.0,0.0,0.0,0.0,0.0,0.0,0.0,0.0,0.0,0.0,0.0,0.0,0.0,0.0,0.0,0.0,0.0,0.0,0.0,0.0,0.0,0.0,0.0,0.0,0.0,0.0,0.0,0.0,-3.5656,-3.5824,-3.7457,-3.8642,-3.9421,-3.9672,-3.8417,-3.6433,-3.3621,-3.2893,0.0,0.0,0.0,0.0,0.0,0.0,0.0,0.0,0.0,0.0,0.0,0.0,0.0,0.0,0.0,0.0,0.0,0.0,0.0,0.0,0.0,0.0,0.0,0.0,0.0,0.0,0.0,0.0,0.0,0.0,0.0,0.0,0.0,0.0,0.0,0.0,0.0,0.0,0.0,0.0,0.0,0.0,0.0,0.0,0.0,0.0,0.0,0.0,0.0,0.0,0.0,0.0,0.0,0.0,0.0,0.0,0.0,0.0,0.0,0.0,0.0,0.0,0.0,0.0,0.0,0.0,0.0,0.0,0.0,0.0,0.0,0.0,0.0,0.0,0.0,0.0,0.0,0.0,0.0,0.0,0.0,0.0,0.0,0.0,0.0,0.0,0.0,0.0,0.0,0.0,0.0,0.0,0.0,0.0,0.0,0.0,0.0,0.0,0.0,0.0,0.0,0.0,-3.6402,-3.6392,-3.766,-3.8818,-3.9446,-3.9295,-3.8015,-3.6056,-3.3244,-3.1537,0.0,0.0,0.0,0.0,0.0,0.0,0.0,0.0,0.0,0.0,0.0,0.0,0.0,0.0,0.0,0.0,0.0,0.0,0.0,0.0,0.0,0.0,0.0,0.0,0.0,0.0,0.0,0.0,0.0,0.0,0.0,0.0,0.0,0.0,0.0,0.0,0.0,0.0,0.0,0.0,0.0,0.0,0.0,0.0,0.0,0.0,0.0,0.0,0.0,0.0,0.0,0.0,0.0,0.0,0.0,0.0,0.0,0.0,0.0,0.0,0.0,0.0,0.0,0.0,0.0,0.0,0.0,0.0,0.0,0.0,0.0,0.0,0.0,0.0,0.0,0.0,0.0,0.0,0.0,0.0,0.0,0.0,0.0,0.0,0.0,0.0,0.0,0.0,0.0,0.0,0.0,0.0,0.0,0.0,0.0,0.0,0.0,0.0,0.0,0.0,0.0,0.0,-3.5089,-3.5841,-3.7155,-3.8266,-3.8718,-3.8165,-3.6182,-3.4424,-3.3169,-3.0105,0.0,0.0,0.0,0.0,0.0,0.0,0.0,0.0,0.0,0.0,0.0,0.0,0.0,0.0,0.0,0.0,0.0,0.0,0.0,0.0,0.0,0.0,0.0,0.0,0.0,0.0,0.0,0.0,0.0,0.0,0.0,0.0,0.0,0.0,0.0,0.0,0.0,0.0,0.0,0.0,0.0,0.0,0.0,0.0,0.0,0.0,0.0,0.0,0.0,0.0,0.0,0.0,0.0,0.0,0.0,0.0,0.0,0.0,0.0,0.0,0.0,0.0,0.0,0.0,0.0,0.0,0.0,0.0,0.0,0.0,0.0,0.0,0.0,0.0,0.0,0.0,0.0,0.0,0.0,0.0,0.0,0.0,0.0,0.0,0.0,0.0,0.0,0.0,0.0,0.0,0.0,0.0,0.0,0.0,0.0,0.0,0.0,0.0,0.0,0.0,0.0,0.0,-3.4443,-3.513,-3.6983,-3.7864,-3.8241,-3.8015,-3.626,-3.4625,-3.3212,0.0,0.0,0.0,0.0,0.0,0.0,0.0,0.0,0.0,0.0,0.0,0.0,0.0,0.0,0.0,0.0,0.0,0.0,0.0,0.0,0.0,0.0,0.0,0.0,0.0,0.0,0.0,0.0,0.0,0.0,0.0,0.0,0.0,0.0,0.0,0.0,0.0,0.0,0.0,0.0,0.0,0.0,0.0,0.0,0.0,0.0,0.0,0.0,0.0,0.0,0.0,0.0,0.0,0.0,0.0,0.0,0.0,0.0,0.0,0.0,0.0,0.0,0.0,0.0,0.0,0.0,0.0,0.0,0.0,0.0,0.0,0.0,0.0,0.0,0.0,0.0,0.0,0.0,0.0,0.0,0.0,0.0,0.0,0.0,0.0,0.0,0.0,0.0,0.0,0.0,0.0,0.0,0.0,0.0,0.0,0.0,0.0,0.0,0.0,0.0,0.0,0.0,-3.3768,-3.3954,-3.4675,-3.6709,-3.7195,-3.7171,-3.6652,-3.4619,-3.3012,-3.2284,0.0,0.0,0.0,0.0,0.0,0.0,0.0,0.0,0.0,0.0,0.0,0.0,0.0,0.0,0.0,0.0,0.0,0.0,0.0,0.0,0.0,0.0,0.0,0.0,0.0,0.0,0.0,0.0,0.0,0.0,0.0,0.0,0.0,0.0,0.0,0.0,0.0,0.0,0.0,0.0,0.0,0.0,0.0,0.0,0.0,0.0,0.0,0.0,0.0,0.0,0.0,0.0,0.0,0.0,0.0,0.0,0.0,0.0,0.0,0.0,0.0,0.0,0.0,0.0,0.0,0.0,0.0,0.0,0.0,0.0,0.0,0.0,0.0,0.0,0.0,0.0,0.0,0.0,0.0,0.0,0.0,0.0,0.0,0.0,0.0,0.0,0.0,0.0,0.0,0.0,0.0,0.0,0.0,0.0,0.0,0.0,0.0,0.0,0.0,0.0,0.0,0.0,-3.2792,-3.3545,-3.4525,-3.6182,-3.6136,-3.5365,-3.3815,-3.056,-2.9124,0.0,0.0,0.0,0.0,0.0,0.0,0.0,0.0,0.0,0.0,0.0,0.0,0.0,0.0,0.0,0.0,0.0,0.0,0.0,0.0,0.0,0.0,0.0,0.0,0.0,0.0,0.0,0.0,0.0,0.0,0.0,0.0,0.0,0.0,0.0,0.0,0.0,0.0,0.0,0.0,0.0,0.0,0.0,0.0,0.0,0.0,0.0,0.0,0.0,0.0,0.0,0.0,0.0,0.0,0.0,0.0,0.0,0.0,0.0,0.0,0.0,0.0,0.0,0.0,0.0,0.0,0.0,0.0,0.0,0.0,0.0,0.0,0.0,0.0,0.0,0.0,0.0,0.0,0.0,0.0,0.0,0.0,0.0,0.0,0.0,0.0,0.0,0.0,0.0,0.0,0.0,0.0,0.0,0.0,0.0,0.0,0.0,0.0,0.0,0.0,0.0,0.0,0.0,-3.1443,-3.1765,-3.2289,-3.3392,-3.3457,-3.3119,-3.2368,-3.0369,-2.9173,-2.928,0.0,0.0,0.0,0.0,0.0,0.0,0.0,0.0,0.0,0.0,0.0,0.0,0.0,0.0,0.0,0.0,0.0,0.0,0.0,0.0,0.0,0.0,0.0,0.0,0.0,0.0,0.0,0.0,0.0,0.0,0.0,0.0,0.0,0.0,0.0,0.0,0.0,0.0,0.0,0.0,0.0,0.0,0.0,0.0,0.0,0.0,0.0,0.0,0.0,0.0,0.0,0.0,0.0,0.0,0.0,0.0,0.0,0.0,0.0,0.0,0.0,0.0,0.0,0.0,0.0,0.0,0.0,0.0,0.0,0.0,0.0,0.0,0.0,0.0,0.0,0.0,0.0,0.0,0.0,0.0,0.0,0.0,0.0,0.0,0.0,0.0,0.0,0.0,0.0,0.0,0.0,0.0,0.0,0.0,0.0,0.0,0.0,0.0,0.0,0.0,0.0,0.0,-3.0608,-3.0547,-3.0813,-3.1959,-3.1715,-3.1258,-3.0702,-2.8972,-2.7803,-2.7435,0.0,0.0,0.0,0.0,0.0,0.0,0.0,0.0,0.0,0.0,0.0,0.0,0.0,0.0,0.0,0.0,0.0,0.0,0.0,0.0,0.0,0.0,0.0,0.0,0.0,0.0,0.0,0.0,0.0,0.0,0.0,0.0,0.0,0.0,0.0,0.0,0.0,0.0,0.0,0.0,0.0,0.0,0.0,0.0,0.0,0.0,0.0,0.0,0.0,0.0,0.0,0.0,0.0,0.0,0.0,0.0,0.0,0.0,0.0,0.0,0.0,0.0,0.0,0.0,0.0,0.0,0.0,0.0,0.0,0.0,0.0,0.0,0.0,0.0,0.0,0.0,0.0,0.0,0.0,0.0,0.0,0.0,0.0,0.0,0.0,0.0,0.0,0.0,0.0,0.0,0.0,0.0,0.0,0.0,0.0,0.0,0.0,0.0,0.0,0.0,0.0,0.0,-3.0009,-2.96,-2.9678,-3.1096,-3.0491,-2.9641,-2.8877,-2.6881,-2.5622,-2.5402,0.0,0.0,0.0,0.0,0.0,0.0,0.0,0.0,0.0,0.0,0.0,0.0,0.0,0.0,0.0,0.0,0.0,0.0,0.0,0.0,0.0,0.0,0.0,0.0,0.0,0.0,0.0,0.0,0.0,0.0,0.0,0.0,0.0,0.0,0.0,0.0,0.0,0.0,0.0,0.0,0.0,0.0,0.0,0.0,0.0,0.0,0.0,0.0,0.0,0.0,0.0,0.0,0.0,0.0,0.0,0.0,0.0,0.0,0.0,0.0,-3.4165,0.0,0.0,0.0,0.0,0.0,0.0,0.0,0.0,0.0,0.0,0.0,0.0,0.0,0.0,0.0,0.0,0.0,0.0,0.0,0.0,0.0,0.0,0.0,0.0,0.0,0.0,0.0,0.0,0.0,0.0,0.0,0.0,0.0,0.0,0.0,0.0,0.0,0.0,0.0,0.0,0.0,-2.8764,-2.7889,-2.7463,-2.7935,-2.7821,-2.7648,-2.7419,-2.6379,-2.5565,-2.5198,-2.4933,0.0,0.0,0.0,0.0,0.0,0.0,0.0,0.0,0.0,0.0,0.0,0.0,0.0,0.0,0.0,0.0,0.0,0.0,0.0,0.0,0.0,0.0,0.0,0.0,0.0,0.0,0.0,0.0,0.0,0.0,0.0,0.0,0.0,0.0,0.0,0.0,0.0,0.0,0.0,0.0,0.0,0.0,0.0,0.0,0.0,0.0,0.0,0.0,0.0,0.0,0.0,0.0,0.0,0.0,0.0,0.0,0.0,0.0,0.0,0.0,-3.3694,0.0,0.0,0.0,0.0,0.0,0.0,0.0,0.0,0.0,0.0,0.0,0.0,0.0,0.0,0.0,0.0,0.0,0.0,0.0,0.0,0.0,0.0,0.0,0.0,0.0,0.0,0.0,0.0,0.0,0.0,0.0,0.0,0.0,0.0,0.0,0.0,0.0,0.0,0.0,0.0,-2.7279,-2.651,-2.6139,-2.6652,-2.6894,-2.6934,-2.6738,-2.6113,-2.5371,-2.4512,-2.4171,0.0,0.0,0.0,0.0,0.0,0.0,0.0,0.0,0.0,0.0,0.0,0.0,0.0,0.0,0.0,0.0,0.0,0.0,0.0,0.0,0.0,0.0,0.0,0.0,0.0,0.0,0.0,0.0,0.0,0.0,0.0,0.0,0.0,0.0,0.0,0.0,0.0,0.0,0.0,0.0,0.0,0.0,0.0,0.0,0.0,0.0,0.0,0.0,0.0,0.0,0.0,0.0,0.0,-3.3066,-3.2709,-3.1855,-3.1855,-3.1484,-3.0937,-3.2332,-3.2411,-3.1589,-3.2229,0.0,0.0,0.0,0.0,0.0,0.0,0.0,0.0,0.0,0.0,0.0,0.0,0.0,0.0,0.0,0.0,0.0,0.0,0.0,0.0,0.0,0.0,0.0,0.0,-2.6099,-2.5809,-2.6281,0.0,0.0,0.0,0.0,0.0,0.0,0.0,0.0,0.0,0.0,0.0,-2.5902,-2.5349,-2.5273,-2.6074,-2.6543,-2.668,-2.6406,-2.5996,-2.5226,-2.4199,-2.3574,-2.2906,0.0,0.0,0.0,0.0,0.0,0.0,0.0,0.0,0.0,0.0,0.0,0.0,0.0,0.0,0.0,0.0,0.0,0.0,0.0,0.0,0.0,0.0,0.0,0.0,0.0,0.0,0.0,0.0,0.0,0.0,0.0,0.0,-3.5927,-3.7096,0.0,0.0,0.0,0.0,0.0,0.0,0.0,0.0,0.0,0.0,0.0,0.0,0.0,-3.3296,-3.4001,-3.3619,-3.3069,-3.2294,-3.3792,-3.402,-3.3164,-3.3164,-3.332,-3.3579,-3.3067,0.0,-3.1517,-3.0895,0.0,0.0,0.0,0.0,0.0,0.0,0.0,0.0,0.0,0.0,0.0,0.0,0.0,0.0,0.0,0.0,0.0,0.0,0.0,0.0,0.0,0.0,-2.6281,-2.5917,-2.5732,-2.5712,0.0,-2.6054,-2.618,-2.5632,-2.5821,0.0,0.0,0.0,0.0,0.0,0.0,0.0,-2.4998,-2.4686,-2.4687,-2.5243,-2.5644,-2.5986,-2.6367,-2.5996,-2.5615,-2.544,-2.4355,-2.3652,-2.3535,-2.2422,0.0,0.0,0.0,0.0,0.0,0.0,0.0,0.0,0.0,0.0,0.0,0.0,0.0,0.0,0.0,0.0,0.0,0.0,0.0,0.0,0.0,0.0,0.0,0.0,0.0,0.0,0.0,0.0,0.0,-3.5967,-3.6511,-3.5881,-3.5909,-3.555,0.0,0.0,0.0,0.0,0.0,0.0,0.0,0.0,0.0,-3.4453,-3.3631,-3.3477,-3.4119,-3.4147,-3.4199,-3.4336,-3.5098,-3.5234,-3.4883,-3.4883,-3.4707,-3.4394,-3.4023,-3.3559,-3.2914,-3.1526,-3.0838,-3.0686,0.0,0.0,0.0,0.0,-3.0405,-2.9827,-3.0206,-2.9664,-2.884,-2.8828,0.0,0.0,0.0,0.0,0.0,0.0,0.0,0.0,0.0,0.0,-2.6758,-2.6816,-2.7012,-2.7109,-2.6875,-2.6527,-2.5993,0.0,-2.5153,-2.5436,-2.5528,0.0,0.0,0.0,0.0,-2.4387,-2.4233,-2.434,-2.459,-2.5067,-2.5469,-2.5771,-2.5996,-2.581,-2.5479,-2.4972,-2.4238,-2.3574,-2.3086,-2.2539,-2.2305,0.0,0.0,0.0,0.0,0.0,0.0,0.0,0.0,0.0,0.0,0.0,0.0,0.0,0.0,0.0,0.0,0.0,0.0,0.0,0.0,0.0,0.0,0.0,0.0,0.0,0.0,0.0,0.0,-3.5396,-3.6259,-3.4972,-3.6084,-3.6077,0.0,0.0,0.0,0.0,0.0,0.0,-3.4204,-3.3609,-3.384,-3.525,-3.464,-3.4453,-3.4902,-3.5215,-3.5703,-3.6348,-3.6348,-3.6348,-3.6348,-3.623,-3.584,-3.5195,-3.498,-3.4629,-3.4101,-3.2383,-3.1162,-3.0273,-3.0081,-2.9994,-3.0141,-3.0644,-3.0324,-2.9691,-3.0146,-2.9507,-2.8368,-2.8259,-2.7322,-2.6231,-2.6417,0.0,0.0,0.0,0.0,-2.6221,-2.6517,-2.6855,-2.7285,-2.7734,-2.8066,-2.8184,-2.7806,-2.707,-2.6191,0.0,-2.4668,-2.4617,-2.4538,0.0,0.0,0.0,-2.4031,-2.3796,-2.3511,-2.3926,-2.4375,-2.4707,-2.5137,-2.5401,-2.5566,-2.5421,-2.5109,-2.4609,-2.4082,-2.3496,-2.2871,-2.2637,-2.2422,-2.2207,0.0,0.0,0.0,0.0,0.0,0.0,0.0,0.0,0.0,0.0,0.0,0.0,0.0,0.0,0.0,0.0,0.0,0.0,0.0,0.0,0.0,0.0,0.0,0.0,0.0,0.0,0.0,0.0,0.0,-3.5025,-3.4615,0.0,0.0,0.0,0.0,-3.3288,-3.4105,-3.4677,-3.4654,-3.4622,-3.523,-3.6563,-3.6553,-3.6719,-3.7129,-3.7168,-3.7187,-3.7226,-3.7226,-3.7226,-3.7226,-3.6816,-3.6621,-3.6523,-3.5703,-3.5098,-3.4531,-3.2832,-3.1642,-3.078,-2.9937,-2.9148,-2.8475,-2.8908,-2.8775,-2.8388,-2.8427,-2.7845,-2.7305,-2.8472,-2.8295,-2.7454,-2.6654,-2.6065,0.0,0.0,-2.6055,-2.6486,-2.6855,-2.7305,-2.7787,-2.8164,-2.8281,-2.8184,-2.7806,-2.7305,-2.6719,0.0,-2.4375,-2.3403,-2.3781,0.0,-2.2605,-2.2624,-2.2895,-2.3012,-2.2617,-2.3301,-2.3828,-2.3848,-2.4238,-2.4648,-2.5106,-2.4727,-2.4648,-2.5067,-2.4258,-2.3769,-2.373,-2.2949,-2.2695,-2.3023,-2.2305,0.0,0.0,0.0,0.0,0.0,0.0,0.0,0.0,0.0,0.0,0.0,0.0,0.0,0.0,0.0,0.0,0.0,0.0,0.0,0.0,0.0,0.0,0.0,0.0,0.0,0.0,0.0,0.0,-3.5323,-3.7059,0.0,-3.5401,-3.5707,-3.5478,-3.4273,-3.5047,-3.5825,-3.6309,-3.6621,-3.7246,-3.8262,-3.8047,-3.8105,-3.8516,-3.8262,-3.8125,-3.8125,-3.7832,-3.7559,-3.7285,-3.6855,-3.6367,-3.584,-3.5527,-3.5137,-3.4609,-3.3457,-3.2305,-3.123,-3.0644,-2.9883,-2.9141,-2.9277,-2.9414,-2.9512,-2.9512,-2.9316,-2.8965,-2.832,-2.7344,-2.6367,-2.6055,-2.581,-2.581,-2.6356,-2.668,-2.6953,-2.7656,-2.7949,-2.8105,-2.8262,-2.8086,-2.7851,-2.7748,-2.7109,-2.6523,-2.6211,-2.5195,-2.4304,-2.3867,-2.3301,-2.2867,-2.2867,-2.2769,-2.2773,-2.2847,-2.3418,-2.3789,-2.3789,-2.416,-2.4473,-2.4629,-2.4512,-2.4375,-2.4258,-2.3965,-2.3672,-2.3379,-2.3042,-2.2808,-2.2734,-2.2168,-2.209,0.0,0.0,0.0,0.0,0.0,0.0,0.0,0.0,0.0,0.0,0.0,0.0,0.0,0.0,0.0,0.0,0.0,0.0,0.0,0.0,0.0,0.0,0.0,0.0,0.0,-3.441,-3.5613,-3.5438,-3.7954,-3.8744,-3.6286,-3.6704,-3.681,-3.6064,-3.668,-3.748,-3.834,-3.8652,-3.9062,-3.9629,-3.9375,-3.9219,-3.9199,-3.8926,-3.8633,-3.8359,-3.791,-3.75,-3.707,-3.6504,-3.5937,-3.5371,-3.5078,-3.4766,-3.4414,-3.3574,-3.2637,-3.1699,-3.1269,-3.0664,-3.0019,-3.0019,-3.0195,-3.0391,-3.0098,-2.998,-2.9746,-2.834,-2.7305,-2.6602,-2.6602,-2.6602,-2.6719,-2.7285,-2.7441,-2.7578,-2.8144,-2.8184,-2.8086,-2.8086,-2.7754,-2.7402,-2.7266,-2.6797,-2.6348,-2.6191,-2.5566,-2.493,-2.4316,-2.3867,-2.353,-2.353,-2.3203,-2.3086,-2.3471,-2.3574,-2.3633,-2.3769,-2.4043,-2.4199,-2.4199,-2.4199,-2.4082,-2.3809,-2.3516,-2.3223,-2.2906,-2.2886,-2.275,-2.2519,-2.2109,-2.1953,-2.2048,0.0,0.0,0.0,0.0,0.0,0.0,0.0,0.0,0.0,0.0,0.0,0.0,0.0,0.0,0.0,0.0,0.0,0.0,0.0,0.0,0.0,0.0,0.0,-3.2731,-3.4238,-3.5356,-3.5562,-3.6969,-3.75,-3.6289,-3.7285,-3.8203,-3.8613,-3.9023,-3.9629,-4.0488,-4.0547,-4.0547,-4.0547,-4.0527,-4.0098,-3.9238,-3.9199,-3.8769,-3.791,-3.75,-3.707,-3.6621,-3.5781,-3.5371,-3.5293,-3.4453,-3.4062,-3.3965,-3.3125,-3.2519,-3.2109,-3.168,-3.1269,-3.0898,-3.0898,-3.0879,-3.0742,-2.9883,-2.9626,-2.9414,-2.8574,-2.8301,-2.8301,-2.8301,-2.8301,-2.8301,-2.8301,-2.8301,-2.8301,-2.8301,-2.7988,-2.7728,-2.7728,-2.7324,-2.6875,-2.6465,-2.6387,-2.625,-2.5771,-2.5391,-2.5125,-2.5106,-2.4727,-2.4434,-2.4414,-2.4062,0.0,-2.4355,-2.3647,-2.3296,-2.3769,-2.3809,-2.3809,-2.3789,-2.3789,-2.3769,-2.375,-2.2969,-2.25,-2.25,-2.25,-2.248,-2.248,-2.209,-2.168,-2.121,0.0,0.0,0.0,0.0,0.0,0.0,0.0,0.0,0.0,0.0,0.0,0.0,0.0,0.0,0.0,0.0,0.0,0.0,0.0,0.0,0.0,-3.2596,-3.3015,-3.3142,-3.4146,-3.5428,-3.7034,-3.8478,-3.9336,-3.9297,-3.9883,-4.0195,-4.0,-4.0391,-4.0742,-4.0976,-4.0996,-4.0996,-4.0996,-4.0391,-3.9961,-3.9707,-3.9062,-3.8476,-3.791,-3.75,-3.6914,-3.6172,-3.5644,-3.5039,-3.4414,-3.418,-3.3711,-3.3105,-3.2559,-3.209,-3.168,-3.1562,-3.1269,-3.0898,-3.0898,-3.0684,-3.0351,-3.0098,-2.9609,-2.9062,-2.8828,-2.8535,-2.8301,-2.8301,-2.8301,-2.8301,-2.8301,-2.8301,-2.8301,-2.8301,-2.7988,-2.7728,-2.7728,-2.7109,-2.6523,-2.6406,-2.6133,-2.583,-2.5713,-2.5596,-2.5449,-2.5165,-2.4961,-2.4785,-2.4473,-2.4316,0.0,-2.4394,-2.4219,-2.4102,-2.4238,-2.4238,-2.4121,-2.3809,-2.3789,-2.3516,-2.291,-2.2637,-2.2383,-2.207,-2.2051,-2.1914,-2.1561,-2.1777,-2.1836,0.0,0.0,0.0,0.0,0.0,0.0,0.0,0.0,0.0,0.0,0.0,0.0,0.0,0.0,0.0,0.0,0.0,0.0,0.0,0.0,0.0,0.0,-3.3863,-3.4265,-3.4671,-3.5323,-3.6445,-3.8242,-3.9473,-4.0332,-4.0762,-4.1035,-4.1074,-4.082,-4.1035,-4.1172,-4.1172,-4.1172,-4.1172,-4.1172,-4.0684,-4.0254,-3.9902,-3.9199,-3.8437,-3.7656,-3.7051,-3.6406,-3.5742,-3.5117,-3.457,-3.4062,-3.3691,-3.3262,-3.2754,-3.2148,-3.1758,0.0,0.0,0.0,0.0,0.0,-3.0586,-3.0176,-3.0,-2.9492,-2.8887,-2.8711,-2.8496,-2.8301,-2.8301,-2.8301,-2.8301,-2.8301,-2.8301,-2.8262,-2.8066,-2.7715,-2.7344,-2.7219,-2.6621,-2.6113,-2.6113,-2.5869,-2.5693,-2.5693,-2.5693,0.0,-2.5391,-2.5352,-2.5254,-2.5019,-2.4805,-2.4746,-2.4894,-2.4492,-2.4219,-2.4394,-2.4258,-2.3984,-2.3555,-2.3691,0.0,0.0,0.0,-2.2051,-2.1621,-2.1621,0.0,0.0,0.0,-2.1894,-2.1894,0.0,0.0,0.0,-2.2652,-2.2812,0.0,0.0,0.0,0.0,0.0,0.0,0.0,0.0,0.0,0.0,0.0,0.0,0.0,0.0,0.0,0.0,-3.5597,-3.5942,-3.6789,-3.7305,-3.8008,-3.9141,-4.0019,-4.0684,-4.1133,-4.1172,-4.1172,-4.1172,-4.1172,-4.1172,-4.1172,-4.1172,0.0,0.0,0.0,-4.0723,-3.9902,-3.9394,-3.8516,-3.7285,-3.6426,-3.5781,-3.5293,-3.4453,-3.4043,-3.3965,-3.3144,-3.2773,-3.2656,-3.1855,-3.1484,-3.1406,-3.1035,-3.0898,-3.0879,-3.084,-3.0527,-3.0059,-2.9648,0.0,0.0,-2.8359,-2.8262,-2.8281,-2.8242,-2.8262,-2.8281,-2.8242,-2.8223,-2.8125,-2.7695,-2.7266,-2.6855,-2.6484,-2.6055,-2.5693,-2.5693,-2.5693,-2.5693,-2.5693,-2.5693,-2.5693,-2.5693,-2.5693,-2.5693,-2.5693,-2.5391,-2.5273,-2.5557,-2.4648,-2.4062,-2.4375,0.0,0.0,-2.3198,-2.3574,-2.3574,-2.3062,-2.2324,-2.1719,-2.1288,-2.1268,-2.1484,-2.1875,-2.1894,-2.1914,-2.1953,-2.1953,-2.2168,-2.2598,-2.2867,-2.2847,0.0,0.0,0.0,0.0,0.0,0.0,0.0,0.0,0.0,0.0,0.0,0.0,0.0,0.0,0.0,-3.5272,-3.6792,-3.8032,-3.8236,-3.8887,-3.9492,-3.9726,-4.0215,-4.0684,-4.1133,-4.1172,-4.1172,-4.1172,-4.1172,-4.1172,-4.1172,-4.1172,-4.1172,-4.1172,-4.084,-4.041,-3.9902,-3.9101,-3.8223,-3.7285,0.0,0.0,-3.4824,-3.4297,-3.3887,-3.3516,-3.3008,-3.2598,-3.2246,-3.1738,-3.1328,-3.0996,-3.0918,-3.0898,-3.084,-3.0469,-3.0059,-2.9629,-2.9199,-2.8769,-2.834,-2.793,-2.8027,-2.8223,-2.7891,-2.8027,0.0,-2.7943,-2.7845,-2.7695,-2.7246,-2.6836,-2.6484,-2.6406,-2.6055,-2.5693,-2.5693,-2.5693,-2.5693,-2.5693,-2.5693,-2.5693,-2.5693,-2.5693,-2.5693,-2.5693,-2.5615,-2.5508,-2.5234,-2.498,-2.4707,-2.4453,-2.4336,-2.4121,-2.3691,-2.375,-2.3457,-2.2676,-2.2168,-2.1855,-2.1758,-2.1758,-2.1797,-2.1894,-2.1894,-2.2051,-2.2383,-2.2383,-2.2617,-2.2964,-2.2711,-2.273,0.0,0.0,0.0,0.0,0.0,0.0,0.0,0.0,0.0,0.0,0.0,-3.1994,-3.2717,0.0,-3.6986,-3.8006,-3.978,-4.0908,-4.0391,-4.1076,-4.1364,-4.0347,-4.0586,-4.0937,-4.1152,-4.1172,-4.1172,-4.1172,-4.1172,-4.1172,-4.1172,-4.1172,-4.1172,-4.1172,-4.0742,-4.0332,-3.9902,-3.8789,-3.793,-3.7285,-3.6211,-3.5351,-3.4687,-3.4258,-3.3711,-3.3086,-3.2656,-3.2246,-3.1816,-3.1387,-3.1074,-3.0898,-3.0898,-3.0742,-3.0488,-3.0039,-2.9609,-2.9219,-2.9004,-2.8652,-2.8262,-2.8047,-2.7988,-2.7988,-2.7988,-2.7832,-2.7656,-2.7708,-2.75,-2.7246,-2.6816,-2.6543,-2.6328,-2.6113,-2.5849,-2.5693,-2.5693,-2.5693,-2.5693,-2.5693,-2.5693,-2.5693,-2.5693,-2.5693,-2.5693,-2.5693,-2.5693,-2.5615,-2.543,-2.5019,-2.4668,-2.4434,-2.3978,-2.3647,-2.3477,-2.3457,-2.3203,-2.2559,-2.2305,-2.2109,-2.1894,-2.1894,-2.1973,-2.2187,-2.2207,-2.2402,-2.2789,-2.2789,-2.2886,-2.3081,-2.2886,-2.2906,0.0,0.0,0.0,0.0,0.0,0.0,0.0,-2.8715,-2.924,-2.9735,-3.1293,-3.2848,-3.3651,-3.6405,-3.9031,-4.069,-4.2792,-4.3938,-4.3007,-4.3528,-4.335,-4.1327,-4.113,-4.1172,-4.1172,-4.1172,-4.1172,-4.1172,-4.1172,-4.1172,-4.1172,-4.1172,-4.1133,-4.1055,-4.0703,-4.0273,-3.9766,-3.8535,-3.7715,-3.7285,-3.5918,-3.5059,-3.4687,-3.418,-3.3535,-3.2773,-3.2266,-3.1797,-3.1367,-3.1035,-3.0898,-3.0879,-3.0801,-3.0469,-3.0039,-2.9687,-2.9297,-2.8906,-2.8828,-2.8574,-2.8281,-2.8203,-2.793,-2.7767,-2.7969,-2.7559,-2.707,-2.7344,-2.7168,-2.6797,-2.6367,-2.6269,-2.6172,-2.5771,-2.5693,-2.5693,-2.5693,-2.5693,-2.5693,-2.5693,-2.5693,-2.5693,-2.5693,-2.5693,-2.5693,-2.5693,-2.5693,-2.5654,-2.5577,-2.498,-2.4473,-2.4316,-2.3672,-2.3198,-2.3101,-2.3101,-2.2945,-2.2656,-2.2637,-2.248,-2.2148,-2.2129,-2.2285,-2.2617,-2.2637,-2.2769,-2.3101,-2.3101,-2.3101,-2.3101,-2.3101,-2.3101,-3.3997,-3.2381,-3.069,-2.9939,-2.9459,-2.9397,0.0,-3.102,-3.1608,-3.184,-3.2629,-3.346,-3.397,-3.7549,-4.0504,-4.0882,-4.4007,-4.6281,-4.5953,-4.6028,-4.5369,-4.3425,-4.2012,-4.1172,-4.1172,-4.1172,-4.1172,-4.1172,-4.1172,-4.1172,-4.1172,-4.1172,-4.0996,-4.0605,-4.0547,-4.0117,-3.9297,-3.8379,-3.7715,-3.7266,-3.5586,-3.4746,-3.4668,-3.3867,-3.3242,-3.2754,-3.1934,-3.1348,-3.0957,-3.0918,-3.0898,-3.0859,-3.043,-3.0019,-2.9629,-2.9646,-2.9297,-2.8867,-2.8496,-2.834,-2.8223,-2.7851,-2.7767,-2.765,-2.7266,-2.709,-2.6953,-2.6621,-2.6504,-2.6348,-2.5918,-2.5752,-2.5752,-2.5693,-2.5693,-2.5693,-2.5693,-2.5693,-2.5693,-2.5693,-2.5693,-2.5693,-2.5693,-2.5693,-2.5693,-2.5693,-2.5693,-2.5586,-2.5195,-2.5106,-2.4707,-2.3945,-2.3769,-2.3555,-2.314,-2.3101,-2.3081,-2.3023,-2.3023,-2.3003,-2.2964,-2.2964,-2.2984,-2.3023,-2.3023,-2.3042,-2.3101,-2.3101,-2.3101,-2.3101,-2.3101,-2.3101,-3.4625,-3.3256,-3.1808,-3.0586,-3.0226,-3.02,-3.0416,-3.107,-3.1978,-3.3074,-3.416,-3.5389,-3.6892,-3.9973,-4.2745,-4.421,-4.727,-4.9082,-4.8099,-4.7956,-4.7131,-4.483,-4.4056,-4.2903,-4.0992,-4.2035,-4.2427,-4.1327,-4.1172,-4.1055,-4.0801,-4.0801,-4.0605,-4.0176,-3.9902,-3.9453,-3.8848,-3.7988,-3.7226,-3.6543,-3.5566,-3.4824,-3.4316,-3.3711,-3.291,-3.2012,-3.1406,-3.1055,-3.0898,-3.0898,-3.0898,-3.084,-3.0371,-2.9941,-2.9607,-2.9277,-2.8926,-2.8535,-2.8359,-2.8301,-2.8223,-2.7865,-2.75,-2.7246,-2.707,-2.666,-2.6289,-2.6367,-2.6211,-2.5977,-2.5732,-2.5693,-2.5693,-2.5693,-2.5693,-2.5693,-2.5693,-2.5693,-2.5693,-2.5693,-2.5693,-2.5693,-2.5693,-2.5693,-2.5693,-2.5693,-2.5693,-2.5615,-2.5488,-2.5234,-2.4793,-2.3887,-2.3574,-2.3296,-2.312,-2.3101,-2.3101,-2.3101,-2.3101,-2.3101,-2.3101,-2.3101,-2.3101,-2.3101,-2.3101,-2.3101,-2.3101,-2.3101,-2.3101,-2.3101,-2.3101,-2.3101,-3.4564,-3.3646,-3.2652,-3.1401,-3.1313,-3.1477,-3.1031,-3.168,-3.2793,-3.416,-3.5273,-3.6677,-3.8937,-4.1457,-4.4027,-4.6504,-4.9288,-5.073,-4.9814,-4.9535,-4.8487,-4.5873,-4.6012,-4.4961,-4.1567,-4.2704,-4.2912,-4.0974,-4.082,-4.0684,-4.0371,-4.0351,-4.0098,-3.9551,-3.9199,-3.8769,-3.8223,-3.7383,-3.6641,-3.6016,-3.5351,-3.4629,-3.3867,-3.3203,-3.2402,-3.1504,-3.1074,-3.0898,-3.0898,-3.0898,-3.082,-3.0664,-3.0332,-2.9863,-2.9355,-2.9043,-2.8652,-2.8301,-2.8301,-2.8301,-2.8223,-2.7865,-2.7363,-2.6992,-2.6875,-2.6328,-2.5752,-2.6113,-2.5977,-2.5693,-2.5693,-2.5693,-2.5693,-2.5693,-2.5693,-2.5693,-2.5693,-2.5693,-2.5693,-2.5693,-2.5693,-2.5693,-2.5693,-2.5693,-2.5693,-2.5693,-2.5693,-2.5693,-2.5693,-2.5234,-2.4609,-2.3867,-2.3398,-2.3101,-2.3101,-2.3101,-2.3101,-2.3101,-2.3101,-2.3101,-2.3101,-2.3101,-2.3101,-2.3101,-2.3101,-2.3101,-2.3101,-2.3101,-2.3101,-2.3101,-2.3101,-2.3101,-3.3462,-3.2661,-3.2112,-3.1977,-3.2491,-3.2991,-3.2769,-3.3691,-3.4746,-3.5254,-3.5703,-3.6677,-3.8802,-4.1174,-4.3661,-4.6366,-4.8878,-5.0645,-5.1155,-5.0754,-4.9298,-4.6341,-4.7571,-4.7223,-4.3376,-4.2792,-4.1912,-4.0073,-3.9941,-3.9922,-3.9922,-3.9922,-3.9512,-3.8652,-3.8613,-3.8184,-3.7344,-3.6484,-3.6035,-3.5996,-3.4726,-3.3887,-3.3398,-3.2148,-3.1562,-3.1504,-3.1074,-3.0898,-3.0898,-3.0898,-3.0625,-3.0215,-3.0195,-2.9687,-2.8945,-2.8926,-2.8652,-2.8301,-2.8301,-2.8301,-2.8223,-2.7865,-2.7363,-2.6934,-2.6523,-2.6094,-2.5693,-2.5713,-2.5693,-2.5693,-2.5693,-2.5693,-2.5693,-2.5693,-2.5693,-2.5693,-2.5693,-2.5693,-2.5693,-2.5693,-2.5693,-2.5693,-2.5693,-2.5693,-2.5693,-2.5693,-2.5693,-2.5693,-2.5693,-2.4933,-2.4277,-2.3828,-2.3398,-2.3101,-2.3101,-2.3101,-2.3101,-2.3101,-2.3101,-2.3101,-2.3101,-2.3101,-2.3101,-2.3101,-2.3101,-2.3101,-2.3101,-2.3101,-2.3101,-2.3101,-2.3101,-2.3101,-3.39,-3.4377,-3.5236,-3.5468,-3.6092,-3.6765,-3.7234,-3.7359,-3.7344,-3.7509,-3.6469,-3.613,-3.7752,-3.9601,-4.1805,-4.465,-4.7484,-4.964,-5.0569,-5.0544,-4.9581,-4.7513,-4.8194,-4.74,-4.3758,-4.4157,-4.4428,-4.3593,-4.2095,-4.122,-4.1293,-4.0082,-3.9043,-3.8164,-3.8144,-3.7734,-3.6894,-3.6601,-3.6016,-3.5137,-3.3848,-3.2851,-3.2148,-3.1719,-3.1367,-3.1094,-3.0957,-3.0898,-3.0898,-3.0898,-3.0801,-3.0605,-3.0019,-2.9609,-2.9277,-2.8711,-2.8418,-2.8301,-2.8301,-2.8301,-2.8184,-2.7461,-2.7129,-2.6875,-2.6172,-2.581,-2.5693,-2.5693,-2.5937,-2.6094,-2.5771,-2.5957,-2.6094,-2.5752,-2.5693,-2.5693,-2.5693,-2.5693,-2.5693,-2.5693,-2.5693,-2.5693,-2.5693,-2.5693,-2.5693,-2.5693,-2.5693,-2.5693,-2.5693,-2.4961,-2.4355,-2.4219,-2.353,-2.3101,-2.3101,-2.3101,-2.3101,-2.3101,-2.3101,-2.3101,-2.3101,-2.3101,-2.3101,-2.3101,-2.3101,-2.3101,-2.3101,-2.3101,-2.3101,-2.3101,-2.3101,-2.3101,-3.5046,-3.611,-3.7311,-3.8,-3.8777,-3.9451,-3.9623,-3.9314,-3.883,-3.8423,-3.6937,-3.5933,-3.6857,-3.784,-3.9294,-4.168,-4.4354,-4.6638,-4.8194,-4.8568,-4.841,-4.7707,-4.7171,-4.6085,-4.4001,-4.3963,-4.391,-4.3456,-4.2953,-4.2273,-4.1557,-4.1131,-4.0249,-3.8758,-3.8718,-3.7967,-3.6445,-3.6133,-3.5312,-3.4004,-3.3027,-3.2207,-3.1504,-3.1367,-3.1152,-3.0898,-3.0898,-3.0898,-3.0879,-3.0703,-3.0566,-3.0351,-2.9629,-2.9238,-2.9043,-2.8496,-2.8301,-2.8301,-2.8301,-2.8301,-2.8184,-2.748,-2.7148,-2.6875,-2.6172,-2.5977,-2.5977,-2.5977,-2.6269,-2.6543,-2.622,-2.6289,-2.6309,-2.6035,-2.581,-2.5693,-2.5693,-2.581,-2.5869,-2.5713,-2.5859,-2.5918,-2.5713,-2.5693,-2.5693,-2.5693,-2.5693,-2.5577,-2.5265,-2.4902,-2.4473,-2.4004,-2.3569,-2.3257,-2.3101,-2.3101,-2.3101,-2.3101,-2.3101,-2.3101,-2.3101,-2.3101,-2.3101,-2.3101,-2.3101,-2.3101,-2.3101,-2.3101,-2.3101,-2.3101,-2.3101,-2.3101,-3.6814,-3.7688,-3.8439,-3.9657,-4.065,-4.1058,-4.0075,-3.9674,-3.9176,-3.8007,-3.6853,-3.5953,-3.5815,-3.5882,-3.6376,-3.7735,-3.9742,-4.1992,-4.4433,-4.5159,-4.581,-4.687,-4.4908,-4.3742,-4.4468,-4.2568,-4.0935,-4.024,-4.2557,-4.3161,-4.1113,-4.2955,-4.2916,-4.0277,-4.0119,-3.8815,-3.6152,-3.5183,-3.4043,-3.2793,-3.2344,-3.1914,-3.1465,-3.1074,-3.0898,-3.0898,-3.0898,-3.0879,-3.082,-3.0371,-2.9941,-2.9531,-2.9082,-2.8672,-2.832,-2.8301,-2.8301,-2.8301,-2.8301,-2.8301,-2.8223,-2.7773,-2.7344,-2.6934,-2.6484,-2.6367,-2.6387,-2.6387,-2.6699,-2.7051,-2.7031,-2.6738,-2.6445,-2.6426,-2.6094,-2.5752,-2.5752,-2.6133,-2.6289,-2.583,-2.6113,-2.625,-2.5791,-2.5693,-2.5693,-2.5693,-2.5693,-2.5382,-2.459,-2.4824,-2.459,-2.3296,-2.3555,-2.3613,-2.314,-2.3101,-2.3101,-2.3101,-2.3101,-2.3101,-2.3101,-2.3101,-2.3101,-2.3101,-2.3101,-2.3101,-2.3101,-2.3101,-2.3101,-2.3101,-2.3101,-2.3101,-3.7653,-3.912,-4.0646,-4.142,-4.2375,-4.3004,-4.2307,-4.1113,-3.964,-3.779,-3.5332,-3.3179,-3.2015,-3.2886,-3.428,-3.5624,-3.8585,-4.1302,-4.2909,-4.3923,-4.4743,-4.5566,-4.4328,-4.417,-4.6204,-4.5366,-4.4552,-4.4021,-4.3394,-4.3668,-4.5135,-4.4505,-4.3464,-4.1993,-4.0711,-3.9406,-3.7975,-3.546,-3.375,-3.2793,-3.2051,-3.1465,-3.1055,-3.0937,-3.0898,-3.0898,-3.0898,-3.0703,-3.0371,-3.0234,-2.9941,-2.9531,-2.9082,-2.8848,-2.8711,-2.8398,-2.8301,-2.8301,-2.8301,-2.8301,-2.8164,-2.7422,-2.7109,-2.6875,-2.6133,-2.6133,-2.6387,-2.6387,-2.6934,-2.7422,-2.709,-2.7168,-2.7266,-2.6934,-2.6777,-2.6699,-2.6699,-2.6777,-2.6816,-2.6719,-2.6523,-2.6348,-2.625,-2.5957,-2.5693,-2.5693,-2.5693,-2.5615,-2.5382,-2.5195,-2.4871,-2.416,-2.3906,-2.3613,-2.314,-2.3101,-2.3101,-2.3101,-2.3101,-2.3101,-2.3101,-2.3101,-2.3101,-2.3101,-2.3101,-2.3101,-2.3101,-2.3101,-2.3101,-2.3101,-2.3101,-2.3101,-4.0072,-4.0998,-4.1882,-4.2685,-4.3162,-4.3162,-4.2133,-4.0775,-3.9072,-3.6642,-3.4362,-3.232,-3.065,-3.1038,-3.1911,-3.2683,-3.5315,-3.8003,-4.0082,-4.2206,-4.3993,-4.5148,-4.4813,-4.5038,-4.6451,-4.5533,-4.5159,-4.5942,-4.5812,-4.5912,-4.6532,-4.6291,-4.5451,-4.3913,-4.1972,-3.9656,-3.6917,-3.4834,-3.3359,-3.2519,-3.1836,-3.1289,-3.0898,-3.0898,-3.0898,-3.0879,0.0,-3.043,-3.0176,-2.9785,-2.9492,-2.9238,-2.8809,-2.8652,-2.8613,-2.8379,-2.8301,-2.8301,-2.8301,-2.8301,-2.8203,-2.7734,-2.7324,-2.6973,-2.668,-2.6621,-2.6699,-2.6894,-2.7422,-2.7891,-2.7637,-2.7617,-2.7598,-2.7363,-2.7148,-2.7012,-2.7012,-2.7168,-2.7305,-2.7305,-2.6953,-2.666,-2.666,-2.6309,-2.6016,-2.6016,-2.581,-2.5693,-2.5693,-2.5527,-2.5039,-2.4238,-2.4102,-2.3809,-2.314,-2.3101,-2.3101,-2.3101,-2.3101,-2.3101,-2.3101,-2.3101,-2.3101,-2.3101,-2.3101,-2.3101,-2.3101,-2.3101,-2.3101,-2.3101,-2.3101,-2.3101,-4.2933,-4.2993,-4.2659,-4.3495,-4.3212,-4.2333,-4.0676,-3.9396,-3.7739,-3.4951,-3.3571,-3.2343,-3.0633,-3.0098,-3.0042,-3.0478,-3.2099,-3.4434,-3.7549,-4.0683,-4.3372,-4.5269,-4.5651,-4.5917,-4.6442,-4.4877,-4.4771,-4.6974,-4.8673,-4.858,-4.6347,-4.7883,-4.7562,-4.4934,-4.2875,-3.952,-3.4857,-3.4219,-3.351,-3.2714,-3.2217,-3.174,-3.117,-3.117,-3.1112,-3.0859,-3.0391,-3.027,-3.0322,-2.9293,-2.8996,-2.9006,-2.8491,-2.8301,-2.8301,-2.8301,-2.8301,-2.8301,-2.8301,-2.8301,-2.8281,-2.8223,-2.7715,-2.7168,-2.748,-2.7363,-2.7187,-2.7611,-2.7969,-2.8301,-2.8301,-2.8027,-2.7806,-2.7806,-2.7461,-2.7187,-2.7187,-2.748,-2.7806,-2.7806,-2.7402,-2.7109,-2.7109,-2.6699,-2.6387,-2.6387,-2.6016,-2.5693,-2.5693,-2.5693,-2.5273,-2.4082,-2.4277,-2.418,-2.3335,-2.3257,-2.3237,-2.3179,-2.3237,-2.3218,-2.3101,-2.314,-2.3159,-2.3101,-2.3101,-2.3101,-2.3101,-2.3101,-2.3101,-2.3101,-2.3101,-2.3101,-4.4012,-4.3967,-4.3724,-4.327,-4.2359,-4.1204,-3.9521,-3.7989,-3.6053,-3.3219,-3.2139,-3.1345,-3.0144,-2.9959,-3.0812,-3.3392,-3.4129,-3.5808,-3.9806,-4.1187,-4.2814,-4.5604,-4.5041,-4.5634,-4.8704,-4.7299,-4.6992,-4.8958,-4.9461,-4.858,-4.6347,-4.7883,-4.6685,-4.2134,-4.1103,-3.8969,-3.5479,-3.6299,-3.6253,-3.5233,-3.4809,-3.3987,-3.2701,-3.2701,-3.2035,-3.0859,-3.0391,0.0,-3.123,-2.9595,-2.9373,-2.991,-2.8781,-2.8301,-2.8301,-2.8301,-2.8301,-2.8301,-2.8301,-2.8301,-2.8242,-2.7891,-2.7676,-2.75,-2.7207,-2.7324,-2.763,-2.7689,-2.7969,-2.8301,-2.8301,-2.8242,-2.8184,-2.8184,-2.8125,-2.8066,-2.8066,-2.8125,-2.8184,-2.8184,-2.7832,-2.7559,-2.7559,-2.6894,-2.6387,-2.6387,-2.6016,-2.5693,-2.5693,-2.5693,-2.5508,-2.4902,-2.4949,-2.4746,-2.4238,-2.4153,-2.4043,-2.3691,-2.4004,-2.3822,-2.312,-2.3496,-2.3516,-2.3101,-2.3101,-2.3101,-2.3101,-2.3101,-2.3101,-2.3101,-2.3101,-2.3101,-4.6651,-4.6271,-4.5546,-4.4811,-4.3284,-4.1311,-3.8729,-3.6569,-3.4299,-3.1512,-3.0758,-3.0407,-2.988,-2.9915,-3.0566,-3.2277,-3.2876,-3.4263,-3.7666,-3.9749,-4.2001,-4.4911,-4.6031,-4.7351,-4.9436,-4.8491,-4.8189,-4.9099,-4.8887,-4.8394,-4.7602,-4.6728,-4.416,-3.9648,-3.96,-3.8459,-3.6081,-3.6734,-3.6799,-3.6329,-3.5647,-3.4902,-3.4236,-3.4236,-3.3866,-3.317,-3.2377,-3.2317,-3.2651,-3.1233,-3.0912,-3.1214,-2.9859,-2.9355,-2.925,-2.8548,-2.8301,-2.8301,-2.8301,-2.8301,-2.8262,-2.8066,-2.7904,-2.7728,-2.7676,-2.7676,-2.7767,-2.793,-2.8144,-2.8301,-2.8301,-2.8301,-2.8301,-2.8301,-2.8301,-2.8301,-2.8301,-2.8301,-2.8301,-2.8301,-2.8125,-2.7988,-2.7988,-2.748,-2.6973,-2.6758,-2.6348,-2.5996,-2.5713,-2.5693,-2.5566,-2.5117,-2.5106,-2.4883,-2.4453,-2.4414,-2.4336,-2.4121,-2.4297,-2.4238,-2.3764,-2.4004,-2.3926,-2.3496,-2.3477,-2.3315,-2.3101,-2.3101,-2.3101,-2.3101,-2.3101,-2.3101,-4.874,-4.8276,-4.7313,-4.6349,-4.4161,-4.1395,-3.8209,-3.545,-3.2817,-3.0306,-2.9804,-2.9804,-2.9804,-2.9894,-3.0248,-3.1104,-3.162,-3.2972,-3.5995,-3.8953,-4.1763,-4.4395,-4.7033,-4.8761,-4.9188,-4.8837,-4.8586,-4.8586,-4.7958,-4.7633,-4.7744,-4.4128,-4.0837,-3.8189,-3.8689,-3.8426,-3.7213,-3.7511,-3.7711,-3.7655,-3.67,-3.6122,-3.594,-3.5827,-3.5617,-3.5244,-3.4347,-3.4125,-3.432,-3.3016,-3.2639,-3.274,-3.1021,-3.0307,-3.0172,-2.8794,-2.8301,-2.8301,-2.8301,-2.8301,-2.8301,-2.8301,-2.8066,-2.7904,-2.8184,-2.8066,-2.7871,-2.8203,-2.8301,-2.8301,-2.8301,-2.8301,-2.8301,-2.8301,-2.8301,-2.8301,-2.8301,-2.8301,-2.8301,-2.8301,-2.8301,-2.8301,-2.8301,-2.7949,-2.7539,-2.7207,-2.6797,-2.6367,-2.5937,-2.583,-2.5703,-2.5254,-2.5215,-2.5078,-2.4727,-2.4707,-2.4668,-2.457,-2.4648,-2.4609,-2.4414,-2.4512,-2.4316,-2.3809,-2.3789,-2.3574,-2.3101,-2.3101,-2.314,-2.3237,-2.314,-2.314,-4.8412,-4.8603,-4.8545,-4.6601,-4.3562,-4.041,-3.8042,-3.4805,-3.1888,-3.0156,-2.9804,-2.9804,-2.9804,-2.9788,-3.0483,-3.2571,-3.2916,-3.4442,-3.8711,-4.0885,-4.2893,-4.511,-4.6968,-4.8008,-4.8058,-4.8008,-4.7983,-4.7983,-4.7029,-4.582,-4.4419,-3.9153,-3.7009,-3.8814,-3.8886,-3.9076,-3.9494,-4.0404,-4.0873,-4.0873,-3.978,-3.8827,-3.798,-3.7506,-3.6541,-3.5266,-3.4782,-3.523,0.0,-3.4051,-3.3843,-3.4631,-3.1489,-3.0307,-3.0172,-2.8794,-2.8301,-2.8301,-2.8301,-2.8301,-2.8301,-2.8301,-2.8262,-2.8242,-2.8281,-2.8262,-2.8242,-2.8281,-2.8301,-2.8301,-2.8301,-2.8301,-2.8301,-2.8301,-2.8301,-2.8301,-2.8301,-2.8301,-2.8301,-2.8301,-2.8301,-2.8301,-2.8301,-2.7949,-2.7708,-2.7669,-2.7226,-2.6797,-2.6387,-2.6328,-2.6152,-2.5674,-2.5635,-2.5615,-2.5577,-2.5577,-2.5449,-2.5086,-2.5391,-2.5206,-2.4453,-2.4805,-2.4675,-2.3809,-2.3789,-2.3574,-2.3101,-2.3101,-2.334,-2.3711,-2.3276,-2.3315,-4.8604,-4.9616,-5.0052,-4.8399,-4.4781,-4.1014,-3.8632,-3.4774,-3.1361,-3.0055,-2.9804,-2.9804,-2.9804,-2.9804,-3.0181,-3.1411,-3.1587,-3.2792,-3.6207,-3.7563,-3.9622,-4.3514,-4.4844,-4.6075,-4.7757,-4.7631,-4.7154,-4.6502,-4.5096,-4.3748,-4.2448,-4.025,-3.8997,-3.8924,-3.957,-3.9907,-3.9831,-4.0794,-4.1125,-4.0774,-4.0074,-3.9513,-3.9111,-3.889,-3.853,-3.7902,-3.7425,-3.7518,0.0,-3.6303,-3.5891,-3.6137,-3.3711,-3.2252,-3.1316,-3.0016,-2.9006,-2.8301,-2.8301,-2.8301,-2.8301,-2.8301,-2.8301,-2.8301,-2.8301,-2.8301,-2.8301,-2.8301,-2.8301,-2.8301,-2.8301,-2.8301,-2.8301,-2.8301,-2.8301,-2.8301,-2.8301,-2.8301,-2.8301,-2.8301,-2.8301,-2.8301,-2.8301,-2.8164,-2.7949,-2.7767,-2.7519,-2.7246,-2.6816,-2.6543,-2.6328,-2.6152,-2.5898,-2.5693,-2.5693,-2.5693,-2.5615,-2.5488,-2.5596,-2.5518,-2.5187,-2.5371,-2.5176,-2.457,-2.4597,-2.4336,-2.3861,-2.3861,-2.4004,-2.416,-2.3984,-2.4004,-4.7608,-4.9194,-5.0122,-4.9239,-4.527,-4.1016,-3.8991,-3.4684,-3.0909,-2.998,-2.9804,-2.9804,-2.9804,-2.9804,-2.9905,0.0,-3.0633,-3.1637,-3.3922,-3.5152,-3.7211,-4.1053,-4.2283,-4.379,-4.62,-4.6577,-4.6175,-4.507,-4.386,-4.2697,-4.1692,-4.1644,-4.0867,-3.9254,-3.9966,-4.0344,-4.0234,-4.0789,-4.0924,-4.0752,-4.0049,-3.9772,-3.9923,-3.9772,-3.9697,-3.9672,-3.912,-3.8919,0.0,-3.7638,-3.7186,-3.7014,-3.5138,-3.3552,-3.2129,-3.0773,-2.946,-2.8301,-2.8301,-2.8301,-2.8301,-2.8301,-2.8301,-2.8301,-2.8301,-2.8301,-2.8301,-2.8301,-2.8301,-2.8301,-2.8301,-2.8301,-2.8301,-2.8301,-2.8301,-2.8301,-2.8301,-2.8301,-2.8301,-2.8301,-2.8301,-2.8301,-2.8301,-2.8301,-2.8184,-2.7891,-2.7851,-2.7656,-2.709,-2.6875,-2.6621,-2.623,-2.6035,-2.583,-2.5693,-2.5693,-2.5693,-2.5693,-2.5693,-2.5693,-2.5693,-2.5693,-2.5527,-2.5125,-2.5106,-2.4863,-2.4414,-2.4414,-2.4473,-2.4609,-2.4473,-2.4414,-4.4975,-4.68,-4.8327,-4.8297,-4.4284,-3.9983,-3.8796,-3.4392,-3.0457,-2.9905,-2.9804,-2.9804,-2.9804,-2.9804,-2.9804,-2.9804,-3.0683,-3.1788,-3.2943,-3.5002,-3.681,-3.7914,-3.9521,-4.1204,-4.2861,-4.4543,-4.502,-4.389,-4.3815,-4.3338,-4.2233,-4.2158,-4.1472,-3.9831,-3.9831,-4.0265,-4.13,-4.0749,-4.0802,-4.125,-4.0224,-3.9973,-4.0501,-3.9948,-3.9697,-3.9672,-3.912,-3.8919,0.0,-3.7638,-3.7186,-3.7014,-3.5138,-3.3552,-3.2129,-3.0773,-2.946,-2.8301,-2.8301,-2.8301,-2.8301,-2.8301,-2.8301,-2.8301,-2.8301,-2.8301,-2.8301,-2.8301,-2.8301,-2.8301,-2.8301,-2.8301,-2.8301,-2.8301,-2.8301,-2.8301,-2.8301,-2.8301,-2.8301,-2.8301,-2.8301,-2.8301,-2.8301,-2.8301,-2.8301,-2.8281,-2.8281,-2.7988,-2.7129,-2.7383,-2.7168,-2.583,-2.6133,-2.6211,-2.5732,-2.5693,-2.5693,-2.5693,-2.5693,-2.5693,-2.5693,-2.5693,-2.5527,-2.5125,-2.5106,-2.4863,-2.4414,-2.4414,-2.4648,-2.5106,-2.4609,-2.4414,-4.2252,-4.3718,-4.4601,-4.3549,-4.0449,-3.738,-3.5831,-3.2672,-3.0005,-2.9829,-2.9804,-2.9804,-2.9804,-2.9804,-3.0156,-3.126,-3.1411,-3.1913,-3.342,-3.4901,-3.6508,-3.8366,-4.1404,-4.3689,-4.4618,-4.4819,-4.4593,-4.3865,-4.3463,-4.2911,-4.2263,-4.1806,-4.1364,-4.0849,-4.0849,-4.0819,-4.0724,-4.0601,-4.0425,-4.0199,-3.9848,-3.9798,-3.9948,-3.9772,-3.9496,-3.912,-3.8994,-3.8642,-3.8216,-3.7487,-3.6676,-3.5744,-3.4772,-3.2955,-3.0876,-3.0463,-2.946,-2.8301,-2.8301,-2.8301,-2.8301,-2.8301,-2.8301,-2.8301,-2.8301,-2.8301,-2.8301,-2.8301,-2.8301,-2.8301,-2.8301,-2.8301,-2.8301,-2.8301,-2.8301,-2.8301,-2.8301,-2.8516,-2.8711,-2.8711,-2.8711,-2.8711,-2.8711,-2.8476,-2.8301,-2.8301,-2.8301,-2.8203,-2.793,-2.7754,-2.7552,-2.709,-2.6914,-2.6523,-2.5752,-2.5693,-2.5693,-2.5693,-2.5693,-2.5693,-2.5693,-2.5693,-2.5615,-2.5527,-2.5527,-2.5469,-2.5265,-2.6128,-2.666,-2.6757,-2.5754,-2.5156,-3.9755,-4.1235,-4.193,-4.0858,-3.8382,-3.5836,-3.4432,-3.1876,-2.9804,-2.9804,-2.9804,-2.9804,-2.9804,-2.9804,-3.0131,-3.1135,-3.1361,-3.1838,-3.3093,-3.453,-3.6335,-3.8617,-4.153,-4.3514,-4.389,-4.4166,-4.3991,-4.3237,-4.2861,-4.2333,-4.158,-4.1204,-4.0874,-4.0727,-4.0874,-4.0752,-4.0199,-4.0199,-4.0023,-3.9697,-3.9697,-3.9697,-3.9697,-3.9697,-3.9396,-3.8919,-3.8642,-3.8216,0.0,-3.7111,-3.6111,-3.4863,-3.4504,-3.2705,-3.0307,-3.0307,-2.946,-2.8301,-2.8301,-2.8301,-2.8301,-2.8301,-2.8301,-2.8301,-2.8301,-2.8301,-2.8301,-2.8301,-2.8301,-2.8301,-2.8301,-2.8301,-2.8301,-2.8301,-2.8301,-2.834,-2.8496,-2.8613,-2.873,-2.8887,-2.8789,-2.8672,-2.8672,-2.8457,-2.8301,-2.8301,-2.8301,-2.8242,-2.8066,-2.7969,-2.7773,-2.7461,-2.7324,-2.6973,-2.622,-2.6074,-2.6055,-2.6161,-2.6338,-2.6508,-2.662,-2.6528,-2.662,-2.7078,-2.6668,-2.6668,-2.7125,-2.7908,-2.8049,-2.7579,-2.6812,-2.6147,0.0,-3.8937,-3.9787,-3.9441,-3.7307,-3.5019,-3.4005,-3.172,0.0,-2.9804,-2.9804,-2.9804,-2.9854,-2.9829,-2.9829,-2.9955,-3.0758,-3.1612,-3.224,-3.4279,-3.6609,-3.8843,-4.0501,-4.1401,-4.1401,-4.2811,-4.3263,-4.2288,-4.2137,-4.1605,-4.0576,-4.0475,-4.0224,-3.9722,-4.0199,-4.0199,-3.9697,-3.9697,-3.9697,-3.9697,-3.9697,-3.9672,-3.9647,-3.9647,-3.932,0.0,-3.8191,-3.7589,0.0,-3.6463,-3.5427,-3.4141,-3.4141,-3.2504,-3.0172,-3.0172,-2.9355,-2.8301,-2.8301,-2.8301,-2.8301,-2.8301,-2.8301,-2.8301,-2.8301,-2.8301,-2.8301,-2.8301,-2.8301,-2.8301,-2.8301,-2.8301,-2.8301,-2.8301,-2.8301,-2.8398,-2.8789,-2.8594,-2.8457,-2.8848,-2.8613,-2.834,-2.834,-2.832,-2.8301,-2.8301,-2.8301,-2.8144,-2.7806,-2.8047,-2.7988,-2.7187,-2.7461,-2.7539,-2.7129,-2.666,-2.6613,-2.7125,-2.7467,-2.7878,-2.8389,-2.8036,-2.8369,-2.9508,-2.8395,-2.8373,-2.96,-2.9509,-2.891,-2.7925,-2.7852,-2.7455,-3.4864,0.0,-3.4245,-3.3465,-3.2772,-3.1989,0.0,-3.0289,-2.9804,-2.9804,-2.9804,-2.993,-3.0357,-3.008,-3.0206,-3.1436,-3.1512,-3.1888,-3.3294,-3.6157,-3.8919,-4.1182,-4.2108,-4.2585,-4.2585,-4.2615,-4.2489,-4.2238,-4.1379,-4.0802,-4.0526,-4.0124,-3.9823,-3.9697,-3.9823,-3.9823,-3.9697,-3.9697,-3.9697,-3.9697,-3.9697,-3.9471,-3.9069,-3.9069,-3.8517,-3.7563,-3.7437,0.0,-3.5065,-3.492,-3.3453,-3.1286,-3.1286,-3.0224,-2.8741,-2.8741,-2.8548,-2.8301,-2.8301,-2.8301,-2.8301,-2.8301,-2.8301,-2.8301,-2.8301,-2.8301,-2.8301,-2.8301,-2.8301,-2.8301,-2.8301,-2.8301,-2.8301,-2.8301,-2.8301,-2.832,-2.8418,-2.8613,-2.8809,-2.8906,-2.8848,-2.8769,-2.8769,-2.8496,-2.8301,-2.8301,-2.8301,-2.8262,-2.8164,-2.8223,-2.8223,-2.8008,-2.8086,-2.8105,-2.8008,-2.7012,-2.6993,-2.8445,-2.8321,-2.8823,-3.0289,-3.0249,-3.0348,-3.0611,-2.9922,-3.0211,-3.1478,-3.049,-3.0351,-3.102,-3.0454,-3.0127,-3.3463,-3.2982,-3.2379,-3.1426,-3.1204,-3.097,-3.0011,-2.9804,-2.9804,-2.9804,-2.9804,-2.988,-3.0181,-3.0206,-3.0457,-3.1336,-3.1863,-3.2918,-3.5102,-3.7412,-3.9597,-4.1555,-4.2258,-4.2665,-4.2665,-4.2389,-4.2011,-4.143,-4.0852,-4.04,-4.0149,-3.9848,-3.9697,-3.9697,-3.9697,-3.9697,-3.9697,-3.9697,-3.9697,-3.9697,-3.9446,-3.917,-3.8919,-3.8592,-3.8015,-3.7186,-3.7186,0.0,-3.4385,-3.4385,-3.2755,-3.0307,-3.0307,-2.946,-2.8301,-2.8301,-2.8708,-2.9197,-2.9197,-2.9618,-3.012,-3.012,-2.9702,-2.9197,-2.9197,-2.8794,-2.8301,-2.8301,-2.8301,-2.8301,-2.8301,-2.8301,-2.8301,-2.8301,-2.8301,-2.834,-2.8535,-2.8613,-2.8691,-2.8887,-2.8769,-2.8633,-2.8633,-2.8437,-2.8301,-2.8301,-2.8301,-2.8301,-2.8301,-2.8301,-2.8301,-2.8301,-2.8301,-2.8301,-2.8301,-2.748,-2.7742,-2.9501,-3.0149,-3.0956,-3.2105,-3.1968,-3.1876,-3.1876,-3.2136,-3.2618,-3.328,-3.2618,-3.2342,-3.2458,-3.2043,-3.1682,-3.2841,-3.2624,-3.2373,-3.1257,-3.1119,-3.097,-3.0011,-2.9895,-2.9972,-2.9818,-2.9804,-2.9854,-3.0005,-3.0357,-3.0708,-3.0959,-3.2441,-3.45,-3.7086,-3.8492,-3.9772,-4.1125,-4.1831,-4.2162,-4.2087,-4.2011,-4.153,-4.0576,-4.045,-4.0199,-3.9722,-3.9697,-3.9647,-3.9572,-3.9647,-3.9647,-3.9572,-3.9647,-3.9647,-3.9572,-3.9094,-3.8818,-3.8592,-3.8115,-3.7588,-3.7061,0.0,0.0,-3.4385,-3.4385,-3.2905,-3.0618,-3.0618,-2.9911,-2.89,-2.89,-2.9618,-3.0618,-3.0618,-3.1338,-3.228,-3.228,-3.1367,-3.0307,-3.0307,-2.9355,-2.8301,-2.8301,-2.8301,-2.8301,-2.8301,-2.8301,-2.8335,-2.8548,-2.8601,-2.87,-2.9055,-2.8858,-2.8647,-2.8804,-2.8535,-2.8301,-2.8301,-2.8301,-2.8301,-2.8301,-2.8301,-2.8301,-2.8301,-2.8301,-2.8301,-2.8301,-2.8301,-2.8301,-2.8301,-2.8371,-2.9021,-3.0493,-3.1942,-3.3102,-3.3911,-3.3622,-3.3428,-3.3428,-3.4375,-3.4806,-3.4806,-3.4806,-3.4325,-3.3308,-3.3404,-3.3078,-3.2841,-3.2678,-3.233,-3.0484,-3.062,-3.097,-3.0011,-3.0419,-3.0771,-2.9972,-2.9804,-3.008,-3.0984,-3.0859,-3.106,-3.2466,-3.45,-3.6533,-3.8366,-3.9973,-4.1,-4.125,-4.1831,-4.1982,-4.1505,-4.1053,-4.0701,-4.0526,-4.0074,-3.9798,-3.9697,-3.9697,-3.9471,-3.907,-3.9446,-3.9471,-3.9045,-3.9471,-3.9471,-3.9045,-3.8969,-3.8366,-3.7437,-3.7362,-3.701,-3.6531,0.0,-3.5693,-3.4385,-3.4385,-3.3453,-3.1977,-3.1977,-3.1876,-3.1673,-3.1673,-3.1825,-3.1977,-3.1977,-3.2129,-3.228,-3.228,-3.1367,-3.0307,-3.0307,-2.9355,-2.8301,-2.8301,-2.8301,-2.8301,-2.8301,-2.8301,-2.8601,-2.9702,-3.0016,-3.0037,-3.0047,-3.0057,-2.967,-2.8573,-2.834,-2.8301,-2.8301,-2.8301,-2.8301,-2.8301,-2.8301,-2.8301,-2.8301,-2.8301,-2.8301,-2.8301,-2.8301,-2.8301,-2.8301,-3.0296,-3.1708,-3.1977,-3.1915,-3.3095,-3.5852,-3.5896,-3.5846,-3.5846,-3.5562,-3.5382,-3.5382,-3.5382,-3.5265,-3.508,-3.5647,-3.5802,-3.3636,-3.3043,-3.2434,-3.1265,-3.1396,-3.1482,-3.0475,-3.0558,-3.0765,-3.031,-3.0005,-3.003,-3.0834,-3.1512,-3.2767,-3.5328,-3.6609,-3.7739,-3.912,-4.0224,-4.0902,-4.0902,-4.1379,-4.1505,-4.0953,-4.0651,-4.04,-4.0099,-3.9848,-3.9572,-3.927,-3.9245,-3.8994,-3.8417,-3.8642,-3.8668,-3.8417,-3.8668,-3.8818,-3.8919,-3.8542,-3.799,-3.7186,-3.6933,-3.6656,-3.6405,0.0,-3.5619,-3.4385,-3.4385,-3.3552,-3.228,-3.228,-3.228,-3.2381,-3.3155,-3.3403,-3.3552,-3.424,-3.4533,-3.4533,-3.4533,-3.3601,-3.2504,-3.2504,-3.1542,-3.0463,-3.0463,-2.9408,-2.8301,-2.8301,-2.8847,-2.9565,-3.0172,-3.0876,-3.1367,-3.1367,-3.0824,-3.012,-2.9513,-2.8794,-2.8301,-2.8301,-2.8301,-2.8548,-2.925,-2.8741,-2.8548,-2.9303,-2.8761,-2.8301,-2.8301,-2.8301,-2.8301,-2.8301,-2.9408,-3.1367,-3.4338,-3.4318,-3.4895,-3.6358,-3.6405,-3.6405,-3.6405,-3.6107,-3.5981,-3.5981,-3.5981,-3.5981,-3.5981,-3.6279,-3.6405,-3.4105,-3.3463,-3.2842,-3.1851,-3.1772,-3.1823,-3.1301,-3.1246,-3.1341,-3.1377,-3.106,-3.0859,-3.1135,-3.2541,-3.4575,-3.7362,-3.8241,-3.8994,-4.0124,-4.0626,-4.0902,-4.0902,-4.1053,-4.0924,-4.0551,-4.0275,-3.9948,-3.9521,-3.9371,-3.912,-3.8693,-3.8668,-3.8417,-3.7839,-3.7939,-3.7939,-3.7814,-3.7939,-3.8165,-3.8517,-3.8015,-3.7513,-3.6985,-3.6606,-3.6405,-3.6405,-3.6405,-3.581,-3.4872,-3.4872,-3.4215,-3.3231,-3.3231,-3.3231,-3.338,-3.4459,-3.4872,-3.5017,-3.6073,-3.6405,-3.6405,-3.6405,-3.5475,-3.4385,-3.4385,-3.3403,-3.228,-3.228,-3.0824,-2.9144,-2.8847,-2.9513,-3.0359,-3.0669,-3.1774,-3.2783,-3.2783,-3.1999,-3.1184,-3.0824,-2.9723,-2.8847,-2.9197,-2.9006,-2.9197,-3.0566,-2.9618,-2.9144,-3.0172,-2.9164,-2.8301,-2.8301,-2.8301,-2.8441,-2.8741,-2.9059,-3.1162,-3.5667,-3.6216,-3.6405,-3.6405,-3.6405,-3.6405,-3.6405,-3.6405,-3.6405,-3.6405,-3.6405,-3.6405,-3.6405,-3.6405,-3.6405,-3.3612,-3.3842,-3.3854,-3.1055,-3.0792,-3.155,-3.2693,-3.3219,-3.3528,-3.3662,-3.3621,-3.3445,-3.2993,-3.4248,-3.5734,-3.7036,-3.8994,-4.0727,-4.1886,-4.2062,-4.2087,-4.2087,-4.1178,-4.0551,-4.0526,-3.9597,-3.902,-3.8944,-3.8442,-3.8115,-3.8065,-3.8065,-3.7814,-3.7262,-3.7739,-3.7764,-3.7236,-3.7739,-3.7764,-3.7312,-3.7262,-3.7008,-3.6455,-3.643,-3.6405,-3.6405,-3.6405,-3.6358,-3.6263,-3.6263,-3.6216,-3.6096,-3.6096,-3.6096,-3.6096,-3.6216,-3.6263,-3.6263,-3.6358,-3.6405,-3.6405,-3.6405,-3.5475,-3.4385,-3.4385,-3.3403,-3.228,-3.228,-3.218,-3.1724,-3.0463,-3.0224,-3.0618,-3.1876,-3.3254,-3.4239,-3.4239,-3.4166,-3.3723,-3.2381,-3.1081,-3.0566,-3.1774,-3.0979,-3.0618,-3.1927,-3.103,-3.0172,-3.0276,-2.9164,-2.8301,-2.8301,-2.8301,-2.8794,-3.0068,-3.1265,-3.2755,-3.4434,-3.5715,-3.6405,-3.6405,-3.6405,-3.6405,-3.6405,-3.6405,-3.6405,-3.6405,-3.6405,-3.6405,-3.6405,-3.6405,-3.6405,-3.4268,-3.4122,-3.3829,-3.208,-3.1848,-3.2262,-3.2962,-3.3233,-3.3513,-3.4262,-3.4399,-3.4449,-3.46,-3.568,-3.6935,-3.804,-3.9521,-4.0777,-4.153,-4.1656,-4.153,-4.1178,-4.0777,-4.0375,-4.0049,-3.932,-3.8919,-3.8919,-3.8341,-3.7864,-3.7513,-3.7487,-3.7236,-3.6732,-3.6933,-3.6933,-3.6732,-3.6885,-3.6885,-3.6732,-3.701,-3.6933,-3.6405,-3.6405,-3.6405,-3.6405,-3.6405,-3.6405,-3.6405,-3.6405,-3.6405,-3.6405,-3.6405,-3.6405,-3.6405,-3.6405,-3.6405,-3.6405,-3.6405,-3.6405,-3.6405,-3.6405,-3.6073,-3.5619,-3.5619,-3.5259,-3.4848,-3.4848,-3.4264,-3.3304,-3.1876,-3.2202,-3.2955,-3.3502,-3.4654,-3.5619,-3.5619,-3.4969,-3.4239,-3.3723,-3.2504,-3.1673,-3.223,-3.1876,-3.2028,-3.3403,-3.2454,-3.152,-3.152,-3.0359,-2.9197,-2.8388,-2.8301,-2.8495,-2.9006,-3.103,-3.2532,-3.3055,-3.5162,-3.6405,-3.6405,-3.6405,-3.6405,-3.6405,-3.6405,-3.6405,-3.6405,-3.6405,-3.6405,-3.6405,-3.6405,-3.6405,-3.4352,-3.3849,-3.3244,-3.2187,-3.2101,-3.2554,-3.3633,-3.4281,-3.4995,-3.6069,-3.5603,-3.5107,-3.5705,-3.6408,-3.7287,-3.8417,-3.9672,-4.0701,-4.12,-4.1125,-4.0874,-4.0551,-4.035,-4.0099,-3.9722,-3.9019,-3.8592,-3.8592,-3.7914,-3.7312,-3.6983,-3.6983,-3.6807,-3.6405,-3.6405,-3.6405,-3.6405,-3.6405,-3.6329,-3.6107,-3.6483,-3.6558,-3.6405,-3.6405,-3.6405,-3.6405,-3.6405,-3.6405,-3.6405,-3.6405,-3.6405,-3.6405,-3.6405,-3.6405,-3.6405,-3.6405,-3.6405,-3.6405,-3.6405,-3.6405,-3.6405,-3.6405,-3.6405,-3.6405,-3.6405,-3.6405,-3.6405,-3.6405,-3.5715,-3.4824,-3.3848,-3.4019,-3.4385,-3.4385,-3.5427,-3.6405,-3.6405,-3.5667,-3.5017,-3.5017,-3.392,-3.3105,-3.3528,-3.3254,-3.3453,-3.4824,-3.3848,-3.2955,-3.2955,-3.1389,-2.9807,-2.8441,-2.8301,-2.8441,-2.89,-3.103,-3.2482,-3.2955,-3.5162,-3.6405,-3.6405,-3.6405,-3.6405,-3.6405,-3.6405,-3.6405,-3.6405,-3.6405,-3.6405,-3.6405,-3.6405,-3.6405,-3.3664,-3.3006,-3.2194,-3.0926,-3.1062,-3.2245,-3.4965,-3.6874,-3.8398,-3.9588,-3.751,-3.5683,-3.6329,-3.6405,-3.6782,-3.7814,-3.9421,-4.0701,-4.12,-4.0852,-4.0501,-4.0501,-4.0023,-3.9672,-3.9672,-3.8668,-3.799,-3.799,-3.6985,-3.6405,-3.6405,-3.6405,-3.6405,-3.6405,-3.6405,-3.6405,-3.6405,-3.6405,-3.6081,-3.5483,-3.5483,-3.583,-3.638,-3.6405,-3.6405,-3.6405,-3.6405,-3.6405,-3.6405,-3.6405,-3.6405,-3.6405,-3.6405,-3.6405,-3.6405,-3.6405,-3.6405,-3.6405,-3.6405,-3.6405,-3.6405,-3.6405,-3.6405,-3.6405,-3.6405,-3.6405,-3.6405,-3.6405,-3.6405,-3.6405,-3.6405,-3.5427,-3.4434,-3.4434,-3.5427,-3.6405,-3.6405,-3.6405,-3.6405,-3.6405,-3.5331,-3.4824,-3.6168,-3.5331,-3.4872,-3.6216,-3.5283,-3.4434,-3.4385,-3.1999,-2.9807,-2.8495,-2.8335,-2.89,-3.0224,-3.152,-3.2905,-3.4337,-3.5667,-3.6405,-3.6405,-3.6405,-3.6405,-3.6405,-3.6405,-3.6405,-3.6405,-3.6405,-3.6405,-3.6405,-3.6405,-3.6405,-3.3814,-3.326,-3.2703,-3.1514,-3.203,-3.3328,-3.5192,-3.5923,-3.6897,-3.9201,-3.8079,-3.6734,-3.691,-3.7262,-3.7487,-3.7437,-3.8843,-3.9998,-4.0149,-3.9697,-3.9346,-3.9346,-3.8843,-3.8492,-3.8492,-3.7864,-3.7437,-3.7437,-3.6408,-3.578,-3.578,-3.578,-3.578,-3.578,-3.6157,-3.6182,-3.578,-3.578,-3.5504,-3.4931,-3.4931,-3.5052,-3.5228,-3.5604,-3.578,-3.5805,-3.6207,-3.6405,-3.6405,-3.6405,-3.6405,-3.6405,-3.6405,-3.6405,-3.6405,-3.6405,-3.6405,-3.6405,-3.6405,-3.6405,-3.6405,-3.6405,-3.6405,-3.6405,-3.6405,-3.6405,-3.6405,-3.6405,-3.6405,-3.6405,-3.6405,-3.6121,-3.581,-3.581,-3.6121,-3.6405,-3.6405,-3.6405,-3.6405,-3.6405,-3.6073,-3.5906,-3.631,-3.6073,-3.5953,-3.6358,-3.6048,-3.5475,-3.4532,-3.2805,-3.152,-3.1184,-3.1133,-3.1265,-3.1673,-3.3005,-3.397,-3.4385,-3.5667,-3.6405,-3.6405,-3.6405,-3.6405,-3.6405,-3.6405,-3.6405,-3.6405,-3.6405,-3.6405,-3.6405,-3.6405,-3.6405,-3.4023,-3.316,-3.2344,-3.2214,-3.2663,-3.3611,-3.5478,-3.6577,-3.7693,-3.9386,-3.8383,-3.7186,-3.7186,-3.7287,-3.7387,-3.7487,-3.8366,-3.9094,-3.9346,-3.8894,-3.8517,-3.8517,-3.8216,-3.8015,-3.8015,-3.7899,-3.7903,-3.7903,-3.6852,-3.6237,-3.6237,-3.5557,-3.5182,-3.5182,-3.5554,-3.5554,-3.5182,-3.5182,-3.4906,-3.4399,-3.4399,-3.4274,-3.4098,-3.4831,-3.5282,-3.5508,-3.5881,-3.6031,-3.6031,-3.6031,-3.6031,-3.6056,-3.6329,-3.6405,-3.6405,-3.6405,-3.6405,-3.6405,-3.6405,-3.6254,-3.6081,-3.6329,-3.6254,-3.6081,-3.6355,-3.6405,-3.6405,-3.6405,-3.6405,-3.6405,-3.6405,-3.6405,-3.6405,-3.6405,-3.6405,-3.6405,-3.6405,-3.6405,-3.6405,-3.6405,-3.6405,-3.6405,-3.6405,-3.6405,-3.6405,-3.6405,-3.6405,-3.5906,-3.4581,-3.3837,-3.3161,-3.2353,-3.251,-3.2808,-3.3128,-3.392,-3.4629,-3.5162,-3.5953,-3.6505,-3.6732,-3.6531,-3.6505,-3.6732,-3.6531,-3.6505,-3.6732,-3.6505,-3.6405,-3.6405,-3.6405,-3.6405,-3.4354,-3.2859,-3.1517,-3.2999,-3.3177,-3.3546,-3.5738,-3.7985,-3.958,-3.9691,-3.8402,-3.7186,-3.7186,-3.6832,-3.6807,-3.7764,-3.7965,-3.8191,-3.8718,-3.8291,-3.7939,-3.7939,-3.7889,-3.7913,-3.7986,-3.8536,-3.8873,-3.8912,-3.797,-3.7307,-3.7122,-3.5641,-3.474,-3.465,-3.465,-3.4625,-3.4575,-3.4525,-3.4248,-3.3746,-3.3746,-3.352,-3.3119,-3.4173,-3.4906,-3.5433,-3.5433,-3.5433,-3.5433,-3.5433,-3.5433,-3.5483,-3.6081,-3.6329,-3.6329,-3.638,-3.6405,-3.6405,-3.6405,-3.6031,-3.5633,-3.6132,-3.5981,-3.5658,-3.6157,-3.638,-3.6405,-3.6405,-3.6405,-3.6405,-3.6405,-3.6405,-3.6405,-3.6405,-3.6405,-3.6405,-3.6405,-3.6405,-3.6405,-3.6405,-3.6405,-3.6405,-3.6405,-3.6405,-3.6405,-3.6405,-3.6405,-3.5953,-3.4727,-3.5013,-3.4613,-3.2878,-3.3209,-3.383,-3.4531,-3.4628,-3.5187,-3.6386,-3.648,-3.6732,-3.7236,-3.6782,-3.6732,-3.7186,-3.6782,-3.6757,-3.7111,-3.6707,-3.6455,-3.6405,-3.6405,-3.643,-3.4474,-3.3021,-3.1896,-3.3504,-3.4421,-3.5021,-3.5547,-3.676,-3.7884,-3.8286,-3.7792,-3.7186,-3.7186,-3.7086,-3.7086,-3.7312,-3.7739,-3.804,-3.8165,-3.7713,-3.7362,-3.7362,-3.6985,-3.7111,-3.7996,-3.8188,-3.8469,-3.8869,-3.8246,-3.728,-3.596,-3.5529,-3.4942,-3.4117,-3.4073,-3.3872,-3.3445,-3.2968,-3.2692,0.0,-3.2566,-3.2742,-3.3093,-3.3771,-3.4374,-3.4856,-3.4856,-3.4856,-3.4856,-3.4856,-3.4856,-3.4906,-3.5458,-3.5683,-3.578,-3.6207,-3.6405,-3.6405,-3.6405,-3.6329,-3.6132,-3.583,-3.5931,-3.6132,-3.5805,-3.6006,-3.6405,-3.6405,-3.6405,-3.6405,-3.6405,-3.6405,-3.6405,-3.6405,-3.6405,-3.6405,-3.6405,-3.6405,-3.6405,-3.6405,-3.6405,-3.6405,-3.6405,-3.6405,-3.6405,-3.6405,-3.6405,-3.631,-3.6001,-3.6053,-3.5982,-3.5571,-3.599,-3.6259,-3.6003,-3.6351,-3.6696,-3.701,-3.7059,-3.7262,-3.7814,-3.7287,-3.7061,-3.7186,-3.7487,-3.7287,-3.6581,-3.6908,-3.6832,-3.6405,-3.6405,-3.6631,-3.4891,-3.3885,-3.3038,-3.4097,-3.4743,-3.5107,-3.5107,-3.5968,-3.6825,-3.7101,-3.718,-3.7127,-3.6806,-3.6582,-3.6408,-3.6408,-3.6408,-3.6533,-3.6737,-3.6358,-3.6107,-3.6358,-3.6157,-3.6337,-3.7217,-3.7553,-3.8042,-3.8846,-3.8117,-3.7482,-3.7097,-3.5841,-3.4743,-3.3894,-3.3368,-3.2817,-3.2265,-3.1964,-3.1964,-3.2215,-3.2215,-3.2516,-3.3136,-3.3646,-3.4048,-3.4324,-3.4324,-3.4324,-3.4324,-3.4324,-3.4324,-3.4374,-3.4881,-3.5257,-3.5533,-3.5855,-3.6132,-3.6405,-3.6405,-3.6182,-3.5956,-3.5956,-3.5956,-3.5956,-3.5956,-3.6132,-3.6405,-3.6405,-3.6405,-3.6405,-3.6405,-3.6405,-3.6405,-3.6405,-3.6405,-3.6405,-3.6405,-3.6405,-3.6405,-3.6405,-3.6405,-3.6405,-3.6405,-3.6405,-3.6405,-3.6405,-3.6405,-3.6405,-3.6405,-3.6631,-3.6707,-3.643,-3.7086,-3.7236,-3.648,-3.7111,-3.7462,-3.7211,-3.7437,-3.7839,-3.8391,-3.814,-3.799,-3.799,-3.799,-3.7864,-3.7612,-3.7312,-3.7036,-3.6807,-3.6807,-3.691,-3.531,-3.4974,-3.4526,-3.4847,-3.508,-3.5232,-3.5156,-3.5861,-3.6571,-3.6529,-3.6974,-3.7124,-3.6437,-3.5929,-3.5562,-3.5403,-3.4981,-3.4831,-3.5282,-3.4956,-3.4881,-3.5433,-3.5408,-3.5651,-3.6459,-3.691,-3.7578,-3.8516,-3.7703,-3.7458,-3.8047,-3.5993,-3.4403,-3.3537,-3.2649,-3.1852,-3.126,-3.116,-3.1386,-3.1938,-3.2322,-3.2819,-3.3513,-3.4075,-3.4114,-3.3746,-3.3746,-3.3746,-3.3746,-3.3746,-3.3746,-3.3822,-3.4374,-3.4881,-3.5357,-3.5458,-3.5881,-3.6405,-3.6304,-3.5981,-3.573,-3.5981,-3.5906,-3.5708,-3.6107,-3.6329,-3.6405,-3.6405,-3.6405,-3.6405,-3.6405,-3.6405,-3.6405,-3.6405,-3.6405,-3.6405,-3.6405,-3.6405,-3.6405,-3.6405,-3.6405,-3.6405,-3.6405,-3.6405,-3.643,-3.6531,-3.6556,-3.6581,-3.6681,-3.7036,-3.7161,-3.6732,-3.7538,-3.7739,-3.6782,-3.7588,-3.7965,-3.7513,-3.7914,-3.8417,-3.8994,-3.907,-3.907,-3.907,-3.8542,-3.8442,-3.8718,-3.7889,-3.7437,-3.7337,-3.7337,-3.7387,-3.531,-3.5902,-3.6248,-3.6006,-3.6702,-3.734,-3.6906,-3.7262,-3.7676,-3.7618,-3.7714,-3.7493,-3.6462,-3.6254,-3.5867,-3.4962,-3.4731,-3.4751,-3.4781,-3.4731,-3.4881,-3.5433,-3.5082,-3.5435,-3.7004,-3.6841,-3.6844,-3.7386,-3.7274,-3.6647,-3.5317,-3.5207,-3.4379,-3.2482,-3.2159,-3.1617,-3.0708,-3.0256,-3.0281,-3.0834,-3.2691,-3.4087,-3.5026,-3.5638,-3.4921,-3.3237,-3.3237,-3.3237,-3.3237,-3.3237,-3.3237,-3.3244,-3.3796,-3.4349,-3.4831,-3.5332,-3.5881,-3.6355,-3.5805,-3.5906,-3.6153,-3.5228,-3.5529,-3.6182,-3.578,-3.5981,-3.6405,-3.6405,-3.6405,-3.6405,-3.6405,-3.6405,-3.6405,-3.6405,-3.6405,-3.6405,-3.6405,-3.6405,-3.6405,-3.6405,-3.6405,-3.6405,-3.6405,-3.6405,-3.6581,-3.701,-3.7086,-3.7236,-3.7739,-3.7839,-3.7864,-3.7789,-3.8366,-3.8492,-3.7839,-3.8391,-3.8718,-3.8693,-3.8718,-3.8994,-3.9572,-3.9597,-3.9597,-3.9597,-3.9496,-3.9019,-3.8115,-3.8467,-3.8391,-3.7889,-3.7889,-3.8165,-3.5878,-3.5878,-3.5804,-3.6335,-3.6482,-3.6463,-3.6558,-3.7247,-3.7816,-3.7815,-3.8313,-3.8302,-3.6849,-3.5925,-3.4994,-3.3824,-3.3157,-3.2968,-3.3269,-3.3319,-3.3646,-3.4525,-3.4399,-3.4673,-3.5744,-3.537,-3.5383,-3.6192,-3.5952,-3.5575,-3.5127,-3.4711,-3.3741,-3.2251,-3.1563,-3.1151,-3.0932,-3.0189,-3.008,-3.0633,-3.2396,-3.3476,-3.3934,-3.5128,-3.5063,-3.3995,-3.3995,-3.3683,-3.3111,-3.3111,-3.3111,-3.3093,-3.3345,-3.3771,-3.4299,-3.4525,-3.4977,-3.5454,-3.5483,-3.5504,-3.5403,-3.5182,-3.5303,-3.5454,-3.5483,-3.5683,-3.5981,-3.6329,-3.6405,-3.6405,-3.6405,-3.6405,-3.6405,-3.6405,-3.6405,-3.6405,-3.6405,-3.6405,-3.6405,-3.6405,-3.6405,-3.6505,-3.6832,-3.6883,-3.701,-3.7563,-3.7638,-3.7739,-3.7965,-3.8015,-3.8015,-3.8015,-3.8517,-3.8642,-3.8065,-3.8818,-3.9195,-3.8944,-3.917,-3.9446,-3.9697,-3.9697,-3.9697,-3.9697,-3.9697,-3.9446,-3.8944,-3.8894,-3.8743,-3.8492,-3.8492,-3.8617,-3.6118,-3.576,-3.5532,-3.6496,-3.627,-3.5996,-3.6626,-3.7367,-3.7978,-3.8153,-3.8833,-3.8888,-3.7252,-3.6001,-3.4847,-3.3606,-3.25,-3.1919,-3.2285,-3.2155,-3.2416,-3.3545,-3.3571,-3.3696,-3.4248,-3.3922,-3.3944,-3.4595,-3.4418,-3.4372,-3.4603,-3.394,-3.3133,-3.2167,-3.1461,-3.1225,-3.1536,-3.062,-3.0342,-3.0775,-3.2046,-3.2775,-3.3085,-3.4716,-3.5162,-3.4633,-3.4709,-3.422,-3.3471,-3.3197,-3.3111,-3.3111,-3.3111,-3.342,-3.3897,-3.3897,-3.4248,-3.4731,-3.4981,-3.4906,-3.4801,-3.5157,-3.5107,-3.4981,-3.5533,-3.5708,-3.583,-3.6279,-3.6405,-3.6405,-3.6405,-3.6405,-3.6405,-3.6405,-3.6405,-3.6405,-3.6405,-3.6405,-3.6405,-3.6405,-3.6531,-3.6757,-3.7111,-3.7287,-3.7588,-3.814,-3.8216,-3.8291,-3.8417,-3.8442,-3.8442,-3.8442,-3.8818,-3.8894,-3.8467,-3.922,-3.9521,-3.912,-3.9471,-3.9697,-3.9697,-3.9697,-3.9697,-3.9697,-3.9697,-3.9697,-3.9697,-3.927,-3.9069,-3.9069,-3.9069,-3.9069,-3.5549,-3.5965,-3.644,-3.65,-3.6914,-3.7476,-3.8132,-3.8316,-3.856,-3.9182,-3.9337,-3.8985,-3.7635,-3.6996,-3.6344,-3.5339,-3.3802,-3.2712,-3.2738,-3.1994,-3.1838,-3.3036,-3.2641,-3.2516,-3.3119,-3.3187,-3.2935,-3.2424,-3.2852,-3.2945,-3.2407,-3.2679,-3.2593,-3.2026,-3.2336,-3.2506,-3.2522,-3.1609,-3.1119,-3.1172,-3.1864,-3.2697,-3.3596,-3.5223,-3.5399,-3.4403,-3.462,-3.4677,-3.4553,-3.3513,-3.3111,-3.3111,-3.3111,-3.342,-3.3897,-3.3897,-3.4248,-3.465,-3.4148,-3.4299,-3.468,-3.4705,-3.5056,-3.5558,-3.6157,-3.6355,-3.638,-3.6405,-3.6405,-3.6405,-3.6405,-3.6405,-3.6405,-3.6405,-3.6405,-3.6405,-3.6405,-3.6405,-3.6405,-3.6405,-3.6832,-3.7161,-3.7186,-3.7613,-3.8165,-3.8743,-3.8818,-3.9019,-3.9546,-3.9597,-3.9597,-3.9597,-3.9647,-3.9647,-3.9597,-3.9672,-3.9697,-3.9647,-3.9672,-3.9697,-3.9697,-3.9697,-3.9697,-3.9697,-3.9697,-3.9697,-3.9697,-3.9672,-3.9647,-3.9647,-3.9647,-3.9647,-3.5519,-3.5669,-3.5968,-3.6387,-3.6656,-3.6985,-3.7614,-3.7764,-3.7943,-3.8631,-3.8751,-3.8601,-3.8123,-3.7086,-3.5899,-3.4668,-3.3467,-3.2583,-3.234,-3.2006,-3.1846,-3.1971,-3.2114,-3.229,-3.2491,-3.2516,-3.2591,-3.2742,-3.229,-3.1888,-3.1687,-3.207,-3.2052,-3.151,-3.22,-3.2307,-3.1719,-3.1947,-3.1499,-3.033,-3.1168,-3.1745,-3.2115,-3.3742,-3.4566,-3.4767,-3.3954,-3.3779,-3.4,-3.2953,-3.2742,-3.3043,-3.2667,-3.2867,-3.337,-3.337,-3.3495,-3.3696,-3.3847,-3.3796,-3.3721,-3.4073,-3.4324,-3.46,-3.5152,-3.5554,-3.5906,-3.6304,-3.6405,-3.6405,-3.6405,-3.6405,-3.6405,-3.6405,-3.6405,-3.6505,-3.6857,-3.6656,-3.6505,-3.6883,-3.7061,-3.7412,-3.814,-3.8417,-3.8743,-3.932,-3.9396,-3.9471,-3.9672,-3.9697,-3.9697,-3.9697,-3.9697,-3.9697,-3.9697,-3.9697,-3.9697,-3.9697,-3.9697,-3.9697,-3.9697,-3.9697,-3.9697,-3.9697,-3.9697,-3.9697,-3.9697,-3.9697,-3.9697,-3.9697,-3.9697,-3.9697,-3.5519,-3.5519,-3.5609,-3.6058,-3.6148,-3.6327,-3.6956,-3.7105,-3.7285,-3.7913,-3.8063,-3.8003,-3.7793,-3.6896,-3.5892,-3.4981,-3.3848,-3.298,-3.2709,-3.2123,-3.1717,-3.161,-3.164,-3.1662,-3.1662,-3.2014,-3.229,-3.2491,-3.2164,0.0,-3.1873,-3.2137,-3.2224,-3.2119,-3.308,-3.2975,-3.1683,-3.2272,-3.1646,-2.9804,-3.0419,-3.0733,-3.0771,-3.2159,-3.3128,-3.3661,-3.2966,-3.3157,-3.3846,-3.249,-3.2265,-3.2742,-3.2365,-3.2566,-3.3111,-3.3111,-3.3111,-3.3162,-3.3495,-3.3395,-3.3212,-3.3721,-3.3897,-3.4048,-3.4731,-3.5207,-3.5608,-3.6207,-3.6405,-3.6405,-3.6405,-3.6405,-3.6405,-3.6405,-3.6556,-3.6782,-3.7111,-3.6933,-3.6857,-3.7362,-3.7613,-3.799,-3.8793,-3.9019,-3.927,-3.9647,-3.9697,-3.9697,-3.9697,-3.9697,-3.9697,-3.9697,-3.9697,-3.9697,-3.9697,-3.9697,-3.9697,-3.9697,-3.9697,-3.9697,-3.9697,-3.9697,-3.9697,-3.9697,-3.9697,-3.9697,-3.9697,-3.9697,-3.9697,-3.9697,-3.9697,-3.9697,0.0,0.0,0.0,-3.5519,-3.5519,-3.5669,-3.6297,-3.6447,-3.6626,-3.7255,-3.7375,-3.7195,-3.6596,-3.6477,-3.6477,-3.6447,-3.5087,-3.4013,-3.3979,-3.2415,-3.1453,-3.192,-3.1163,-3.0647,-3.0633,-3.1562,-3.1964,-3.1461,-3.2432,-3.2969,-3.2778,-3.2817,-3.3213,-3.4036,-3.5001,-3.4606,-3.2664,-3.2593,-3.1646,-2.9818,-2.9804,-2.9804,-2.9818,-3.0733,-3.1167,-3.1257,-3.1736,-3.2863,-3.4146,-3.2197,-3.1712,-3.2215,-3.219,-3.2541,-3.3111,-3.3068,-3.3068,-3.3111,-3.3068,-3.3111,-3.3212,-3.3696,-3.3897,-3.4098,-3.5157,-3.5483,-3.5608,-3.6207,-3.6405,-3.6405,-3.6405,-3.6405,-3.6405,-3.6405,-3.6832,-3.7186,-3.7211,-3.7236,-3.7387,-3.7939,-3.8492,-3.8919,-3.8944,-3.9346,-3.9697,-3.9697,-3.9697,-3.9697,-3.9697,-3.9697,-3.9697,-3.9697,-3.9697,-3.9697,-3.9697,-3.9697,-3.9697,-3.9697,-3.9697,-3.9697,-3.9697,-3.9697,-3.9697,-3.9697,-3.9697,-3.9697,-3.9697,-3.9697,-3.9697,-3.9697,-3.9697,-3.9697,-3.5519,0.0,0.0,0.0,0.0,0.0,-3.5729,-3.5789,-3.5968,-3.6596,-3.6746,-3.6686,-3.6507,-3.6477,-3.6327,-3.5848,-3.5413,-3.4839,-3.4081,-3.3567,-3.2783,-3.1564,-3.1534,-3.1513,-3.1216,-3.111,-3.1311,0.0,-3.1792,-3.1888,-3.2198,-3.3157,-3.4111,-3.5067,-3.5359,-3.4872,-3.3636,-3.2947,-3.201,-3.0782,-3.0101,-2.9804,-2.9804,-3.0062,-3.057,-3.1193,-3.0649,-3.1071,-3.2006,-3.1161,-3.1386,-3.2164,-3.1763,-3.2215,-3.3061,-3.2616,-3.2717,-3.3061,-3.2591,-3.2717,-3.3093,-3.3244,-3.3571,-3.4022,-3.468,-3.5182,-3.5608,-3.6207,-3.6405,-3.6405,-3.6405,-3.6405,-3.6405,-3.6405,-3.6832,-3.7287,-3.7688,-3.8115,-3.8442,-3.8592,-3.8818,-3.9045,-3.9396,-3.9597,-3.9697,-3.9697,-3.9697,-3.9697,-3.9697,-3.9697,-3.9697,-3.9697,-3.9697,-3.9697,-3.9697,-3.9697,-3.9697,-3.9697,-3.9697,-3.9697,-3.9697,-3.9697,-3.9697,-3.9697,-3.9697,-3.9697,-3.9697,-3.9697,-3.9697,-3.9697,-3.9697,-3.9697,-3.5519,-3.5519,-3.5519,-3.5519,0.0,0.0,-3.513,-3.531,-3.5519,-3.5639,-3.5878,-3.6088,-3.6088,-3.6088,-3.5938,-3.5579,-3.575,-3.5655,-3.4743,-3.4245,-3.3602,-3.2486,-3.2308,-3.1989,-3.1383,-3.124,-3.1272,-3.1486,-3.1366,-3.1653,-3.2541,-3.3873,-3.4872,-3.5457,-3.5519,-3.5034,-3.4013,-3.3463,-3.2522,-3.1167,-3.0658,-3.0177,-2.9804,-2.9804,-3.0101,-3.0582,-3.0049,-3.0101,-3.0608,-3.034,-3.0783,-3.1512,-3.1185,-3.1612,-3.234,-3.1989,-3.224,-3.2667,-3.234,-3.2591,-3.3111,-3.3111,-3.3294,-3.3671,-3.4198,-3.4555,-3.4981,-3.5805,-3.6182,-3.6405,-3.6405,-3.6405,-3.6405,-3.6405,-3.6832,-3.7337,-3.7889,-3.8467,-3.8994,-3.917,-3.922,-3.932,-3.9647,-3.9697,-3.9697,-3.9697,-3.9697,-3.9697,-3.9697,-3.9697,-3.9697,-3.9697,-3.9697,-3.9697,-3.9697,-3.9697,-3.9697,-3.9697,-3.9697,-3.9697,-3.9697,-3.9697,-3.9697,-3.9697,-3.9697,-3.9697,-3.9697,-3.9697,-3.9697,-3.9697,-3.9697,-3.9697,-3.5519,-3.5519,-3.5519,-3.5519,-3.5519,0.0,-3.4773,-3.507,-3.534,-3.4711,-3.507,-3.5519,-3.5519,-3.5519,-3.5522,-3.5619,-3.6102,-3.6259,-3.5587,-3.4868,-3.4303,-3.4041,-3.3346,-3.2489,-3.1532,-3.1706,-3.159,-3.082,-3.124,-3.2163,-3.3531,-3.483,-3.5519,-3.5519,-3.5519,-3.5067,-3.4177,-3.4075,-3.3087,-3.1352,-3.1352,-3.0809,-2.9804,-3.0011,-3.0011,-2.9804,-2.9895,-2.9895,-2.9804,-2.9804,-3.0131,-3.0608,-3.0608,-3.0934,-3.1386,-3.1386,-3.1738,-3.2215,-3.2215,-3.2591,-3.3111,-3.3111,-3.3111,-3.3194,-3.3746,-3.3947,-3.4223,-3.5282,-3.5981,-3.6405,-3.6405,-3.6405,-3.6405,-3.6405,-3.6832,-3.7337,-3.7889,-3.8467,-3.9044,-3.9597,-3.9697,-3.9697,-3.9697,-3.9697,-3.9697,-3.9697,-3.9697,-3.9697,-3.9697,-3.9697,-3.9697,-3.9697,-3.9697,-3.9697,-3.9697,-3.9697,-3.9697,-3.9697,-3.9697,-3.9697,-3.9697,-3.9697,-3.9697,-3.9697,-3.9697,-3.9697,-3.9697,-3.9697,-3.9697,-3.9697,-3.9697,-3.9697,-3.5519,-3.5519,-3.5519,-3.5519,-3.5519,0.0,-3.534,-3.54,-3.5459,-3.534,-3.54,-3.5519,-3.5519,-3.5519,-3.5686,-3.629,-3.6006,-3.5683,-3.5522,-3.6304,-3.617,-3.424,-3.4335,-3.4129,-3.3083,-3.1984,-3.1461,-3.1731,-3.2107,-3.3175,-3.5012,-3.5353,-3.5519,-3.5519,-3.5519,-3.5392,-3.5198,-3.438,-3.3463,-3.2307,-3.2307,-3.1452,-2.9856,-3.1378,-3.123,-2.9818,-3.0582,-3.0495,-2.9804,-2.9804,-3.0131,-3.0608,-3.0608,-3.0934,-3.1386,-3.1386,-3.1738,-3.2215,-3.2215,-3.2591,-3.3111,-3.3111,-3.3111,-3.3194,-3.3746,-3.4198,-3.4801,-3.5881,-3.6329,-3.6405,-3.6405,-3.6405,-3.6405,-3.6405,-3.6832,-3.7337,-3.7889,-3.8467,-3.9044,-3.9597,-3.9697,-3.9697,-3.9697,-3.9697,-3.9697,-3.9697,-3.9697,-3.9697,-3.9697,-3.9697,-3.9697,-3.9697,-3.9697,-3.9697,-3.9697,-3.9697,-3.9697,-3.9697,-3.9697,-3.9697,-3.9697,-3.9697,-3.9697,-3.9697,-3.9697,-3.9697,-3.9697,-3.9697,-3.9697,-3.9697,-3.9697,-3.9697,-3.6387,-3.6447,-3.6447,-3.6447,-3.6237,0.0,0.0,-3.5519,-3.54,-3.507,-3.528,-3.5519,-3.5519,-3.5519,-3.5619,-3.6006,-3.607,-3.607,-3.607,-3.6344,-3.6114,-3.4902,-3.5037,-3.484,-3.3811,-3.3036,-3.2516,-3.2307,-3.2499,-3.3255,-3.4677,-3.5231,-3.5519,-3.5519,-3.5519,-3.5519,-3.5519,-3.5001,-3.4245,-3.3325,-3.3325,-3.2307,-3.057,-3.1974,-3.1829,-3.057,-3.1499,-3.1352,-3.0495,-3.0495,-3.0369,-3.0206,-3.0206,-3.0357,-3.0633,-3.0909,-3.1336,-3.1838,-3.2114,-3.2591,-3.3111,-3.3111,-3.3111,-3.3162,-3.3395,-3.4073,-3.4901,-3.573,-3.6157,-3.6405,-3.6405,-3.6405,-3.6405,-3.6405,-3.6832,-3.7337,-3.7889,-3.8467,-3.9044,-3.9597,-3.9697,-3.9697,-3.9697,-3.9697,-3.9697,-3.9697,-3.9697,-3.9697,-3.9697,-3.9697,-3.9697,-3.9697,-3.9697,-3.9697,-3.9697,-3.9697,-3.9697,-3.9697,-3.9697,-3.9697,-3.9697,-3.9697,-3.9697,-3.9697,-3.9697,-3.9697,-3.9697,-3.9697,-3.9697,-3.9697,-3.9697,-3.9697,-3.7255,-3.7404,-3.7404,-3.7404,-3.7015,-3.6477,0.0,0.0,0.0,-3.4831,-3.513,-3.5519,-3.5519,-3.5519,-3.5554,-3.5716,-3.6071,-3.6446,-3.6569,-3.6071,-3.5686,-3.5686,-3.5707,-3.5314,-3.4375,-3.4109,-3.3705,-3.2912,-3.2876,-3.329,-3.4245,-3.5067,-3.5519,-3.5519,-3.5519,-3.5519,-3.5519,-3.5519,-3.5001,-3.3979,-3.4211,-3.3325,-3.1499,-3.2629,-3.2522,-3.1499,-3.2272,-3.2164,-3.1462,-3.1278,-3.0857,-3.0292,-3.006,-2.988,-2.988,-3.0633,-3.111,-3.1486,-3.2164,-3.2692,-3.3111,-3.3111,-3.3111,-3.3162,-3.3345,-3.4022,-3.4851,-3.5483,-3.6006,-3.6405,-3.6405,-3.6405,-3.643,-3.6531,-3.686,-3.7362,-3.804,-3.8542,-3.9044,-3.9597,-3.9697,-3.9697,-3.9697,-3.9697,-3.9697,-3.9697,-3.9697,-3.9697,-3.9697,-3.9697,-3.9697,-3.9697,-3.9697,-3.9697,-3.9697,-3.9697,-3.9697,-3.9697,-3.9697,-3.9697,-3.9697,-3.9697,-3.9697,-3.9697,-3.9697,-3.9697,-3.9697,-3.9697,-3.9697,-3.9697,-3.9798,-3.9848,-3.7255,-3.7404,-3.7404,-3.7404,-3.7345,-3.7135,-3.6507,0.0,-3.6178,-3.5519,0.0,-3.5519,-3.5519,0.0,0.0,-3.6353,-3.6006,-3.5847,-3.6508,-3.6538,-3.6477,-3.6477,-3.6394,-3.6115,-3.5419,-3.4509,-3.3945,-3.3842,-3.3842,-3.4279,-3.5294,-3.5424,-3.5519,-3.5519,-3.5519,-3.5519,-3.5519,-3.5519,-3.5001,-3.4013,-3.4905,-3.4308,-3.2486,-3.4341,-3.4143,-3.2451,-3.2558,-3.2522,-3.2379,-3.1536,-3.1646,-3.2173,-3.0984,-3.0231,-2.998,-3.1486,-3.1763,-3.1537,-3.2616,-3.3018,-3.3111,-3.3111,-3.3111,-3.3269,-3.4248,-3.4625,-3.4926,-3.5981,-3.6355,-3.6405,-3.6405,-3.6405,-3.6531,-3.6985,-3.7136,-3.7487,-3.8592,-3.8818,-3.9044,-3.9597,-3.9697,-3.9697,-3.9697,-3.9697,-3.9697,-3.9697,-3.9697,-3.9697,-3.9697,-3.9697,-3.9697,-3.9697,-3.9697,-3.9697,-3.9697,-3.9697,-3.9697,-3.9697,-3.9697,-3.9697,-3.9697,-3.9697,-3.9697,-3.9697,-3.9697,-3.9697,-3.9697,-3.9697,-3.9697,-3.9697,-4.0199,-4.0425,-3.8392,-3.8272,-3.8063,-3.8482,-3.8003,-3.7434,-3.7554,-3.7285,-3.6836,-3.6207,0.0,0.0,0.0,0.0,0.0,0.0,-3.5686,-3.575,-3.6508,-3.6228,-3.5943,-3.5943,-3.6723,0.0,-3.6196,-3.4817,-3.4245,-3.4839,-3.4312,-3.4442,-3.5424,-3.5519,-3.5519,-3.5519,-3.5519,-3.5519,-3.5519,-3.5519,-3.5294,-3.4872,-3.5294,-3.4773,-3.3463,-3.4839,-3.4739,-3.3463,-3.4041,-3.3973,-3.3394,-3.2982,-3.2957,-3.3137,-3.2912,-3.2081,-3.1177,-3.1918,-3.2064,-3.1989,-3.2792,-3.3111,-3.3111,-3.3111,-3.3294,-3.3696,-3.4474,-3.4906,-3.5353,-3.6179,-3.6405,-3.6405,-3.6405,-3.6405,-3.6455,-3.6707,-3.7186,-3.7789,-3.8266,-3.8894,-3.9421,-3.9647,-3.9697,-3.9697,-3.9697,-3.9697,-3.9697,-3.9697,-3.9697,-3.9697,-3.9697,-3.9697,-3.9697,-3.9697,-3.9697,-3.9697,-3.9697,-3.9697,-3.9697,-3.9697,-3.9697,-3.9848,-4.0149,-3.9873,-3.9998,-4.0651,-4.0325,-4.0325,-4.0651,-4.0651,-4.0651,-4.0651,-4.0551,-4.0701,-3.8901,-3.8781,-3.8542,-3.926,-3.8691,-3.8033,-3.8332,-3.8033,-3.7494,-3.6866,-3.6746,0.0,0.0,0.0,0.0,0.0,0.0,-3.5716,-3.6228,-3.6006,-3.5814,-3.5814,-3.66,0.0,0.0,-3.5142,-3.471,-3.5424,-3.4839,-3.4739,-3.5457,-3.5519,-3.5519,-3.5519,-3.5519,-3.5519,-3.5519,-3.5519,-3.5519,-3.5519,-3.5198,-3.4739,-3.4041,-3.4476,-3.4442,-3.4041,-3.4509,-3.4576,-3.4409,-3.4109,-3.4145,-3.442,-3.4685,-3.4213,-3.3273,-3.2987,-3.2775,-3.2682,-3.2995,-3.3111,-3.3111,-3.3111,-3.3445,-3.3997,-3.455,-3.5056,-3.5608,-3.6207,-3.6405,-3.6405,-3.6405,-3.6405,-3.6455,-3.6606,-3.7312,-3.804,-3.8216,-3.8994,-3.9697,-3.9697,-3.9697,-3.9697,-3.9697,-3.9697,-3.9697,-3.9697,-3.9697,-3.9697,-3.9697,-3.9697,-3.9697,-3.9697,-3.9697,-3.9697,-3.9697,-3.9697,-3.9747,-3.9898,-3.9923,-4.0174,-4.0727,-4.035,-4.0526,-4.1275,-4.0953,-4.0874,-4.1275,-4.1275,-4.1376,-4.1555,-4.1153,-4.1178,0.0,0.0,0.0,-3.926,0.0,0.0,0.0,0.0,-3.8182,0.0,0.0,0.0,0.0,0.0,0.0,0.0,0.0,0.0,0.0,-3.6134,-3.6538,-3.6538,-3.5975,-3.5554,0.0,-3.5457,-3.5457,0.0,-3.5457,-3.5457,-3.5519,-3.5519,-3.5519,-3.5519,-3.5519,-3.5519,-3.5519,-3.5519,-3.5519,-3.5519,-3.4509,-3.4013,-3.3979,-3.3087,-3.3157,-3.3945,-3.3052,-3.3734,-3.5359,-3.4409,-3.4956,-3.6369,-3.5996,-3.6179,-3.6465,-3.5117,-3.4254,-3.3697,-3.3225,-3.3111,-3.3111,-3.3111,-3.3445,-3.3997,-3.455,-3.5056,-3.5608,-3.6207,-3.6405,-3.6405,-3.6405,-3.6405,-3.6531,-3.7036,-3.7588,-3.8165,-3.8718,-3.9295,-3.9697,-3.9697,-3.9697,-3.9697,-3.9697,-3.9697,-3.9697,-3.9697,-3.9697,-3.9697,-3.9697,-3.9697,-3.9697,-3.9697,-3.9697,-3.9697,-3.9697,-3.9697,-3.9923,-4.045,-4.0501,-4.0727,-4.1225,-4.125,-4.125,-4.1275,-4.1275,-4.1275,-4.1275,-4.1275,-4.1605,-4.2187,-4.2162,-4.2162,0.0,0.0,-3.7375,-3.8482,0.0,0.0,0.0,0.0,0.0,0.0,0.0,0.0,0.0,0.0,0.0,0.0,0.0,0.0,0.0,-3.5686,-3.5878,-3.5878,-3.5651,-3.5686,-3.6165,0.0,0.0,0.0,-3.5519,0.0,-3.5519,-3.5519,-3.5519,-3.5519,-3.5519,-3.5519,-3.5519,-3.5519,-3.5519,-3.5519,-3.4476,-3.3979,-3.3979,-3.3671,-3.3705,-3.4013,-3.4375,-3.4509,-3.4543,-3.4872,-3.502,-3.5203,-3.6453,-3.7148,-3.7338,-3.6156,-3.5558,-3.5263,-3.4432,-3.4163,-3.4037,-3.3326,-3.3696,-3.4474,-3.463,-3.5353,-3.6132,-3.6355,-3.6405,-3.6405,-3.6405,-3.6405,-3.6455,-3.6631,-3.7061,-3.7613,-3.8165,-3.8743,-3.927,-3.9622,-3.9697,-3.9697,-3.9697,-3.9697,-3.9697,-3.9697,-3.9697,-3.9697,-3.9697,-3.9697,-3.9697,-3.9697,-3.9697,-3.9697,-3.9697,-4.0023,-4.0325,-4.0501,-4.0799,-4.1304,-4.1856,-4.153,-4.1626,-4.2409,-4.2057,-4.2057,-4.2434,-4.2434,-4.2509,-4.2766,-4.2766,-4.2766,-3.7015,-3.6776,0.0,-3.7793,-3.7461,0.0,-3.8214,0.0,-3.8457,0.0,0.0,0.0,0.0,0.0,0.0,0.0,0.0,0.0,0.0,-3.5519,-3.5519,-3.5519,-3.5519,-3.5716,-3.6165,-3.5782,0.0,0.0,0.0,0.0,0.0,0.0,-3.5519,-3.5519,-3.5519,-3.5519,-3.5519,-3.5519,-3.5519,-3.5519,-3.4476,-3.3979,-3.3979,-3.3671,-3.3671,-3.4013,-3.4341,-3.4308,-3.4041,-3.454,-3.4611,-3.4566,-3.646,-3.7434,-3.7701,-3.7021,-3.6526,-3.6053,-3.5061,-3.4718,-3.4511,-3.3428,-3.3822,-3.468,-3.468,-3.5504,-3.6405,-3.6405,-3.6405,-3.6405,-3.6405,-3.6405,-3.6455,-3.6656,-3.6935,-3.7387,-3.814,-3.8617,-3.9044,-3.9597,-3.9697,-3.9697,-3.9697,-3.9697,-3.9697,-3.9697,-3.9697,-3.9697,-3.9697,-3.9697,-3.9697,-3.9697,-3.9697,-3.9697,-3.9697,-4.0199,-4.0601,-4.0802,-4.1329,-4.1882,-4.2489,-4.2108,-4.2333,-4.3263,-4.2791,-4.2766,-4.3263,-4.3062,-4.2986,-4.2986,-4.3187,-4.3263]},{"header":{"parameterUnit":"m.s-1","parameterCategory":1,"la1":30.6,"la2":29.2853,"lo1":-89.7004,"lo2":-87.6739,"dy":0.0162,"dx":0.0183,"nx":112,"ny":82,"refTime":"2024-03-14T06:00:00:Z","depth":0,"parameterNumber":3,"parameterNumberName":"V-component_of_WINDS"},"data":[0.0,0.0,0.0,0.0,0.0,0.0,0.0,0.0,0.0,0.0,0.0,0.0,0.0,0.0,0.0,0.0,0.0,0.0,0.0,0.0,0.0,0.0,0.0,0.0,0.0,0.0,0.0,0.0,0.0,0.0,0.0,0.0,0.0,0.0,0.0,0.0,0.0,0.0,0.0,0.0,0.0,0.0,0.0,0.0,0.0,0.0,0.0,0.0,0.0,0.0,0.0,0.0,0.0,0.0,0.0,0.0,0.0,0.0,0.0,0.0,0.0,0.0,0.0,0.0,0.0,0.0,0.0,0.0,0.0,0.0,0.0,0.0,0.0,0.0,0.0,0.0,0.0,0.0,0.0,0.0,0.0,0.0,0.0,0.0,0.0,0.0,0.0,0.0,0.0,0.0,3.5301,3.8387,4.3789,4.7189,4.7309,4.7549,4.5364,3.9918,0.0,0.0,0.0,0.0,0.0,0.0,0.0,0.0,0.0,0.0,0.0,0.0,0.0,0.0,0.0,0.0,0.0,0.0,0.0,0.0,0.0,0.0,0.0,0.0,0.0,0.0,0.0,0.0,0.0,0.0,0.0,0.0,0.0,0.0,0.0,0.0,0.0,0.0,0.0,0.0,0.0,0.0,0.0,0.0,0.0,0.0,0.0,0.0,0.0,0.0,0.0,0.0,0.0,0.0,0.0,0.0,0.0,0.0,0.0,0.0,0.0,0.0,0.0,0.0,0.0,0.0,0.0,0.0,0.0,0.0,0.0,0.0,0.0,0.0,0.0,0.0,0.0,0.0,0.0,0.0,0.0,0.0,0.0,0.0,0.0,0.0,0.0,0.0,0.0,0.0,0.0,0.0,0.0,0.0,0.0,0.0,0.0,0.0,0.0,0.0,0.0,0.0,0.0,0.0,3.6834,4.2651,4.5198,4.6711,4.7249,4.5843,4.3569,4.0457,0.0,0.0,0.0,0.0,0.0,0.0,0.0,0.0,0.0,0.0,0.0,0.0,0.0,0.0,0.0,0.0,0.0,0.0,0.0,0.0,0.0,0.0,0.0,0.0,0.0,0.0,0.0,0.0,0.0,0.0,0.0,0.0,0.0,0.0,0.0,0.0,0.0,0.0,0.0,0.0,0.0,0.0,0.0,0.0,0.0,0.0,0.0,0.0,0.0,0.0,0.0,0.0,0.0,0.0,0.0,0.0,0.0,0.0,0.0,0.0,0.0,0.0,0.0,0.0,0.0,0.0,0.0,0.0,0.0,0.0,0.0,0.0,0.0,0.0,0.0,0.0,0.0,0.0,0.0,0.0,0.0,0.0,0.0,0.0,0.0,0.0,0.0,0.0,0.0,0.0,0.0,0.0,0.0,0.0,0.0,0.0,0.0,0.0,0.0,0.0,0.0,0.0,0.0,3.6047,3.944,4.4344,4.6052,4.698,4.7279,4.5783,4.3419,4.0068,3.92,0.0,0.0,0.0,0.0,0.0,0.0,0.0,0.0,0.0,0.0,0.0,0.0,0.0,0.0,0.0,0.0,0.0,0.0,0.0,0.0,0.0,0.0,0.0,0.0,0.0,0.0,0.0,0.0,0.0,0.0,0.0,0.0,0.0,0.0,0.0,0.0,0.0,0.0,0.0,0.0,0.0,0.0,0.0,0.0,0.0,0.0,0.0,0.0,0.0,0.0,0.0,0.0,0.0,0.0,0.0,0.0,0.0,0.0,0.0,0.0,0.0,0.0,0.0,0.0,0.0,0.0,0.0,0.0,0.0,0.0,0.0,0.0,0.0,0.0,0.0,0.0,0.0,0.0,0.0,0.0,0.0,0.0,0.0,0.0,0.0,0.0,0.0,0.0,0.0,0.0,0.0,0.0,0.0,0.0,0.0,0.0,0.0,0.0,0.0,0.0,0.0,0.0,3.9121,4.1134,4.4684,4.6262,4.701,4.683,4.5304,4.297,3.9619,3.7584,0.0,0.0,0.0,0.0,0.0,0.0,0.0,0.0,0.0,0.0,0.0,0.0,0.0,0.0,0.0,0.0,0.0,0.0,0.0,0.0,0.0,0.0,0.0,0.0,0.0,0.0,0.0,0.0,0.0,0.0,0.0,0.0,0.0,0.0,0.0,0.0,0.0,0.0,0.0,0.0,0.0,0.0,0.0,0.0,0.0,0.0,0.0,0.0,0.0,0.0,0.0,0.0,0.0,0.0,0.0,0.0,0.0,0.0,0.0,0.0,0.0,0.0,0.0,0.0,0.0,0.0,0.0,0.0,0.0,0.0,0.0,0.0,0.0,0.0,0.0,0.0,0.0,0.0,0.0,0.0,0.0,0.0,0.0,0.0,0.0,0.0,0.0,0.0,0.0,0.0,0.0,0.0,0.0,0.0,0.0,0.0,0.0,0.0,0.0,0.0,0.0,0.0,3.863,4.0422,4.3986,4.5603,4.6142,4.5484,4.312,4.1025,3.9529,3.5878,0.0,0.0,0.0,0.0,0.0,0.0,0.0,0.0,0.0,0.0,0.0,0.0,0.0,0.0,0.0,0.0,0.0,0.0,0.0,0.0,0.0,0.0,0.0,0.0,0.0,0.0,0.0,0.0,0.0,0.0,0.0,0.0,0.0,0.0,0.0,0.0,0.0,0.0,0.0,0.0,0.0,0.0,0.0,0.0,0.0,0.0,0.0,0.0,0.0,0.0,0.0,0.0,0.0,0.0,0.0,0.0,0.0,0.0,0.0,0.0,0.0,0.0,0.0,0.0,0.0,0.0,0.0,0.0,0.0,0.0,0.0,0.0,0.0,0.0,0.0,0.0,0.0,0.0,0.0,0.0,0.0,0.0,0.0,0.0,0.0,0.0,0.0,0.0,0.0,0.0,0.0,0.0,0.0,0.0,0.0,0.0,0.0,0.0,0.0,0.0,0.0,0.0,3.9103,4.1041,4.3977,4.5125,4.5574,4.5304,4.3309,4.1265,3.9493,0.0,0.0,0.0,0.0,0.0,0.0,0.0,0.0,0.0,0.0,0.0,0.0,0.0,0.0,0.0,0.0,0.0,0.0,0.0,0.0,0.0,0.0,0.0,0.0,0.0,0.0,0.0,0.0,0.0,0.0,0.0,0.0,0.0,0.0,0.0,0.0,0.0,0.0,0.0,0.0,0.0,0.0,0.0,0.0,0.0,0.0,0.0,0.0,0.0,0.0,0.0,0.0,0.0,0.0,0.0,0.0,0.0,0.0,0.0,0.0,0.0,0.0,0.0,0.0,0.0,0.0,0.0,0.0,0.0,0.0,0.0,0.0,0.0,0.0,0.0,0.0,0.0,0.0,0.0,0.0,0.0,0.0,0.0,0.0,0.0,0.0,0.0,0.0,0.0,0.0,0.0,0.0,0.0,0.0,0.0,0.0,0.0,0.0,0.0,0.0,0.0,0.0,3.8084,3.958,4.1324,4.3748,4.5021,4.5495,4.486,4.3039,4.1224,3.9602,0.0,0.0,0.0,0.0,0.0,0.0,0.0,0.0,0.0,0.0,0.0,0.0,0.0,0.0,0.0,0.0,0.0,0.0,0.0,0.0,0.0,0.0,0.0,0.0,0.0,0.0,0.0,0.0,0.0,0.0,0.0,0.0,0.0,0.0,0.0,0.0,0.0,0.0,0.0,0.0,0.0,0.0,0.0,0.0,0.0,0.0,0.0,0.0,0.0,0.0,0.0,0.0,0.0,0.0,0.0,0.0,0.0,0.0,0.0,0.0,0.0,0.0,0.0,0.0,0.0,0.0,0.0,0.0,0.0,0.0,0.0,0.0,0.0,0.0,0.0,0.0,0.0,0.0,0.0,0.0,0.0,0.0,0.0,0.0,0.0,0.0,0.0,0.0,0.0,0.0,0.0,0.0,0.0,0.0,0.0,0.0,0.0,0.0,0.0,0.0,0.0,0.0,3.908,3.9978,4.1145,4.312,4.5327,4.5882,4.3871,4.2062,4.0642,0.0,0.0,0.0,0.0,0.0,0.0,0.0,0.0,0.0,0.0,0.0,0.0,0.0,0.0,0.0,0.0,0.0,0.0,0.0,0.0,0.0,0.0,0.0,0.0,0.0,0.0,0.0,0.0,0.0,0.0,0.0,0.0,0.0,0.0,0.0,0.0,0.0,0.0,0.0,0.0,0.0,0.0,0.0,0.0,0.0,0.0,0.0,0.0,0.0,0.0,0.0,0.0,0.0,0.0,0.0,0.0,0.0,0.0,0.0,0.0,0.0,0.0,0.0,0.0,0.0,0.0,0.0,0.0,0.0,0.0,0.0,0.0,0.0,0.0,0.0,0.0,0.0,0.0,0.0,0.0,0.0,0.0,0.0,0.0,0.0,0.0,0.0,0.0,0.0,0.0,0.0,0.0,0.0,0.0,0.0,0.0,0.0,0.0,0.0,0.0,0.0,0.0,0.0,3.9975,4.0566,4.1891,4.5023,4.5945,4.59,4.4756,4.2872,4.1374,4.0578,0.0,0.0,0.0,0.0,0.0,0.0,0.0,0.0,0.0,0.0,0.0,0.0,0.0,0.0,0.0,0.0,0.0,0.0,0.0,0.0,0.0,0.0,0.0,0.0,0.0,0.0,0.0,0.0,0.0,0.0,0.0,0.0,0.0,0.0,0.0,0.0,0.0,0.0,0.0,0.0,0.0,0.0,0.0,0.0,0.0,0.0,0.0,0.0,0.0,0.0,0.0,0.0,0.0,0.0,0.0,0.0,0.0,0.0,0.0,0.0,0.0,0.0,0.0,0.0,0.0,0.0,0.0,0.0,0.0,0.0,0.0,0.0,0.0,0.0,0.0,0.0,0.0,0.0,0.0,0.0,0.0,0.0,0.0,0.0,0.0,0.0,0.0,0.0,0.0,0.0,0.0,0.0,0.0,0.0,0.0,0.0,0.0,0.0,0.0,0.0,0.0,0.0,3.998,4.0908,4.241,4.5432,4.6362,4.6342,4.5303,4.3876,4.2307,4.0675,0.0,0.0,0.0,0.0,0.0,0.0,0.0,0.0,0.0,0.0,0.0,0.0,0.0,0.0,0.0,0.0,0.0,0.0,0.0,0.0,0.0,0.0,0.0,0.0,0.0,0.0,0.0,0.0,0.0,0.0,0.0,0.0,0.0,0.0,0.0,0.0,0.0,0.0,0.0,0.0,0.0,0.0,0.0,0.0,0.0,0.0,0.0,0.0,0.0,0.0,0.0,0.0,0.0,0.0,0.0,0.0,0.0,0.0,0.0,0.0,0.0,0.0,0.0,0.0,0.0,0.0,0.0,0.0,0.0,0.0,0.0,0.0,0.0,0.0,0.0,0.0,0.0,0.0,0.0,0.0,0.0,0.0,0.0,0.0,0.0,0.0,0.0,0.0,0.0,0.0,0.0,0.0,0.0,0.0,0.0,0.0,0.0,0.0,0.0,0.0,0.0,0.0,3.9553,4.1118,4.288,4.5034,4.6617,4.6977,4.5658,4.4959,4.339,4.0553,0.0,0.0,0.0,0.0,0.0,0.0,0.0,0.0,0.0,0.0,0.0,0.0,0.0,0.0,0.0,0.0,0.0,0.0,0.0,0.0,0.0,0.0,0.0,0.0,0.0,0.0,0.0,0.0,0.0,0.0,0.0,0.0,0.0,0.0,0.0,0.0,0.0,0.0,0.0,0.0,0.0,0.0,0.0,0.0,0.0,0.0,0.0,0.0,0.0,0.0,0.0,0.0,0.0,0.0,0.0,0.0,0.0,0.0,0.0,0.0,4.2952,0.0,0.0,0.0,0.0,0.0,0.0,0.0,0.0,0.0,0.0,0.0,0.0,0.0,0.0,0.0,0.0,0.0,0.0,0.0,0.0,0.0,0.0,0.0,0.0,0.0,0.0,0.0,0.0,0.0,0.0,0.0,0.0,0.0,0.0,0.0,0.0,0.0,0.0,0.0,0.0,0.0,4.0419,4.164,4.3317,4.6149,4.6764,4.6821,4.6548,4.5346,4.4057,4.2778,4.0292,0.0,0.0,0.0,0.0,0.0,0.0,0.0,0.0,0.0,0.0,0.0,0.0,0.0,0.0,0.0,0.0,0.0,0.0,0.0,0.0,0.0,0.0,0.0,0.0,0.0,0.0,0.0,0.0,0.0,0.0,0.0,0.0,0.0,0.0,0.0,0.0,0.0,0.0,0.0,0.0,0.0,0.0,0.0,0.0,0.0,0.0,0.0,0.0,0.0,0.0,0.0,0.0,0.0,0.0,0.0,0.0,0.0,0.0,0.0,0.0,4.421,0.0,0.0,0.0,0.0,0.0,0.0,0.0,0.0,0.0,0.0,0.0,0.0,0.0,0.0,0.0,0.0,0.0,0.0,0.0,0.0,0.0,0.0,0.0,0.0,0.0,0.0,0.0,0.0,0.0,0.0,0.0,0.0,0.0,0.0,0.0,0.0,0.0,0.0,0.0,0.0,4.0826,4.2117,4.3719,4.6046,4.6583,4.665,4.6312,4.5229,4.3944,4.2455,4.0527,0.0,0.0,0.0,0.0,0.0,0.0,0.0,0.0,0.0,0.0,0.0,0.0,0.0,0.0,0.0,0.0,0.0,0.0,0.0,0.0,0.0,0.0,0.0,0.0,0.0,0.0,0.0,0.0,0.0,0.0,0.0,0.0,0.0,0.0,0.0,0.0,0.0,0.0,0.0,0.0,0.0,0.0,0.0,0.0,0.0,0.0,0.0,0.0,0.0,0.0,0.0,0.0,0.0,5.3175,5.4035,5.5175,5.5175,5.4532,5.3315,5.0265,4.7826,4.607,4.7004,0.0,0.0,0.0,0.0,0.0,0.0,0.0,0.0,0.0,0.0,0.0,0.0,0.0,0.0,0.0,0.0,0.0,0.0,0.0,0.0,0.0,0.0,0.0,0.0,4.3652,4.3597,3.9801,0.0,0.0,0.0,0.0,0.0,0.0,0.0,0.0,0.0,0.0,0.0,4.056,4.2189,4.3775,4.5162,4.5974,4.621,4.5737,4.5026,4.3802,4.1914,4.0832,3.9774,0.0,0.0,0.0,0.0,0.0,0.0,0.0,0.0,0.0,0.0,0.0,0.0,0.0,0.0,0.0,0.0,0.0,0.0,0.0,0.0,0.0,0.0,0.0,0.0,0.0,0.0,0.0,0.0,0.0,0.0,0.0,0.0,4.2158,4.3626,0.0,0.0,0.0,0.0,0.0,0.0,0.0,0.0,0.0,0.0,0.0,0.0,0.0,5.2013,5.3371,5.5539,5.614,5.5237,5.78,5.8481,5.7442,5.7442,5.7712,5.8014,5.6277,0.0,4.9117,4.8031,0.0,0.0,0.0,0.0,0.0,0.0,0.0,0.0,0.0,0.0,0.0,0.0,0.0,0.0,0.0,0.0,0.0,0.0,0.0,0.0,0.0,0.0,4.4951,4.444,4.4457,4.4423,0.0,4.2309,4.0799,3.9944,3.8371,0.0,0.0,0.0,0.0,0.0,0.0,0.0,3.9144,4.1084,4.276,4.3612,4.4418,4.5122,4.5669,4.5026,4.4479,4.4175,4.2185,4.0967,4.0764,3.8836,0.0,0.0,0.0,0.0,0.0,0.0,0.0,0.0,0.0,0.0,0.0,0.0,0.0,0.0,0.0,0.0,0.0,0.0,0.0,0.0,0.0,0.0,0.0,0.0,0.0,0.0,0.0,0.0,0.0,4.1558,4.3609,4.2761,4.3853,4.4295,0.0,0.0,0.0,0.0,0.0,0.0,0.0,0.0,0.0,5.28,5.4479,5.5853,5.6925,5.8407,5.9235,5.9471,6.0791,6.1028,6.0419,6.0419,6.0114,5.9573,5.893,5.7257,5.4778,5.2468,4.9592,4.6582,0.0,0.0,0.0,0.0,4.4655,4.5277,4.5636,4.5897,4.582,4.439,0.0,0.0,0.0,0.0,0.0,0.0,0.0,0.0,0.0,0.0,4.6346,4.6447,4.6786,4.6955,4.6549,4.5033,4.326,0.0,4.0845,4.0023,3.866,0.0,0.0,0.0,0.0,3.8745,4.0034,4.1425,4.2591,4.3308,4.4113,4.475,4.5026,4.4818,4.4242,4.3362,4.1982,4.0832,3.9986,3.9039,3.8633,0.0,0.0,0.0,0.0,0.0,0.0,0.0,0.0,0.0,0.0,0.0,0.0,0.0,0.0,0.0,0.0,0.0,0.0,0.0,0.0,0.0,0.0,0.0,0.0,0.0,0.0,0.0,0.0,4.3516,4.5279,4.2803,4.5568,4.6911,0.0,0.0,0.0,0.0,0.0,0.0,5.217,5.3526,5.5222,5.7381,5.8661,5.9674,6.0452,6.0994,6.1839,6.2956,6.2956,6.2956,6.2956,6.2753,6.2076,6.096,6.0588,5.9979,5.9066,5.6089,5.2639,4.9161,4.8729,4.7309,4.5538,4.6189,4.7144,4.8097,4.8597,4.8987,4.8889,4.6684,4.5697,4.4754,4.0972,0.0,0.0,0.0,0.0,4.2894,4.5356,4.6515,4.7259,4.8037,4.8612,4.8815,4.8041,4.6887,4.5365,0.0,4.2726,4.1897,3.9847,0.0,0.0,0.0,3.8645,3.8928,4.0417,4.1441,4.2219,4.2794,4.3538,4.4107,4.4282,4.4141,4.3599,4.2625,4.1711,4.0696,3.9614,3.9208,3.8836,3.8464,0.0,0.0,0.0,0.0,0.0,0.0,0.0,0.0,0.0,0.0,0.0,0.0,0.0,0.0,0.0,0.0,0.0,0.0,0.0,0.0,0.0,0.0,0.0,0.0,0.0,0.0,0.0,0.0,0.0,4.5749,5.0483,0.0,0.0,0.0,0.0,5.2759,5.4184,5.6312,5.9422,5.9667,6.0714,6.3012,6.3153,6.3599,6.4309,6.4377,6.441,6.4478,6.4478,6.4478,6.4478,6.3768,6.3429,6.326,6.1839,6.0791,5.981,5.6867,5.4667,5.3045,5.1592,5.0107,4.8827,4.9569,4.9466,4.8923,4.899,4.8108,4.7293,4.919,4.8886,4.7432,4.5819,4.4806,0.0,0.0,4.4902,4.5645,4.6515,4.7293,4.8007,4.8781,4.8984,4.8815,4.8041,4.7293,4.6278,0.0,4.2219,4.0434,4.0983,0.0,3.8956,3.8989,3.9555,3.9758,3.9174,4.0358,4.1271,4.1305,4.1982,4.2692,4.3375,4.2828,4.2692,4.3308,4.2016,4.117,4.1102,3.9749,3.9309,3.9977,3.8633,0.0,0.0,0.0,0.0,0.0,0.0,0.0,0.0,0.0,0.0,0.0,0.0,0.0,0.0,0.0,0.0,0.0,0.0,0.0,0.0,0.0,0.0,0.0,0.0,0.0,0.0,0.0,0.0,4.9751,5.4301,0.0,5.4513,5.5247,5.6365,5.7607,5.9055,6.0819,6.2888,6.3429,6.4512,6.6271,6.5899,6.6,6.6711,6.6271,6.6034,6.6034,6.5527,6.5053,6.458,6.3835,6.299,6.2076,6.1535,6.0858,5.9945,5.7949,5.5953,5.4093,5.3078,5.1758,5.0473,5.071,5.0947,5.1116,5.1116,5.0777,5.0168,4.9052,4.7361,4.5669,4.5128,4.4818,4.4818,4.5766,4.621,4.6684,4.7902,4.8409,4.868,4.8951,4.8646,4.824,4.7939,4.6955,4.594,4.5399,4.3639,4.1989,4.1339,4.0358,3.9706,3.9706,3.9537,3.9445,3.9673,4.0561,4.1204,4.1204,4.1847,4.2388,4.2658,4.2455,4.2219,4.2016,4.1508,4.1001,4.0493,4.0011,3.9605,3.9377,3.8396,3.8261,0.0,0.0,0.0,0.0,0.0,0.0,0.0,0.0,0.0,0.0,0.0,0.0,0.0,0.0,0.0,0.0,0.0,0.0,0.0,0.0,0.0,0.0,0.0,0.0,0.0,4.9486,5.3298,5.3415,5.8165,6.0816,5.9358,6.0338,6.1415,6.2308,6.3531,6.4918,6.6406,6.6948,6.7658,6.8639,6.8199,6.7929,6.7895,6.7421,6.6914,6.644,6.5662,6.4952,6.4208,6.3226,6.2245,6.1264,6.0757,6.0216,5.9607,5.8152,5.6528,5.4905,5.416,5.3112,5.1995,5.1995,5.23,5.2638,5.2131,5.1928,5.1522,4.9086,4.7293,4.6075,4.6075,4.6075,4.6278,4.7259,4.753,4.7767,4.8748,4.8815,4.8646,4.8646,4.8071,4.7462,4.7225,4.6413,4.5635,4.5365,4.4282,4.3071,4.2117,4.1339,4.0857,4.0857,4.0189,3.9986,4.0756,4.0832,4.0933,4.117,4.1644,4.1914,4.1914,4.1914,4.1711,4.1238,4.073,4.0223,3.9774,3.974,3.9503,3.9005,3.8294,3.8024,3.8285,0.0,0.0,0.0,0.0,0.0,0.0,0.0,0.0,0.0,0.0,0.0,0.0,0.0,0.0,0.0,0.0,0.0,0.0,0.0,0.0,0.0,0.0,0.0,4.7512,5.2847,5.6719,5.6774,6.2139,6.4952,6.2854,6.458,6.617,6.688,6.759,6.8639,7.0128,7.0229,7.0229,7.0229,7.0195,6.9451,6.7963,6.7895,6.7151,6.5662,6.4952,6.4208,6.3429,6.1975,6.1264,6.1129,5.9674,5.8998,5.8829,5.7374,5.6325,5.5615,5.4871,5.416,5.3518,5.3518,5.3484,5.3247,5.1758,5.1185,5.0947,4.9492,4.9018,4.9018,4.9018,4.9018,4.9018,4.9018,4.9018,4.9018,4.9018,4.8477,4.7906,4.7906,4.7327,4.6549,4.5838,4.5703,4.5466,4.475,4.3978,4.3409,4.3375,4.2828,4.232,4.2286,4.1677,0.0,4.2185,4.106,4.0451,4.117,4.1238,4.1238,4.1204,4.1204,4.117,4.1136,3.9783,3.8971,3.8971,3.8971,3.8937,3.8937,3.8261,3.755,3.6829,0.0,0.0,0.0,0.0,0.0,0.0,0.0,0.0,0.0,0.0,0.0,0.0,0.0,0.0,0.0,0.0,0.0,0.0,0.0,0.0,0.0,4.8784,5.1451,5.1648,5.5996,6.0146,6.2872,6.6146,6.8132,6.8064,6.9079,6.962,6.9282,6.9958,7.0567,7.0973,7.1007,7.1007,7.1007,6.9958,6.9214,6.8774,6.7658,6.6643,6.5662,6.4952,6.3937,6.2651,6.1738,6.0689,5.9607,5.9201,5.8389,5.734,5.6393,5.5581,5.4871,5.4668,5.416,5.3518,5.3518,5.3145,5.257,5.2131,5.1285,5.0338,4.9932,4.9424,4.9018,4.9018,4.9018,4.9018,4.9018,4.9018,4.9018,4.9018,4.8477,4.7906,4.7906,4.6955,4.594,4.5737,4.5263,4.4852,4.4649,4.4445,4.4079,4.3477,4.3234,4.2929,4.2388,4.2117,0.0,4.2252,4.1948,4.1745,4.1982,4.1982,4.1779,4.1238,4.1204,4.073,3.9681,3.9208,3.8768,3.8227,3.8193,3.7956,3.7438,3.7719,3.7821,0.0,0.0,0.0,0.0,0.0,0.0,0.0,0.0,0.0,0.0,0.0,0.0,0.0,0.0,0.0,0.0,0.0,0.0,0.0,0.0,0.0,0.0,5.202,5.5372,5.7277,6.0117,6.3125,6.6237,6.8368,6.9857,7.0601,7.1075,7.1142,7.0703,7.1075,7.1312,7.1312,7.1312,7.1312,7.1312,7.0466,6.9722,6.9113,6.7895,6.6576,6.5222,6.4174,6.3057,6.1907,6.0825,5.9877,5.8998,5.8355,5.7611,5.6731,5.5683,5.5006,0.0,0.0,0.0,0.0,0.0,5.2976,5.2266,5.1961,5.1082,5.0033,4.9729,4.9357,4.9018,4.9018,4.9018,4.9018,4.9018,4.9018,4.8951,4.8612,4.8003,4.7361,4.7027,4.6109,4.5229,4.5229,4.4919,4.4615,4.4615,4.4615,0.0,4.3978,4.391,4.3741,4.3335,4.2963,4.2861,4.3227,4.2422,4.1948,4.2252,4.2016,4.1542,4.0798,4.1035,0.0,0.0,0.0,3.8193,3.7449,3.7449,0.0,0.0,0.0,3.7922,3.7922,0.0,0.0,0.0,3.9334,3.9512,0.0,0.0,0.0,0.0,0.0,0.0,0.0,0.0,0.0,0.0,0.0,0.0,0.0,0.0,0.0,0.0,5.4945,5.8652,6.3242,6.4613,6.5831,6.7793,6.9316,7.0466,7.1244,7.1312,7.1312,7.1312,7.1312,7.1312,7.1312,7.1312,0.0,0.0,0.0,7.0534,6.9113,6.8233,6.6711,6.458,6.3091,6.1975,6.1129,5.9674,5.8964,5.8829,5.7408,5.6765,5.6562,5.5175,5.4532,5.4397,5.3754,5.3518,5.3484,5.3416,5.2875,5.2063,5.1352,0.0,0.0,4.912,4.8951,4.8984,4.8917,4.8951,4.8984,4.8917,4.8883,4.8714,4.797,4.7225,4.6515,4.5872,4.5128,4.4615,4.4615,4.4615,4.4615,4.4615,4.4615,4.4615,4.4615,4.4615,4.4615,4.4615,4.3978,4.3775,4.4378,4.2692,4.1677,4.2219,0.0,0.0,4.0282,4.0832,4.0832,4.0045,3.8667,3.7618,3.6965,3.6931,3.7212,3.7889,3.7922,3.7956,3.8024,3.8024,3.8396,3.914,3.9706,3.9673,0.0,0.0,0.0,0.0,0.0,0.0,0.0,0.0,0.0,0.0,0.0,0.0,0.0,0.0,0.0,5.4969,5.803,6.131,6.5564,6.7354,6.8402,6.8808,6.9654,7.0466,7.1244,7.1312,7.1312,7.1312,7.1312,7.1312,7.1312,7.1312,7.1312,7.1312,7.0737,6.9992,6.9113,6.7726,6.6203,6.458,0.0,0.0,6.0317,5.9404,5.8693,5.8051,5.7171,5.6461,5.5852,5.4972,5.4262,5.3687,5.3551,5.3518,5.3416,5.2773,5.2063,5.1319,5.0574,4.983,4.9086,4.8376,4.8545,4.8883,4.8308,4.8545,0.0,4.8277,4.8108,4.797,4.7192,4.6481,4.5872,4.5737,4.5128,4.4615,4.4615,4.4615,4.4615,4.4615,4.4615,4.4615,4.4615,4.4615,4.4615,4.4615,4.4479,4.4181,4.3707,4.3267,4.2794,4.2354,4.2151,4.1779,4.1035,4.1136,4.0629,3.9276,3.8396,3.7855,3.7686,3.7686,3.7753,3.7922,3.7922,3.8193,3.8768,3.8768,3.9174,3.9876,3.9436,3.9469,0.0,0.0,0.0,0.0,0.0,0.0,0.0,0.0,0.0,0.0,0.0,4.7211,4.9313,0.0,5.3689,5.7149,5.9675,6.2395,6.5913,6.7691,6.8841,6.9532,7.0297,7.0906,7.1278,7.1312,7.1312,7.1312,7.1312,7.1312,7.1312,7.1312,7.1312,7.1312,7.0567,6.9857,6.9113,6.7184,6.5696,6.458,6.2719,6.1231,6.008,5.9336,5.8389,5.7306,5.6562,5.5852,5.5108,5.4363,5.3822,5.3518,5.3518,5.3247,5.2807,5.2029,5.1285,5.0608,5.0236,4.9627,4.8951,4.8578,4.8477,4.8477,4.8477,4.8206,4.7902,4.7872,4.7631,4.7192,4.6447,4.5974,4.5602,4.5229,4.4886,4.4615,4.4615,4.4615,4.4615,4.4615,4.4615,4.4615,4.4615,4.4615,4.4615,4.4615,4.4615,4.4479,4.4045,4.3335,4.2726,4.232,4.1636,4.106,4.0663,4.0629,4.0189,3.9073,3.8633,3.8294,3.7922,3.7922,3.8058,3.843,3.8464,3.8802,3.9571,3.9571,3.974,4.0079,3.974,3.9774,0.0,0.0,0.0,0.0,0.0,0.0,0.0,4.2874,4.4073,4.7702,4.9121,5.0582,5.3592,5.4742,5.6263,5.9343,6.0831,6.2604,6.5596,6.7028,6.821,6.9637,7.0704,7.1312,7.1312,7.1312,7.1312,7.1312,7.1312,7.1312,7.1312,7.1312,7.1244,7.1109,7.05,6.9755,6.8876,6.6745,6.5324,6.458,6.2212,6.0723,6.008,5.9201,5.8084,5.6765,5.5886,5.5074,5.4329,5.3754,5.3518,5.3484,5.3348,5.2773,5.2029,5.142,5.0744,5.0067,4.9932,4.9492,4.8984,4.8849,4.8376,4.7973,4.8443,4.7733,4.6887,4.7361,4.7056,4.6413,4.5669,4.55,4.5331,4.475,4.4615,4.4615,4.4615,4.4615,4.4615,4.4615,4.4615,4.4615,4.4615,4.4615,4.4615,4.4615,4.4615,4.4547,4.4412,4.3267,4.2388,4.2117,4.1001,4.0282,4.0113,4.0113,3.9842,3.9242,3.9208,3.8937,3.8362,3.8328,3.8599,3.9174,3.9208,3.9537,4.0113,4.0113,4.0113,4.0113,4.0113,4.0113,4.0516,4.0076,4.036,4.2363,4.2366,4.3686,0.0,5.0994,5.0953,5.4054,5.581,5.7089,5.8103,5.7683,5.8522,6.2505,6.1982,6.2261,6.5628,6.6195,6.679,6.8163,7.0092,7.1312,7.1312,7.1312,7.1312,7.1312,7.1312,7.1312,7.1312,7.1312,7.1007,7.0331,7.0229,6.9485,6.8064,6.6474,6.5324,6.4546,6.1637,6.0182,6.0047,5.866,5.7577,5.6731,5.531,5.4296,5.3619,5.3551,5.3518,5.345,5.2706,5.1995,5.1319,5.1219,5.0744,4.9999,4.9357,4.9086,4.8883,4.824,4.7973,4.777,4.7225,4.6921,4.6684,4.6109,4.5906,4.5635,4.4891,4.4716,4.4716,4.4615,4.4615,4.4615,4.4615,4.4615,4.4615,4.4615,4.4615,4.4615,4.4615,4.4615,4.4615,4.4615,4.4615,4.4316,4.3639,4.3375,4.2794,4.1474,4.117,4.0798,4.018,4.0113,4.0079,3.9977,3.9977,3.9943,3.9876,3.9876,3.991,3.9977,3.9977,4.0011,4.0113,4.0113,4.0113,4.0113,4.0113,4.0113,4.1265,4.1528,4.2403,4.358,4.4918,4.7177,5.1764,5.3011,5.4018,5.6998,5.9167,6.0531,6.0498,6.025,6.0482,6.1837,6.1464,6.1982,6.456,6.4957,6.5318,6.6306,6.7197,6.8493,7.0467,7.0306,7.0436,7.1222,7.1312,7.1109,7.0669,7.0669,7.0331,6.9586,6.9113,6.8335,6.7286,6.5797,6.4478,6.3294,6.1603,6.0317,5.9438,5.8389,5.7002,5.5446,5.4397,5.3788,5.3518,5.3518,5.3518,5.3416,5.2604,5.186,5.1151,5.071,5.0101,4.9424,4.912,4.9018,4.8883,4.8142,4.7631,4.7192,4.6887,4.6177,4.5534,4.5669,4.5399,4.4993,4.4682,4.4615,4.4615,4.4615,4.4615,4.4615,4.4615,4.4615,4.4615,4.4615,4.4615,4.4615,4.4615,4.4615,4.4615,4.4615,4.4615,4.4479,4.4147,4.3707,4.2834,4.1373,4.0832,4.0451,4.0146,4.0113,4.0113,4.0113,4.0113,4.0113,4.0113,4.0113,4.0113,4.0113,4.0113,4.0113,4.0113,4.0113,4.0113,4.0113,4.0113,4.0113,4.101,4.2016,4.3528,4.4535,4.7198,5.0252,5.2943,5.4871,5.6799,5.9167,6.1095,6.2266,6.1712,6.1608,6.144,6.1017,6.0866,6.1403,6.3047,6.3117,6.3189,6.3721,6.3476,6.451,6.7666,6.8341,6.9177,7.0613,7.0703,7.0466,6.9925,6.9891,6.9451,6.8504,6.7895,6.7151,6.6203,6.4749,6.3463,6.2381,6.1231,5.9979,5.866,5.7509,5.6122,5.4566,5.3822,5.3518,5.3518,5.3518,5.3382,5.3112,5.2536,5.1725,5.0845,5.0304,4.9627,4.9018,4.9018,4.9018,4.8883,4.8142,4.7394,4.6752,4.6549,4.5602,4.4716,4.5229,4.4993,4.4615,4.4615,4.4615,4.4615,4.4615,4.4615,4.4615,4.4615,4.4615,4.4615,4.4615,4.4615,4.4615,4.4615,4.4615,4.4615,4.4615,4.4615,4.4615,4.4615,4.3707,4.2625,4.1339,4.0527,4.0113,4.0113,4.0113,4.0113,4.0113,4.0113,4.0113,4.0113,4.0113,4.0113,4.0113,4.0113,4.0113,4.0113,4.0113,4.0113,4.0113,4.0113,4.0113,3.9179,4.0604,4.2517,4.5562,4.9088,5.2669,5.5909,5.8355,6.0182,6.1061,6.1839,6.2266,6.1796,6.1186,6.0789,6.0975,6.0495,6.0356,6.11,6.0621,6.0204,6.0257,5.914,5.9368,6.2092,6.5269,6.7729,6.9059,6.918,6.9147,6.9147,6.9147,6.8436,6.6948,6.688,6.6136,6.4681,6.3193,6.2415,6.2347,6.0148,5.8693,5.7848,5.5683,5.4668,5.4566,5.3822,5.3518,5.3518,5.3518,5.3044,5.2334,5.23,5.142,5.0135,5.0101,4.9627,4.9018,4.9018,4.9018,4.8883,4.8142,4.7394,4.665,4.594,4.5196,4.4615,4.4649,4.4615,4.4615,4.4615,4.4615,4.4615,4.4615,4.4615,4.4615,4.4615,4.4615,4.4615,4.4615,4.4615,4.4615,4.4615,4.4615,4.4615,4.4615,4.4615,4.4615,4.4615,4.3295,4.2049,4.1271,4.0527,4.0113,4.0113,4.0113,4.0113,4.0113,4.0113,4.0113,4.0113,4.0113,4.0113,4.0113,4.0113,4.0113,4.0113,4.0113,4.0113,4.0113,4.0113,4.0113,3.978,4.2833,4.6129,4.7714,5.0834,5.4124,5.6255,5.8642,6.0495,6.0761,6.13,6.1183,5.9688,5.8572,5.7937,5.8058,5.8507,5.9159,6.0266,6.0236,5.9615,5.8282,5.8076,5.8274,5.8733,6.1057,6.3597,6.6333,6.6878,6.71,6.7055,6.7877,6.7624,6.6102,6.6068,6.5358,6.3903,6.3396,6.2381,6.0858,5.8626,5.69,5.5683,5.4938,5.4329,5.3856,5.3619,5.3518,5.3518,5.3518,5.3348,5.301,5.1995,5.1285,5.071,4.9729,4.9221,4.9018,4.9018,4.9018,4.8815,4.7564,4.6989,4.6549,4.5331,4.4818,4.4615,4.4615,4.4925,4.5196,4.475,4.4959,4.5196,4.4716,4.4615,4.4615,4.4615,4.4615,4.4615,4.4615,4.4615,4.4615,4.4615,4.4615,4.4615,4.4615,4.4615,4.4615,4.4615,4.3234,4.2185,4.1948,4.0857,4.0113,4.0113,4.0113,4.0113,4.0113,4.0113,4.0113,4.0113,4.0113,4.0113,4.0113,4.0113,4.0113,4.0113,4.0113,4.0113,4.0113,4.0113,4.0113,4.1216,4.4295,4.7436,4.9522,5.2166,5.4675,5.6326,5.8012,5.9086,5.8605,5.8401,5.7785,5.6082,5.5187,5.4835,5.5312,5.5761,5.6828,5.8987,5.8527,5.7693,5.6855,5.7351,5.7678,5.7473,5.8873,6.0995,6.4123,6.4742,6.5095,6.5231,6.5823,6.568,6.4665,6.4598,6.4135,6.3125,6.2584,6.1163,5.8896,5.7205,5.5784,5.4566,5.4329,5.3957,5.3518,5.3518,5.3518,5.3484,5.3179,5.2942,5.257,5.1319,5.0642,5.0304,4.9357,4.9018,4.9018,4.9018,4.9018,4.8815,4.7597,4.7022,4.6549,4.5331,4.4993,4.4993,4.4993,4.55,4.5974,4.5529,4.5534,4.5568,4.5094,4.4818,4.4615,4.4615,4.4818,4.4919,4.4649,4.479,4.4891,4.4649,4.4615,4.4615,4.4615,4.4615,4.4412,4.387,4.3132,4.2388,4.1576,4.0925,4.0383,4.0113,4.0113,4.0113,4.0113,4.0113,4.0113,4.0113,4.0113,4.0113,4.0113,4.0113,4.0113,4.0113,4.0113,4.0113,4.0113,4.0113,4.0113,4.3199,4.4915,4.6527,5.0759,5.2856,5.4362,5.6054,5.6529,5.621,5.4787,5.3496,5.2313,5.1268,5.1126,5.159,5.2781,5.2859,5.399,5.7387,5.6017,5.508,5.623,5.6966,5.7523,5.7952,5.859,5.998,6.241,6.2797,6.3095,6.3612,6.3236,6.2884,6.2618,6.2673,6.2571,6.2302,6.0786,5.8964,5.6799,5.6021,5.5277,5.4499,5.3822,5.3518,5.3518,5.3518,5.3484,5.3382,5.2604,5.186,5.115,5.0371,4.9661,4.9052,4.9018,4.9018,4.9018,4.9018,4.9018,4.8883,4.8105,4.7361,4.665,4.5872,4.5669,4.5703,4.5703,4.6244,4.6853,4.6819,4.6312,4.5805,4.5771,4.5196,4.4716,4.4716,4.5263,4.5534,4.4852,4.5229,4.5466,4.4784,4.4615,4.4615,4.4615,4.4615,4.4073,4.2591,4.2997,4.2591,4.0451,4.0798,4.0899,4.018,4.0113,4.0113,4.0113,4.0113,4.0113,4.0113,4.0113,4.0113,4.0113,4.0113,4.0113,4.0113,4.0113,4.0113,4.0113,4.0113,4.0113,4.4281,4.6621,4.8655,5.0246,5.1635,5.2634,5.2596,5.3338,5.3326,5.0953,4.9649,4.8389,4.6582,4.7405,4.8957,5.0877,5.4094,5.7241,5.9742,6.0455,6.0192,5.8585,5.977,5.9693,5.693,5.8591,5.9798,5.99,6.0836,6.1504,6.1698,6.2538,6.2507,6.1386,6.2243,6.2154,6.1069,5.99,5.8457,5.6799,5.5513,5.4499,5.3788,5.3585,5.3518,5.3518,5.3518,5.3179,5.2604,5.2367,5.186,5.115,5.0371,4.9965,4.9729,4.9187,4.9018,4.9018,4.9018,4.9018,4.8781,4.7496,4.6955,4.6549,4.5263,4.5263,4.5703,4.5703,4.665,4.7496,4.6921,4.7056,4.7225,4.665,4.638,4.6244,4.6244,4.638,4.6447,4.6278,4.594,4.5635,4.5466,4.4959,4.4615,4.4615,4.4615,4.4479,4.4073,4.3639,4.297,4.1847,4.1407,4.0899,4.018,4.0113,4.0113,4.0113,4.0113,4.0113,4.0113,4.0113,4.0113,4.0113,4.0113,4.0113,4.0113,4.0113,4.0113,4.0113,4.0113,4.0113,4.5493,4.7896,4.9912,5.087,5.1439,5.1439,5.0212,5.0017,4.9231,4.6272,4.4781,4.3678,4.2576,4.4122,4.6322,4.8914,5.2604,5.621,5.9284,5.9859,5.9726,5.9104,6.0286,6.0313,5.8136,5.9744,6.0613,5.9873,5.9973,6.0241,6.0504,6.0738,6.059,6.0027,6.0927,6.1066,6.0391,5.9136,5.778,5.6325,5.5141,5.4194,5.3518,5.3518,5.3518,5.3484,0.0,5.2706,5.2266,5.1589,5.1082,5.0642,4.9898,4.9627,4.956,4.9154,4.9018,4.9018,4.9018,4.9018,4.8849,4.8037,4.7327,4.6718,4.621,4.6109,4.6244,4.6583,4.7496,4.8308,4.7868,4.7834,4.78,4.7394,4.7022,4.6786,4.6786,4.7056,4.7293,4.7293,4.6684,4.6177,4.6177,4.5568,4.506,4.506,4.4818,4.4615,4.4615,4.4215,4.3369,4.1982,4.1745,4.1238,4.018,4.0113,4.0113,4.0113,4.0113,4.0113,4.0113,4.0113,4.0113,4.0113,4.0113,4.0113,4.0113,4.0113,4.0113,4.0113,4.0113,4.0113,4.6649,4.8594,5.0279,5.172,5.1498,5.0451,4.8476,4.695,4.4975,4.1654,4.0008,3.9149,3.9121,4.1143,4.3814,4.7045,4.9904,5.3278,5.7683,5.7299,5.7167,5.8863,5.9899,6.0384,5.9981,6.1064,6.1481,6.0805,5.9705,5.9327,5.9858,5.8737,5.8343,5.8825,5.9285,5.9567,5.9621,5.8093,5.6606,5.5125,5.4421,5.375,5.3314,5.3314,5.3348,5.345,5.2638,5.2166,5.1864,5.061,4.997,4.9738,4.9224,4.9018,4.9018,4.9018,4.9018,4.9018,4.9018,4.9018,4.8984,4.8883,4.8003,4.7056,4.7597,4.7394,4.709,4.7703,4.8443,4.9018,4.9018,4.8545,4.8041,4.8041,4.7564,4.709,4.709,4.7597,4.8041,4.8041,4.7462,4.6955,4.6955,4.6244,4.5703,4.5703,4.506,4.4615,4.4615,4.4615,4.3775,4.1711,4.2049,4.188,4.0519,4.0383,4.035,4.0248,4.035,4.0316,4.0113,4.018,4.0214,4.0113,4.0113,4.0113,4.0113,4.0113,4.0113,4.0113,4.0113,4.0113,4.73,4.8297,4.8989,5.0887,5.0481,4.9105,4.71,4.5173,4.2871,3.9589,3.8302,3.7439,3.6406,3.8606,4.183,4.575,4.8968,5.2838,5.8054,5.9094,5.9473,5.9837,6.1428,6.1671,5.9478,6.0403,6.0691,5.9523,5.9207,5.9327,5.9858,5.8737,5.8298,5.8663,5.8294,5.7773,5.7056,5.5234,5.3621,5.2236,5.1485,5.1471,5.2205,5.2205,5.2662,5.345,5.2638,0.0,5.0222,5.0117,4.9249,4.8099,4.8738,4.9018,4.9018,4.9018,4.9018,4.9018,4.9018,4.9018,4.8917,4.8308,4.7936,4.7631,4.7124,4.7327,4.7736,4.7838,4.8443,4.9018,4.9018,4.8917,4.8815,4.8815,4.8714,4.8612,4.8612,4.8714,4.8815,4.8815,4.8206,4.7733,4.7733,4.6583,4.5703,4.5703,4.506,4.4615,4.4615,4.4615,4.4181,4.3132,4.3105,4.2861,4.1982,4.1941,4.1644,4.1035,4.1576,4.1365,4.0146,4.0696,4.073,4.0113,4.0113,4.0113,4.0113,4.0113,4.0113,4.0113,4.0113,4.0113,4.6044,4.7086,4.7787,4.8477,4.8177,4.69,4.3969,4.2534,4.0876,3.7554,3.6656,3.6237,3.5609,3.7947,4.0747,4.3126,4.6411,5.0204,5.4548,5.5855,5.7021,5.8794,5.9854,6.0064,5.9177,5.935,5.9243,5.8644,5.8261,5.8316,5.8915,5.7963,5.7942,5.9058,5.7485,5.6751,5.6909,5.4333,5.2677,5.2004,5.0909,5.0665,5.1117,5.1117,5.141,5.1816,5.07,4.9763,4.8982,4.8324,4.7601,4.6936,4.7901,4.8257,4.8321,4.8829,4.9018,4.9018,4.9018,4.9018,4.8951,4.8612,4.821,4.7906,4.7936,4.7936,4.7973,4.8376,4.8748,4.9018,4.9018,4.9018,4.9018,4.9018,4.9018,4.9018,4.9018,4.9018,4.9018,4.9018,4.8714,4.8477,4.8477,4.7597,4.6718,4.6346,4.5635,4.5026,4.4649,4.4615,4.4282,4.3504,4.3375,4.3098,4.2354,4.2286,4.2151,4.1779,4.2083,4.1982,4.1264,4.1576,4.1441,4.0696,4.0663,4.0485,4.0113,4.0113,4.0113,4.0113,4.0113,4.0113,4.4467,4.5712,4.6596,4.6349,4.6031,4.4879,4.1334,4.0246,3.911,3.6118,3.5519,3.5519,3.5519,3.7414,3.942,4.0535,4.3223,4.6438,5.0231,5.1693,5.3575,5.6823,5.7565,5.8112,5.862,5.8201,5.7902,5.7902,5.7154,5.7019,5.779,5.7769,5.8052,5.8665,5.6689,5.578,5.6222,5.3323,5.1786,5.1828,5.0397,4.9947,5.0271,5.0112,5.0165,5.0333,4.9053,4.8398,4.8115,4.6933,4.6291,4.6219,4.7203,4.7572,4.7704,4.8639,4.9018,4.9018,4.9018,4.9018,4.9018,4.9018,4.8612,4.821,4.8815,4.8612,4.8274,4.8849,4.9018,4.9018,4.9018,4.9018,4.9018,4.9018,4.9018,4.9018,4.9018,4.9018,4.9018,4.9018,4.9018,4.9018,4.9018,4.8409,4.7699,4.7124,4.6413,4.5669,4.4925,4.4852,4.4519,4.3741,4.3673,4.3436,4.2828,4.2794,4.2726,4.2557,4.2692,4.2625,4.2286,4.2455,4.2117,4.1238,4.1204,4.0832,4.0113,4.0113,4.018,4.035,4.018,4.018,4.3782,4.4732,4.5368,4.6095,4.5307,4.3715,4.1063,3.9513,3.8003,3.5938,3.5519,3.5519,3.5519,3.5737,3.6733,3.9163,3.9841,4.1874,4.696,4.9268,5.146,5.4239,5.6098,5.7214,5.7274,5.7214,5.7184,5.7184,5.6047,5.5832,5.6854,5.9435,5.9371,5.6081,5.5794,5.4656,5.241,5.0567,4.9583,4.9583,4.8257,4.8377,4.9833,4.9212,4.9496,5.0365,4.9559,4.8713,0.0,4.7299,4.6582,4.5852,4.7127,4.7572,4.7704,4.8639,4.9018,4.9018,4.9018,4.9018,4.9018,4.9018,4.8951,4.8917,4.8984,4.8951,4.8917,4.8984,4.9018,4.9018,4.9018,4.9018,4.9018,4.9018,4.9018,4.9018,4.9018,4.9018,4.9018,4.9018,4.9018,4.9018,4.9018,4.8409,4.7872,4.7804,4.7158,4.6413,4.5703,4.5602,4.5297,4.4581,4.4513,4.4479,4.4412,4.4412,4.4079,4.3341,4.3978,4.3768,4.2354,4.2963,4.2632,4.1238,4.1204,4.0832,4.0113,4.0113,4.0426,4.1068,4.0417,4.0485,4.1972,4.3131,4.3701,4.3388,4.2868,4.1736,3.9312,3.8283,3.7375,3.5818,3.5519,3.5519,3.5519,3.5519,3.5968,3.7434,3.7644,3.908,4.315,4.4766,4.7219,5.1858,5.3443,5.491,5.6915,5.6765,5.6196,5.5418,5.5565,5.5494,5.507,5.6169,5.6477,5.5719,5.4589,5.3321,5.1909,5.0152,4.912,4.87,4.7758,4.7615,4.8298,4.8025,4.8115,4.8512,4.7794,4.7272,0.0,4.5843,4.5222,4.4926,4.5662,4.6276,4.6867,4.7803,4.8513,4.9018,4.9018,4.9018,4.9018,4.9018,4.9018,4.9018,4.9018,4.9018,4.9018,4.9018,4.9018,4.9018,4.9018,4.9018,4.9018,4.9018,4.9018,4.9018,4.9018,4.9018,4.9018,4.9018,4.9018,4.9018,4.9018,4.8781,4.8409,4.7973,4.7665,4.7192,4.6447,4.5974,4.5602,4.5297,4.4857,4.4615,4.4615,4.4615,4.4479,4.4147,4.4445,4.431,4.3735,4.3944,4.3606,4.2557,4.2496,4.2151,4.1433,4.1433,4.1576,4.1847,4.1542,4.1576,3.9948,4.1279,4.2057,4.1225,4.0851,4.0131,3.8067,3.7358,3.6836,3.5729,3.5519,3.5519,3.5519,3.5519,3.5639,0.0,3.6507,3.7704,4.0427,4.1893,4.4347,4.8925,5.0391,5.2187,5.5059,5.5508,5.5029,5.3713,5.4405,5.4282,5.2886,5.2825,5.3379,5.4528,5.3278,5.2105,5.1151,4.9702,4.888,4.8566,4.7728,4.7399,4.7578,4.7399,4.7309,4.7279,4.6621,4.6279,0.0,4.4855,4.4317,4.4308,4.4672,4.5342,4.6314,4.7273,4.8193,4.9018,4.9018,4.9018,4.9018,4.9018,4.9018,4.9018,4.9018,4.9018,4.9018,4.9018,4.9018,4.9018,4.9018,4.9018,4.9018,4.9018,4.9018,4.9018,4.9018,4.9018,4.9018,4.9018,4.9018,4.9018,4.9018,4.9018,4.8815,4.8308,4.824,4.7902,4.6921,4.6549,4.6109,4.5432,4.5094,4.4852,4.4615,4.4615,4.4615,4.4615,4.4615,4.4615,4.4615,4.4615,4.4215,4.3409,4.3375,4.3064,4.2286,4.2286,4.2388,4.2625,4.2388,4.2286,3.7739,3.927,4.0551,4.0526,3.9961,3.912,3.7876,3.7043,3.6297,3.5639,3.5519,3.5519,3.5519,3.5519,3.5519,3.5519,3.6567,3.7883,3.926,4.1713,4.3868,4.5185,4.71,4.9105,5.1079,5.3084,5.3653,5.2306,5.2217,5.1648,5.0331,5.0242,5.0759,5.1909,5.1909,5.1076,4.9329,4.867,4.8626,4.9269,4.7938,4.7638,4.8267,4.7608,4.7309,4.7279,4.6621,4.6279,0.0,4.4855,4.4317,4.4308,4.4672,4.5342,4.6314,4.7273,4.8193,4.9018,4.9018,4.9018,4.9018,4.9018,4.9018,4.9018,4.9018,4.9018,4.9018,4.9018,4.9018,4.9018,4.9018,4.9018,4.9018,4.9018,4.9018,4.9018,4.9018,4.9018,4.9018,4.9018,4.9018,4.9018,4.9018,4.9018,4.9018,4.8984,4.8984,4.8477,4.6989,4.7428,4.7056,4.4852,4.5263,4.5399,4.4682,4.4615,4.4615,4.4615,4.4615,4.4615,4.4615,4.4615,4.4215,4.3409,4.3375,4.3064,4.2286,4.2286,4.2692,4.3375,4.2625,4.2286,3.5454,3.6684,3.7758,3.8023,3.7555,3.6975,3.6861,3.6286,3.5759,3.5549,3.5519,3.5519,3.5519,3.5519,3.5938,3.7255,3.7434,3.8033,3.9828,4.1594,4.3509,4.5723,4.9344,5.2067,5.3174,5.3414,5.3144,5.2276,5.1798,5.1139,5.0255,4.9823,4.9734,5.0108,5.0108,4.9627,4.864,4.8386,4.8177,4.7908,4.7489,4.7429,4.7608,4.7399,4.707,4.6621,4.6369,4.6052,4.5544,4.4676,4.469,4.5239,4.4909,4.5778,4.7205,4.7473,4.8193,4.9018,4.9018,4.9018,4.9018,4.9018,4.9018,4.9018,4.9018,4.9018,4.9018,4.9018,4.9018,4.9018,4.9018,4.9018,4.9018,4.9018,4.9018,4.9018,4.9018,4.939,4.9729,4.9729,4.9729,4.9729,4.9729,4.9323,4.9018,4.9018,4.9018,4.8849,4.8376,4.8071,4.7601,4.6921,4.6616,4.594,4.4716,4.4615,4.4615,4.4615,4.4615,4.4615,4.4615,4.4615,4.4479,4.4215,4.4215,4.4113,4.387,4.327,4.3082,4.3344,4.3721,4.3572,3.3507,3.46,3.5654,3.6467,3.6106,3.5758,3.6363,3.595,3.5519,3.5519,3.5519,3.5519,3.5519,3.5519,3.5908,3.7105,3.7375,3.7943,3.9439,4.1242,4.3399,4.6022,4.9494,5.1858,5.2306,5.2636,5.2426,5.1528,5.1079,5.0451,4.9553,4.9105,4.882,4.8536,4.882,4.8566,4.7908,4.7908,4.7698,4.7309,4.7309,4.7309,4.7309,4.7309,4.695,4.6279,4.6052,4.5544,0.0,4.4227,4.4495,4.5332,4.4967,4.5957,4.7572,4.7572,4.8193,4.9018,4.9018,4.9018,4.9018,4.9018,4.9018,4.9018,4.9018,4.9018,4.9018,4.9018,4.9018,4.9018,4.9018,4.9018,4.9018,4.9018,4.9018,4.9086,4.9357,4.956,4.9763,5.0033,4.9864,4.9661,4.9661,4.9289,4.9018,4.9018,4.9018,4.8917,4.8612,4.8443,4.8105,4.7564,4.7327,4.6718,4.5529,4.5162,4.5128,4.5427,4.4601,4.4227,4.4524,4.426,4.3977,4.3651,4.3948,4.3948,4.3621,4.3078,4.2986,4.329,4.386,4.4169,0.0,3.2962,3.4132,3.5591,3.548,3.5249,3.6228,3.5932,0.0,3.5519,3.5519,3.5519,3.5579,3.5549,3.5549,3.5699,3.6656,3.7674,3.8422,4.0943,4.3629,4.6292,4.8267,4.9449,4.9449,5.102,5.1558,5.0285,5.0106,4.9583,4.8356,4.8237,4.7938,4.7339,4.7908,4.7908,4.7309,4.7309,4.7309,4.7309,4.7309,4.7279,4.7249,4.7249,4.686,0.0,4.5514,4.4896,0.0,4.3648,4.4043,4.4999,4.4999,4.6099,4.7704,4.7704,4.8257,4.9018,4.9018,4.9018,4.9018,4.9018,4.9018,4.9018,4.9018,4.9018,4.9018,4.9018,4.9018,4.9018,4.9018,4.9018,4.9018,4.9018,4.9018,4.9187,4.9864,4.9526,4.9289,4.9965,4.956,4.9086,4.9086,4.9052,4.9018,4.9018,4.9018,4.8748,4.8041,4.8578,4.8477,4.709,4.7564,4.7699,4.6989,4.6177,4.5978,4.6629,4.4604,4.3655,4.4348,4.3692,4.2963,4.2141,4.2899,4.2867,4.1981,4.2045,4.2459,4.3207,4.33,4.4152,3.1392,0.0,3.3142,3.4203,3.4384,3.453,0.0,3.5621,3.5519,3.5519,3.5519,3.5669,3.6178,3.5848,3.5998,3.7464,3.7554,3.8003,3.9679,4.309,4.6381,4.897,5.0182,5.075,5.075,5.0674,5.0524,5.0226,4.9314,4.8626,4.8297,4.7818,4.7459,4.7309,4.7459,4.7459,4.7309,4.7309,4.7309,4.7309,4.7309,4.704,4.6561,4.6561,4.5903,4.4766,4.4616,0.0,4.468,4.4496,4.5416,4.6934,4.6934,4.7671,4.8671,4.8671,4.8829,4.9018,4.9018,4.9018,4.9018,4.9018,4.9018,4.9018,4.9018,4.9018,4.9018,4.9018,4.9018,4.9018,4.9018,4.9018,4.9018,4.9018,4.9018,4.9052,4.9221,4.956,4.9898,5.0067,4.9965,4.983,4.983,4.9357,4.9018,4.9018,4.9018,4.8951,4.8781,4.8883,4.8883,4.8511,4.8646,4.868,4.8511,4.6786,4.5711,4.5744,4.4669,4.4067,4.4071,4.391,4.3746,4.3515,4.3233,4.2649,4.1772,4.2451,4.255,4.2113,4.3291,4.4041,3.1756,3.22,3.2806,3.3774,3.3979,3.4245,3.5294,3.5519,3.5519,3.5519,3.5519,3.5609,3.5968,3.5998,3.6297,3.7345,3.7973,3.923,4.1833,4.4586,4.7189,4.9523,5.0361,5.0734,5.0734,5.0405,4.9956,4.9374,4.8686,4.8147,4.7848,4.7489,4.7309,4.7309,4.7309,4.7309,4.7309,4.7309,4.7309,4.7309,4.701,4.6681,4.6279,4.5992,4.5304,4.4317,4.4317,0.0,4.4812,4.4812,4.5921,4.7572,4.7572,4.8193,4.9018,4.9018,4.8736,4.8353,4.8353,4.8096,4.7737,4.7737,4.7998,4.8353,4.8353,4.8639,4.9018,4.9018,4.9018,4.9018,4.9018,4.9018,4.9018,4.9018,4.9018,4.9086,4.9424,4.956,4.9695,5.0033,4.983,4.9593,4.9593,4.9255,4.9018,4.9018,4.9018,4.9018,4.9018,4.9018,4.9018,4.9018,4.9018,4.9018,4.9018,4.7597,4.6629,4.6419,4.4593,4.3701,4.3885,4.3598,4.3375,4.3375,4.2646,4.2032,4.1559,4.2032,4.2244,4.2204,4.3008,4.3807,3.2343,3.2838,3.3304,3.4036,3.4109,3.4245,3.5294,3.5392,3.5326,3.5457,3.5519,3.5579,3.5759,3.6178,3.6596,3.6896,3.8661,4.1115,4.4197,4.5873,4.7399,4.912,4.9853,5.0136,5.0046,4.9956,4.9494,4.8356,4.8207,4.7908,4.7339,4.7309,4.7249,4.716,4.7249,4.7249,4.716,4.7249,4.7249,4.716,4.6591,4.616,4.5992,4.5424,4.4796,4.4167,0.0,0.0,4.4812,4.4812,4.5814,4.7373,4.7373,4.7868,4.8576,4.8576,4.8096,4.7373,4.7373,4.69,4.6208,4.6208,4.6833,4.7572,4.7572,4.8257,4.9018,4.9018,4.9018,4.9018,4.9018,4.9018,4.8954,4.8829,4.8798,4.8967,4.9573,4.9236,4.8998,4.9765,4.9424,4.9018,4.9018,4.9018,4.9018,4.9018,4.9018,4.9018,4.9018,4.9018,4.9018,4.9018,4.9018,4.9018,4.9018,4.8164,4.7591,4.7407,4.4678,4.3237,4.3698,4.3131,4.2786,4.2786,4.1979,4.1572,4.1572,4.1572,4.1919,4.2633,4.2756,4.35,3.2343,3.3987,3.5437,3.53,3.461,3.4245,3.5294,3.4839,3.4476,3.5326,3.5519,3.5848,3.6926,3.6776,3.7015,3.8691,4.1115,4.3539,4.5723,4.7638,4.897,4.9269,4.9853,5.0032,4.9464,4.8925,4.8506,4.8297,4.7758,4.7429,4.7309,4.7309,4.704,4.6459,4.701,4.704,4.6429,4.704,4.704,4.6429,4.6339,4.5723,4.4616,4.4526,4.4107,4.3439,0.0,4.3979,4.4812,4.4812,4.5416,4.6419,4.6419,4.6488,4.6627,4.6627,4.6523,4.6419,4.6419,4.6314,4.6208,4.6208,4.6833,4.7572,4.7572,4.8257,4.9018,4.9018,4.9018,4.9018,4.9018,4.9018,4.8798,4.7998,4.7803,4.7836,4.7968,4.7869,4.8064,4.8996,4.9086,4.9018,4.9018,4.9018,4.9018,4.9018,4.9018,4.9018,4.9018,4.9018,4.9018,4.9018,4.9018,4.9018,4.9018,4.7441,4.6461,4.6419,4.5368,4.4319,4.3395,4.3256,4.3196,4.3196,4.2569,4.2261,4.2261,4.2261,4.2308,4.2461,4.2956,4.3335,3.1573,3.2971,3.4328,3.503,3.58,3.6296,3.6078,3.57,3.5469,3.5962,3.5759,3.5789,3.6746,3.7554,3.905,4.2102,4.3629,4.4975,4.6621,4.7938,4.8745,4.8745,4.9314,4.9464,4.8805,4.8446,4.8147,4.7788,4.7489,4.716,4.68,4.677,4.6471,4.5783,4.6052,4.6082,4.5783,4.6082,4.6262,4.6279,4.5933,4.5274,4.4317,4.3917,4.3589,4.329,0.0,4.3888,4.4812,4.4812,4.5342,4.6208,4.6208,4.6208,4.6138,4.5634,4.5452,4.5342,4.4825,4.46,4.46,4.46,4.5306,4.6099,4.6099,4.6763,4.7473,4.7473,4.8225,4.9018,4.9018,4.8608,4.8129,4.7704,4.7205,4.6833,4.6833,4.7239,4.7737,4.8161,4.8639,4.9018,4.9018,4.9018,4.8829,4.8321,4.8671,4.8829,4.8289,4.8704,4.9018,4.9018,4.9018,4.9018,4.9018,4.8225,4.6833,4.475,4.4322,4.3869,4.3329,4.329,4.329,4.329,4.303,4.288,4.288,4.288,4.288,4.288,4.314,4.329,3.0775,3.1756,3.2842,3.4231,3.599,3.7342,3.7221,3.6909,3.6777,3.731,3.7015,3.6776,3.7105,3.8781,4.1205,4.4526,4.5574,4.6471,4.7818,4.8416,4.8745,4.8745,4.8925,4.888,4.8327,4.7997,4.7608,4.71,4.692,4.6621,4.6112,4.6082,4.5783,4.5095,4.5214,4.5214,4.5065,4.5214,4.5484,4.5801,4.5304,4.4706,4.4077,4.3529,4.329,4.329,4.329,4.3732,4.4434,4.4434,4.4893,4.553,4.553,4.553,4.5421,4.4706,4.4434,4.432,4.3566,4.329,4.329,4.329,4.4004,4.4812,4.4812,4.5452,4.6208,4.6208,4.7239,4.8385,4.8608,4.8161,4.7539,4.734,4.6558,4.5854,4.5854,4.6451,4.7002,4.7239,4.8032,4.8608,4.8353,4.8513,4.8353,4.7406,4.8096,4.8385,4.7704,4.8418,4.9018,4.9018,4.9018,4.8892,4.8671,4.8482,4.697,4.3849,4.3448,4.329,4.329,4.329,4.329,4.329,4.329,4.329,4.329,4.329,4.329,4.329,4.329,4.329,3.033,3.1352,3.2479,3.3157,3.3826,3.5194,3.8448,3.8046,3.7565,3.9675,4.0068,3.9858,3.932,4.0816,4.268,4.4137,4.6471,4.8536,4.9807,5.0016,5.0046,5.0046,4.9075,4.8327,4.8297,4.7189,4.6399,4.6411,4.5813,4.5424,4.5364,4.5364,4.5065,4.4407,4.4975,4.5005,4.4377,4.4975,4.5005,4.4466,4.4407,4.4007,4.3349,4.3319,4.329,4.329,4.329,4.3329,4.3409,4.3409,4.3448,4.3497,4.3497,4.3497,4.3497,4.3448,4.3409,4.3409,4.3329,4.329,4.329,4.329,4.4004,4.4812,4.4812,4.5452,4.6208,4.6208,4.6279,4.6592,4.7473,4.7671,4.7373,4.6488,4.5561,4.4924,4.4924,4.493,4.5264,4.6138,4.707,4.7406,4.6558,4.7138,4.7373,4.6454,4.7104,4.7704,4.7638,4.8418,4.9018,4.9018,4.9018,4.8639,4.777,4.6902,4.5921,4.4774,4.381,4.329,4.329,4.329,4.329,4.329,4.329,4.329,4.329,4.329,4.329,4.329,4.329,4.329,2.9527,3.0522,3.1823,3.2716,3.3051,3.4221,3.8424,3.8911,3.898,4.0651,4.0995,4.1055,4.1235,4.2521,4.4018,4.5334,4.71,4.8596,4.9494,4.9643,4.9494,4.9075,4.8596,4.8117,4.7728,4.686,4.6279,4.6279,4.5693,4.5125,4.4706,4.4676,4.4377,4.3678,4.3917,4.3917,4.3678,4.3958,4.3958,4.3678,4.4107,4.3917,4.329,4.329,4.329,4.329,4.329,4.329,4.329,4.329,4.329,4.329,4.329,4.329,4.329,4.329,4.329,4.329,4.329,4.329,4.329,4.329,4.3566,4.3888,4.3888,4.4128,4.4403,4.4403,4.4856,4.5525,4.6488,4.6311,4.5778,4.5379,4.4555,4.3888,4.3888,4.4358,4.4924,4.5264,4.6099,4.6627,4.6244,4.6488,4.6384,4.5452,4.6134,4.673,4.673,4.7539,4.8353,4.8923,4.9018,4.8861,4.8513,4.7104,4.6032,4.5706,4.4205,4.329,4.329,4.329,4.329,4.329,4.329,4.329,4.329,4.329,4.329,4.329,4.329,4.329,2.8825,2.9295,3.0329,3.1838,3.2312,3.3564,3.8099,3.909,3.9554,4.1676,4.187,4.1931,4.2551,4.3389,4.4436,4.5783,4.7279,4.8506,4.9209,4.912,4.882,4.8327,4.8087,4.7788,4.7339,4.6501,4.5992,4.5992,4.5185,4.4466,4.3977,4.3977,4.3768,4.329,4.329,4.329,4.329,4.329,4.32,4.303,4.3479,4.3569,4.329,4.329,4.329,4.329,4.329,4.329,4.329,4.329,4.329,4.329,4.329,4.329,4.329,4.329,4.329,4.329,4.329,4.329,4.329,4.329,4.329,4.329,4.329,4.329,4.329,4.329,4.381,4.4472,4.5122,4.5042,4.4812,4.4812,4.4043,4.329,4.329,4.3849,4.432,4.432,4.5116,4.567,4.5311,4.5561,4.5416,4.4472,4.5122,4.5778,4.5778,4.6866,4.7933,4.8892,4.9018,4.8892,4.8576,4.7104,4.6067,4.5778,4.4205,4.329,4.329,4.329,4.329,4.329,4.329,4.329,4.329,4.329,4.329,4.329,4.329,4.329,2.8247,2.7695,2.7924,3.0391,3.1471,3.3101,3.7577,3.8352,3.9159,4.2826,4.296,4.262,4.32,4.329,4.3738,4.5065,4.698,4.8506,4.9209,4.8686,4.8267,4.8267,4.7698,4.7279,4.7279,4.6082,4.5274,4.5274,4.4077,4.329,4.329,4.329,4.329,4.329,4.329,4.329,4.329,4.329,4.3,4.2381,4.2381,4.2701,4.326,4.329,4.329,4.329,4.329,4.329,4.329,4.329,4.329,4.329,4.329,4.329,4.329,4.329,4.329,4.329,4.329,4.329,4.329,4.329,4.329,4.329,4.329,4.329,4.329,4.329,4.329,4.329,4.329,4.4043,4.4774,4.4774,4.4043,4.329,4.329,4.329,4.329,4.329,4.412,4.4472,4.3488,4.412,4.4434,4.3448,4.4159,4.4774,4.4812,4.6451,4.7933,4.8861,4.8954,4.8576,4.7671,4.673,4.5814,4.4849,4.3849,4.329,4.329,4.329,4.329,4.329,4.329,4.329,4.329,4.329,4.329,4.329,4.329,4.329,2.8373,2.8722,2.9705,3.1241,3.2382,3.4064,3.7739,3.8607,3.9567,4.2969,4.3708,4.3778,4.3988,4.4407,4.4676,4.4616,4.6292,4.7668,4.7848,4.7309,4.689,4.689,4.6292,4.5873,4.5873,4.5125,4.4616,4.4616,4.3389,4.2641,4.2641,4.2641,4.2641,4.2641,4.309,4.312,4.2641,4.2641,4.2312,4.1722,4.1722,4.1773,4.1983,4.2432,4.2641,4.2671,4.315,4.329,4.329,4.329,4.329,4.329,4.329,4.329,4.329,4.329,4.329,4.329,4.329,4.329,4.329,4.329,4.329,4.329,4.329,4.329,4.329,4.329,4.329,4.329,4.329,4.3527,4.3732,4.3732,4.3527,4.329,4.329,4.329,4.329,4.329,4.3566,4.3654,4.3369,4.3566,4.3615,4.3329,4.3536,4.4004,4.4699,4.5885,4.673,4.7002,4.7036,4.6902,4.6627,4.5742,4.5079,4.4812,4.3849,4.329,4.329,4.329,4.329,4.329,4.329,4.329,4.329,4.329,4.329,4.329,4.329,4.329,2.8549,2.9016,3.0095,3.2144,3.3676,3.5419,3.838,3.9917,4.1225,4.3171,4.3961,4.4317,4.4317,4.4436,4.4556,4.4676,4.5723,4.6591,4.689,4.6352,4.5903,4.5903,4.5544,4.5304,4.5304,4.4276,4.3602,4.3602,4.2393,4.1686,4.1686,4.1909,4.2021,4.2021,4.2372,4.2372,4.2021,4.2021,4.1692,4.0995,4.0995,4.0846,4.0636,4.1602,4.2141,4.241,4.2761,4.294,4.294,4.294,4.294,4.297,4.32,4.329,4.329,4.329,4.329,4.329,4.329,4.311,4.3,4.32,4.311,4.3,4.323,4.329,4.329,4.329,4.329,4.329,4.329,4.329,4.329,4.329,4.329,4.329,4.329,4.329,4.329,4.329,4.329,4.329,4.329,4.329,4.329,4.329,4.329,4.3654,4.4662,4.552,4.6063,4.6205,4.6429,4.6315,4.5701,4.5116,4.4624,4.4205,4.3615,4.3409,4.3678,4.3439,4.3409,4.3678,4.3439,4.3409,4.3678,4.3409,4.329,4.329,4.329,4.329,2.8762,2.8944,2.9778,3.3071,3.5345,3.7339,3.9518,4.191,4.3574,4.3315,4.3789,4.4317,4.4317,4.3798,4.3768,4.5005,4.5244,4.5514,4.6142,4.5633,4.5214,4.5214,4.5155,4.5083,4.4971,4.3462,4.2422,4.228,4.1076,4.0359,4.0423,4.091,4.1219,4.1294,4.1294,4.1265,4.1205,4.1145,4.0816,4.0217,4.0217,3.9948,3.9469,4.0726,4.1692,4.2321,4.2321,4.2321,4.2321,4.2321,4.2321,4.2381,4.3,4.32,4.32,4.326,4.329,4.329,4.329,4.294,4.256,4.306,4.288,4.259,4.309,4.326,4.329,4.329,4.329,4.329,4.329,4.329,4.329,4.329,4.329,4.329,4.329,4.329,4.329,4.329,4.329,4.329,4.329,4.329,4.329,4.329,4.329,4.3615,4.4548,4.5118,4.5621,4.5881,4.6557,4.635,4.4799,4.4723,4.4335,4.3459,4.3379,4.3678,4.4377,4.3738,4.3678,4.4317,4.3738,4.3708,4.4227,4.3648,4.3349,4.329,4.329,4.3319,2.8863,2.9994,3.1688,3.3946,3.7812,4.1186,4.1713,4.304,4.3773,4.2428,4.3284,4.4317,4.4317,4.4197,4.4197,4.4466,4.4975,4.5334,4.5484,4.4945,4.4526,4.4526,4.4077,4.3356,4.2478,4.2042,4.1253,3.99,3.9089,3.8774,3.9157,3.9286,3.9756,4.0569,4.0606,4.0367,3.9858,3.929,3.896,0.0,3.8811,3.902,3.9439,4.0247,4.0965,4.1632,4.1632,4.1632,4.1632,4.1632,4.1632,4.1692,4.2351,4.262,4.2641,4.315,4.329,4.329,4.329,4.32,4.306,4.2701,4.2821,4.306,4.2671,4.291,4.329,4.329,4.329,4.329,4.329,4.329,4.329,4.329,4.329,4.329,4.329,4.329,4.329,4.329,4.329,4.329,4.329,4.329,4.329,4.329,4.329,4.3369,4.3576,4.3735,4.3844,4.3927,4.4543,4.4576,4.3675,4.4097,4.4318,4.4107,4.4067,4.4407,4.5065,4.4436,4.4167,4.4317,4.4676,4.4436,4.3499,4.3888,4.3798,4.329,4.329,4.3559,2.9277,3.0377,3.2254,3.5386,3.9098,4.1931,4.1931,4.2021,4.1898,4.1024,4.2677,4.3856,4.2434,4.2832,4.3389,4.3389,4.3389,4.3539,4.3878,4.3329,4.303,4.3329,4.309,4.2733,4.2438,4.1616,4.0529,3.9101,3.8117,3.7482,3.7259,3.7934,3.8417,3.8649,3.9156,3.911,3.8452,3.8093,3.8093,3.8392,3.8392,3.8751,3.9403,4.0098,4.0576,4.0905,4.0905,4.0905,4.0905,4.0905,4.0905,4.0965,4.1662,4.2111,4.244,4.2731,4.306,4.329,4.329,4.312,4.2851,4.2851,4.2851,4.2851,4.2851,4.306,4.329,4.329,4.329,4.329,4.329,4.329,4.329,4.329,4.329,4.329,4.329,4.329,4.329,4.329,4.329,4.329,4.329,4.329,4.329,4.329,4.329,4.329,4.329,4.3559,4.3648,4.3319,4.4197,4.4377,4.3379,4.4227,4.4646,4.4347,4.4616,4.5095,4.5753,4.5454,4.5274,4.5274,4.5274,4.5125,4.4725,4.4466,4.4137,4.3768,4.3768,4.3988,2.9628,3.0739,3.2622,3.6561,3.9217,4.0799,4.071,4.0091,3.939,3.9002,4.1244,4.2519,4.0202,4.0969,4.2008,4.2192,4.1782,4.1602,4.2141,4.1752,4.1662,4.2321,4.2291,4.2393,4.2783,4.1354,3.9947,3.8768,3.7703,3.6729,3.5948,3.6867,3.7299,3.7084,3.7559,3.7625,3.7255,3.7135,3.7404,3.8063,3.8096,3.8341,3.8723,3.9372,3.9854,4.0217,4.0217,4.0217,4.0217,4.0217,4.0217,4.0307,4.0965,4.1662,4.2231,4.2351,4.2761,4.329,4.317,4.288,4.2581,4.288,4.2791,4.265,4.303,4.32,4.329,4.329,4.329,4.329,4.329,4.329,4.329,4.329,4.329,4.329,4.329,4.329,4.329,4.329,4.329,4.329,4.329,4.329,4.3319,4.3439,4.3469,4.3499,4.3618,4.4137,4.4287,4.3678,4.4736,4.4975,4.3738,4.4796,4.5244,4.4706,4.5185,4.5783,4.6471,4.6459,4.6459,4.6459,4.5933,4.5813,4.6142,4.5155,4.4616,4.4496,4.4496,4.4556,2.9628,3.1694,3.4098,3.6085,3.7594,3.8499,3.7886,3.8084,3.7841,3.5776,3.7305,3.9166,3.9704,4.0,4.0451,4.139,4.1482,4.1414,4.1542,4.1482,4.1662,4.2321,4.1901,4.1397,4.1007,4.0205,3.9081,3.7468,3.7193,3.7211,3.7461,3.6378,3.6466,3.8115,3.643,3.5815,3.6596,3.6058,3.6088,3.6746,3.695,3.6633,3.5955,3.6504,3.7777,3.9523,3.9523,3.9523,3.9523,3.9523,3.9523,3.9619,4.0277,4.0935,4.1602,4.2201,4.2761,4.323,4.2671,4.2791,4.2991,4.1983,4.2342,4.312,4.2641,4.288,4.329,4.329,4.329,4.329,4.329,4.329,4.329,4.329,4.329,4.329,4.329,4.329,4.329,4.329,4.329,4.329,4.329,4.329,4.3499,4.4107,4.4197,4.4377,4.4975,4.5095,4.5125,4.5035,4.5723,4.5873,4.5095,4.5753,4.6142,4.601,4.6142,4.6471,4.716,4.7189,4.7189,4.7189,4.707,4.6501,4.5424,4.5843,4.5753,4.5155,4.5155,4.5484,3.0105,3.1603,3.3315,3.4631,3.5772,3.6623,3.6638,3.6443,3.5965,3.488,3.5031,3.5562,3.629,3.7692,3.861,3.8399,3.8822,3.929,3.9649,3.9709,4.0098,4.1145,4.0995,4.0867,4.1028,4.0421,3.947,3.8139,3.772,3.7162,3.6455,3.6259,3.6262,3.6453,3.607,3.5599,3.5116,3.5347,3.5848,3.6507,3.6376,3.6135,3.5759,3.5746,3.6787,3.8509,3.8509,3.8833,3.9373,3.9373,3.9373,3.9439,3.9738,4.0247,4.0876,4.1145,4.1683,4.2252,4.2381,4.2312,4.2192,4.2021,4.2073,4.2252,4.2381,4.262,4.288,4.32,4.329,4.329,4.329,4.329,4.329,4.329,4.329,4.329,4.329,4.329,4.329,4.329,4.329,4.3409,4.3798,4.3858,4.4107,4.4766,4.4855,4.4975,4.5244,4.5304,4.5304,4.5304,4.5903,4.6052,4.5364,4.6262,4.6711,4.6309,4.6681,4.701,4.7309,4.7309,4.7309,4.7309,4.7309,4.701,4.6411,4.6352,4.6172,4.5873,4.5873,4.6022,3.0306,3.1086,3.1993,3.2789,3.3674,3.4534,3.5062,3.4617,3.4121,3.4277,3.3683,3.314,3.3175,3.5147,3.6561,3.596,3.6493,3.7208,3.7718,3.7983,3.8631,3.9978,4.0008,4.0157,4.0816,4.0427,3.9743,3.876,3.8393,3.7592,3.6146,3.6396,3.6079,3.495,3.5326,3.4908,3.3671,3.461,3.537,3.5874,3.5747,3.5612,3.5324,3.4944,3.5548,3.6978,3.7548,3.8256,3.9017,3.9301,3.9373,3.9373,3.9373,3.9828,4.0397,4.0397,4.0816,4.1482,4.1782,4.1692,4.1474,4.1991,4.1931,4.1782,4.244,4.265,4.2701,4.314,4.329,4.329,4.329,4.329,4.329,4.329,4.329,4.329,4.329,4.329,4.329,4.329,4.3439,4.3708,4.4227,4.4436,4.4796,4.5454,4.5544,4.5633,4.5783,4.5813,4.5813,4.5813,4.6262,4.6352,4.5843,4.6741,4.71,4.6621,4.704,4.7309,4.7309,4.7309,4.7309,4.7309,4.7309,4.7309,4.7309,4.68,4.6561,4.6561,4.6561,4.6561,2.9829,3.0245,3.0712,3.0763,3.1181,3.1726,3.2281,3.2365,3.25,3.3096,3.3154,3.2784,3.1719,3.2875,3.4338,3.5261,3.5776,3.6092,3.6121,3.6886,3.7943,3.9284,3.8901,3.8751,3.9469,3.9463,3.9164,3.8471,3.8979,3.9002,3.8281,3.6856,3.5725,3.5027,3.3558,3.2791,3.2664,3.3602,3.4109,3.4167,3.4698,3.4455,3.3523,3.3135,3.3519,3.4705,3.6883,3.7843,3.7956,3.898,3.9373,3.9373,3.9373,3.9828,4.0397,4.0397,4.0816,4.1294,4.0696,4.0876,4.1422,4.1452,4.1871,4.247,4.309,4.323,4.326,4.329,4.329,4.329,4.329,4.329,4.329,4.329,4.329,4.329,4.329,4.329,4.329,4.329,4.3798,4.4287,4.4317,4.4825,4.5484,4.6172,4.6262,4.6501,4.713,4.7189,4.7189,4.7189,4.7249,4.7249,4.7189,4.7279,4.7309,4.7249,4.7279,4.7309,4.7309,4.7309,4.7309,4.7309,4.7309,4.7309,4.7309,4.7279,4.7249,4.7249,4.7249,4.7249,2.9804,2.993,3.0181,3.0532,3.0758,3.1035,3.1562,3.1687,3.1838,3.2416,3.2516,3.239,3.1989,3.2596,3.304,3.2756,3.3321,3.4186,3.5216,3.5625,3.6393,3.7933,3.8272,3.8482,3.8721,3.8751,3.8841,3.902,3.8482,3.8003,3.7764,3.6248,3.5056,3.4387,3.3199,3.2876,3.3498,3.3227,3.3705,3.4968,3.454,3.4117,3.3768,3.3376,3.309,3.2993,3.5469,3.6864,3.735,3.8328,3.902,3.9379,3.8931,3.917,3.9768,3.9768,3.9918,4.0157,4.0337,4.0277,4.0187,4.0606,4.0905,4.1235,4.1893,4.2372,4.2791,4.317,4.329,4.329,4.329,4.329,4.329,4.329,4.329,4.3409,4.3828,4.3589,4.3409,4.3858,4.4167,4.4586,4.5454,4.5783,4.6172,4.686,4.695,4.704,4.7279,4.7309,4.7309,4.7309,4.7309,4.7309,4.7309,4.7309,4.7309,4.7309,4.7309,4.7309,4.7309,4.7309,4.7309,4.7309,4.7309,4.7309,4.7309,4.7309,4.7309,4.7309,4.7309,4.7309,2.9804,2.9804,2.988,3.0256,3.0331,3.0482,3.1009,3.1135,3.1286,3.1813,3.1938,3.1888,3.1712,3.1862,3.1824,3.1085,3.1633,3.248,3.3577,3.4298,3.5149,3.6443,3.7292,3.7734,3.7734,3.8153,3.8482,3.8721,3.8332,0.0,3.699,3.5927,3.4632,3.3115,3.2155,3.2263,3.3533,3.2912,3.3567,3.5519,3.4839,3.4509,3.4476,3.3889,3.3273,3.2791,3.4739,3.5791,3.6216,3.7541,3.8452,3.902,3.8571,3.8811,3.9373,3.9373,3.9373,3.9433,3.9918,3.9798,3.9493,4.0187,4.0397,4.0576,4.1482,4.2051,4.253,4.315,4.329,4.329,4.329,4.329,4.329,4.329,4.3469,4.3738,4.4227,4.3917,4.3828,4.4526,4.4825,4.5274,4.613,4.6501,4.68,4.7249,4.7309,4.7309,4.7309,4.7309,4.7309,4.7309,4.7309,4.7309,4.7309,4.7309,4.7309,4.7309,4.7309,4.7309,4.7309,4.7309,4.7309,4.7309,4.7309,4.7309,4.7309,4.7309,4.7309,4.7309,4.7309,4.7309,0.0,0.0,0.0,2.9804,2.9804,2.993,3.0457,3.0583,3.0733,3.126,3.1361,3.121,3.0708,3.0608,3.0608,3.0583,3.0906,3.1167,3.1204,3.277,3.4174,3.4911,3.5849,3.6443,3.6507,3.7614,3.8093,3.7494,3.8566,3.8263,3.6086,3.5892,3.4393,3.1257,3.0292,3.0684,3.2522,3.2593,3.3567,3.5457,3.5519,3.5519,3.5457,3.4509,3.4013,3.4036,3.471,3.4782,3.452,3.6553,3.7793,3.8392,3.8362,3.8781,3.9373,3.9409,3.9409,3.9373,3.9409,3.9373,3.9493,4.0157,4.0397,4.0636,4.1991,4.2381,4.253,4.315,4.329,4.329,4.329,4.329,4.329,4.329,4.3798,4.4317,4.4347,4.4377,4.4556,4.5214,4.5873,4.6279,4.6309,4.689,4.7309,4.7309,4.7309,4.7309,4.7309,4.7309,4.7309,4.7309,4.7309,4.7309,4.7309,4.7309,4.7309,4.7309,4.7309,4.7309,4.7309,4.7309,4.7309,4.7309,4.7309,4.7309,4.7309,4.7309,4.7309,4.7309,4.7309,4.7309,2.9804,0.0,0.0,0.0,0.0,0.0,2.998,3.003,3.0181,3.0708,3.0834,3.0783,3.0633,3.0608,3.0482,3.008,3.0112,3.0419,3.1093,3.1646,3.2569,3.4071,3.4946,3.5854,3.7037,3.7075,3.7315,0.0,3.6492,3.5415,3.5293,3.352,3.1809,3.0216,2.9934,3.0381,3.1573,3.2236,3.322,3.4413,3.5166,3.5519,3.5519,3.5198,3.4706,3.4041,3.4949,3.4889,3.4247,3.6005,3.7404,3.8332,3.7853,3.8392,3.9313,3.8871,3.899,3.9313,3.8841,3.899,3.9439,3.9619,4.0008,4.0546,4.1422,4.2021,4.253,4.315,4.329,4.329,4.329,4.329,4.329,4.329,4.3798,4.4436,4.4915,4.5424,4.5813,4.5992,4.616,4.6429,4.695,4.7189,4.7309,4.7309,4.7309,4.7309,4.7309,4.7309,4.7309,4.7309,4.7309,4.7309,4.7309,4.7309,4.7309,4.7309,4.7309,4.7309,4.7309,4.7309,4.7309,4.7309,4.7309,4.7309,4.7309,4.7309,4.7309,4.7309,4.7309,4.7309,2.9804,2.9804,2.9804,2.9804,0.0,0.0,2.9478,2.9628,2.9804,2.9905,3.0105,3.0281,3.0281,3.0281,3.0156,2.9854,2.9404,2.9457,3.0469,3.097,3.1609,3.27,3.3529,3.453,3.5864,3.5937,3.6373,3.7524,3.6241,3.5154,3.4441,3.2005,3.0381,2.9818,2.9804,3.0254,3.1167,3.1756,3.2664,3.4013,3.4576,3.51,3.5519,3.5519,3.5166,3.4643,3.5261,3.5166,3.4673,3.5681,3.6686,3.7554,3.7165,3.7674,3.8542,3.8123,3.8422,3.8931,3.8542,3.8841,3.9373,3.9373,3.9679,4.0127,4.0756,4.1272,4.1782,4.2671,4.312,4.329,4.329,4.329,4.329,4.329,4.3798,4.4496,4.5155,4.5843,4.6369,4.6681,4.6741,4.686,4.7249,4.7309,4.7309,4.7309,4.7309,4.7309,4.7309,4.7309,4.7309,4.7309,4.7309,4.7309,4.7309,4.7309,4.7309,4.7309,4.7309,4.7309,4.7309,4.7309,4.7309,4.7309,4.7309,4.7309,4.7309,4.7309,4.7309,4.7309,4.7309,4.7309,2.9804,2.9804,2.9804,2.9804,2.9804,0.0,2.9113,2.9428,2.9654,2.9126,2.9428,2.9804,2.9804,2.9804,2.974,2.9624,2.8846,2.8648,2.9663,3.0444,3.1022,3.1193,3.1992,3.2917,3.3888,3.4525,3.5316,3.6246,3.6658,3.5799,3.3312,3.1019,2.9804,2.9804,2.9804,3.0216,3.1044,3.1156,3.2092,3.3842,3.3842,3.4442,3.5519,3.5294,3.5294,3.5519,3.5392,3.5392,3.5519,3.5519,3.5908,3.6477,3.6477,3.6866,3.7404,3.7404,3.7823,3.8392,3.8392,3.8841,3.9373,3.9373,3.9373,3.9559,4.0217,4.0457,4.0786,4.2141,4.288,4.329,4.329,4.329,4.329,4.329,4.3798,4.4496,4.5155,4.5843,4.6531,4.7189,4.7309,4.7309,4.7309,4.7309,4.7309,4.7309,4.7309,4.7309,4.7309,4.7309,4.7309,4.7309,4.7309,4.7309,4.7309,4.7309,4.7309,4.7309,4.7309,4.7309,4.7309,4.7309,4.7309,4.7309,4.7309,4.7309,4.7309,4.7309,4.7309,4.7309,4.7309,4.7309,2.9804,2.9804,2.9804,2.9804,2.9804,0.0,2.9654,2.9704,2.9754,2.9654,2.9704,2.9804,2.9804,2.9804,2.9482,2.8609,2.9028,2.9546,2.974,2.9529,2.9816,3.1033,3.1739,3.2529,3.3592,3.4,3.4485,3.5241,3.4206,3.2672,3.0637,3.0061,2.9804,2.9804,2.9804,2.9895,3.0062,3.082,3.1756,3.2876,3.2876,3.3802,3.5424,3.3871,3.4007,3.5457,3.4643,3.4773,3.5519,3.5519,3.5908,3.6477,3.6477,3.6866,3.7404,3.7404,3.7823,3.8392,3.8392,3.8841,3.9373,3.9373,3.9373,3.9559,4.0217,4.0756,4.1474,4.2761,4.32,4.329,4.329,4.329,4.329,4.329,4.3798,4.4496,4.5155,4.5843,4.6531,4.7189,4.7309,4.7309,4.7309,4.7309,4.7309,4.7309,4.7309,4.7309,4.7309,4.7309,4.7309,4.7309,4.7309,4.7309,4.7309,4.7309,4.7309,4.7309,4.7309,4.7309,4.7309,4.7309,4.7309,4.7309,4.7309,4.7309,4.7309,4.7309,4.7309,4.7309,4.7309,4.7309,3.0532,3.0583,3.0583,3.0583,3.0407,0.0,0.0,2.9804,2.9704,2.9428,2.9603,2.9804,2.9804,2.9804,2.9624,2.9028,2.8949,2.8949,2.8949,2.9169,2.9638,3.0406,3.0726,3.1301,3.2297,3.2535,3.2945,3.3748,3.3071,3.1974,3.0545,3.0024,2.9804,2.9804,2.9804,2.9804,2.9804,3.0292,3.097,3.1901,3.1901,3.2876,3.4706,3.3255,3.3394,3.4706,3.3705,3.3842,3.4773,3.4773,3.5244,3.5998,3.5998,3.6178,3.6507,3.6836,3.7345,3.7943,3.8272,3.8841,3.9373,3.9373,3.9373,3.9433,3.9798,4.0606,4.1594,4.2581,4.309,4.329,4.329,4.329,4.329,4.329,4.3798,4.4496,4.5155,4.5843,4.6531,4.7189,4.7309,4.7309,4.7309,4.7309,4.7309,4.7309,4.7309,4.7309,4.7309,4.7309,4.7309,4.7309,4.7309,4.7309,4.7309,4.7309,4.7309,4.7309,4.7309,4.7309,4.7309,4.7309,4.7309,4.7309,4.7309,4.7309,4.7309,4.7309,4.7309,4.7309,4.7309,4.7309,3.126,3.1386,3.1386,3.1386,3.106,3.0608,0.0,0.0,0.0,2.9227,2.9478,2.9804,2.9804,2.9804,2.9702,2.9507,2.8885,2.8347,2.8124,2.8885,2.9482,2.9482,2.9763,3.0228,3.0884,3.1119,3.1499,3.2272,3.2307,3.1938,3.097,3.0216,2.9804,2.9804,2.9804,2.9804,2.9804,2.9804,3.0292,3.1204,3.1007,3.1901,3.3705,3.2558,3.2664,3.3705,3.2912,3.3017,3.3739,3.391,3.4346,3.5001,3.5508,3.5609,3.5609,3.6507,3.7075,3.7524,3.8332,3.896,3.9373,3.9373,3.9373,3.9433,3.9738,4.0546,4.1534,4.2381,4.291,4.329,4.329,4.329,4.3319,4.3439,4.3928,4.4526,4.5334,4.5933,4.6531,4.7189,4.7309,4.7309,4.7309,4.7309,4.7309,4.7309,4.7309,4.7309,4.7309,4.7309,4.7309,4.7309,4.7309,4.7309,4.7309,4.7309,4.7309,4.7309,4.7309,4.7309,4.7309,4.7309,4.7309,4.7309,4.7309,4.7309,4.7309,4.7309,4.7309,4.7309,4.7429,4.7489,3.126,3.1386,3.1386,3.1386,3.1336,3.116,3.0633,0.0,3.0357,2.9804,0.0,2.9804,2.9804,0.0,0.0,2.8466,2.9028,2.9223,2.8267,2.8227,2.8307,2.8307,2.9603,3.0371,2.9984,3.0733,3.1241,3.1352,3.1352,3.0932,3.0011,2.9856,2.9804,2.9804,2.9804,2.9804,2.9804,2.9804,3.0292,3.1167,3.0343,3.0959,3.27,3.0921,3.1082,3.2735,3.2629,3.2664,3.2806,3.3671,3.3567,3.3171,3.5486,3.6028,3.5729,3.7524,3.7853,3.7584,3.8871,3.9349,3.9373,3.9373,3.9373,3.9649,4.0816,4.1265,4.1624,4.288,4.323,4.329,4.329,4.329,4.3439,4.4077,4.4257,4.4676,4.5891,4.6262,4.6531,4.7189,4.7309,4.7309,4.7309,4.7309,4.7309,4.7309,4.7309,4.7309,4.7309,4.7309,4.7309,4.7309,4.7309,4.7309,4.7309,4.7309,4.7309,4.7309,4.7309,4.7309,4.7309,4.7309,4.7309,4.7309,4.7309,4.7309,4.7309,4.7309,4.7309,4.7309,4.7908,4.8177,3.2215,3.2114,3.1938,3.229,3.1888,3.1411,3.1512,3.1286,3.0909,3.0382,0.0,0.0,0.0,0.0,0.0,0.0,2.9482,2.9404,2.8267,2.8688,2.9106,2.9106,2.8563,0.0,2.8791,3.0266,3.097,3.0419,3.0895,3.0809,2.9856,2.9804,2.9804,2.9804,2.9804,2.9804,2.9804,2.9804,3.0011,3.0381,3.0011,3.0495,3.1756,3.0419,3.0533,3.1756,3.1193,3.1267,3.1829,3.22,3.2671,3.3209,3.4682,3.5241,3.5473,3.762,3.8212,3.8123,3.908,3.9373,3.9373,3.9373,3.9679,4.0157,4.1085,4.1692,4.2132,4.3021,4.329,4.329,4.329,4.329,4.3349,4.3648,4.4317,4.5035,4.5603,4.6352,4.698,4.7249,4.7309,4.7309,4.7309,4.7309,4.7309,4.7309,4.7309,4.7309,4.7309,4.7309,4.7309,4.7309,4.7309,4.7309,4.7309,4.7309,4.7309,4.7309,4.7309,4.7489,4.7848,4.7519,4.7668,4.8446,4.8057,4.8057,4.8446,4.8446,4.8446,4.8446,4.8327,4.8506,3.2641,3.2541,3.234,3.2943,3.2466,3.1913,3.2164,3.1913,3.1461,3.0934,3.0834,0.0,0.0,0.0,0.0,0.0,0.0,2.9507,2.8688,2.9028,2.9326,2.9326,2.8211,0.0,0.0,2.9948,3.0507,2.9856,3.0419,3.0533,2.9818,2.9804,2.9804,2.9804,2.9804,2.9804,2.9804,2.9804,2.9804,2.9804,3.0062,3.0533,3.1193,3.0771,3.0809,3.1193,3.0733,3.0658,3.0846,3.1119,3.1772,3.2734,3.3642,3.4288,3.4986,3.7367,3.8121,3.8098,3.9062,3.9373,3.9373,3.9373,3.9858,4.0516,4.1175,4.1871,4.253,4.315,4.329,4.329,4.329,4.329,4.3349,4.3529,4.4466,4.5334,4.5544,4.6471,4.7309,4.7309,4.7309,4.7309,4.7309,4.7309,4.7309,4.7309,4.7309,4.7309,4.7309,4.7309,4.7309,4.7309,4.7309,4.7309,4.7309,4.7309,4.7369,4.7549,4.7578,4.7878,4.8536,4.8087,4.8297,4.9299,4.8805,4.882,4.9299,4.9299,4.9419,4.9523,4.9045,4.9075,0.0,0.0,0.0,3.2943,0.0,0.0,0.0,0.0,3.2039,0.0,0.0,0.0,0.0,0.0,0.0,0.0,0.0,0.0,0.0,2.8806,2.8164,2.8164,2.9067,2.9702,0.0,2.9818,2.9818,0.0,2.9818,2.9818,2.9804,2.9804,2.9804,2.9804,2.9804,2.9804,2.9804,2.9804,2.9804,2.9804,3.0733,3.1167,3.1204,3.2092,3.2019,3.1241,3.2128,3.1526,2.9934,3.0846,3.0995,3.0857,3.2411,3.337,3.4153,3.6844,3.7382,3.7098,3.8816,3.9373,3.9373,3.9373,3.9858,4.0516,4.1175,4.1871,4.253,4.315,4.329,4.329,4.329,4.329,4.3439,4.4137,4.4796,4.5484,4.6142,4.683,4.7309,4.7309,4.7309,4.7309,4.7309,4.7309,4.7309,4.7309,4.7309,4.7309,4.7309,4.7309,4.7309,4.7309,4.7309,4.7309,4.7309,4.7309,4.7578,4.8207,4.8267,4.8536,4.9239,4.9269,4.9269,4.9299,4.9299,4.9299,4.9299,4.9299,4.9583,5.0166,5.0136,5.0136,0.0,0.0,3.1361,3.229,0.0,0.0,0.0,0.0,0.0,0.0,0.0,0.0,0.0,0.0,0.0,0.0,0.0,0.0,0.0,2.9482,2.9248,2.9248,2.9585,2.9482,2.8767,0.0,0.0,0.0,2.9804,0.0,2.9804,2.9804,2.9804,2.9804,2.9804,2.9804,2.9804,2.9804,2.9804,2.9804,3.0771,3.1204,3.1204,3.1536,3.1499,3.1167,3.0884,3.0733,3.0696,3.0381,3.1394,3.3043,3.2251,3.2939,3.4591,3.6156,3.6581,3.6595,3.7907,3.836,3.8472,3.9192,4.0157,4.1085,4.1362,4.2132,4.306,4.323,4.329,4.329,4.329,4.329,4.3349,4.3559,4.4167,4.4825,4.5484,4.6172,4.68,4.7219,4.7309,4.7309,4.7309,4.7309,4.7309,4.7309,4.7309,4.7309,4.7309,4.7309,4.7309,4.7309,4.7309,4.7309,4.7309,4.7698,4.8057,4.8267,4.873,4.9224,4.9883,4.9494,4.9719,5.0541,5.0122,5.0122,5.0571,5.0571,5.0661,5.0853,5.0853,5.0853,3.106,3.0859,0.0,3.1712,3.1924,0.0,3.3146,0.0,3.3283,0.0,0.0,0.0,0.0,0.0,0.0,0.0,0.0,0.0,0.0,2.9804,2.9804,2.9804,2.9804,2.9507,2.8767,2.9365,0.0,0.0,0.0,0.0,0.0,0.0,2.9804,2.9804,2.9804,2.9804,2.9804,2.9804,2.9804,2.9804,3.0771,3.1204,3.1204,3.1536,3.1536,3.1167,3.0921,3.0959,3.1193,3.1168,3.2417,3.4266,3.2829,3.3264,3.4774,3.544,3.5894,3.6369,3.7434,3.7805,3.7994,3.9053,4.0307,4.1422,4.1422,4.2312,4.329,4.329,4.329,4.329,4.329,4.329,4.3349,4.3589,4.4018,4.4556,4.5454,4.6022,4.6531,4.7189,4.7309,4.7309,4.7309,4.7309,4.7309,4.7309,4.7309,4.7309,4.7309,4.7309,4.7309,4.7309,4.7309,4.7309,4.7309,4.7908,4.8386,4.8626,4.9254,4.9912,5.0524,5.0182,5.0451,5.1558,5.0883,5.0853,5.1558,5.1319,5.1229,5.1229,5.1468,5.1558]}]]